<?xml version="1.0" encoding="UTF-8" standalone="no" ?>
<gpx xmlns="http://www.topografix.com/GPX/1/1" xmlns:xsi="http://www.w3.org/2001/XMLSchema-instance" xsi:schemaLocation="http://www.topografix.com/GPX/1/1 http://www.topografix.com/GPX/1/1/gpx.xsd" version="1.1" creator="VisuGPX - https://www.visugpx.com">
  <metadata>
    <name>Le sentier des lauzes</name>
    <desc><![CDATA[Le sentier des lauzes est un chemin de randonnée qui forme une boucle sur les communes de Dompnac et Saint-Mélany, avec des bifurcations vers les communes voisines de Beaumont, Valgorge, Sablières, Saint-André Lachamp et Ribes.
Très bel endroit, très belle rando. Le parcours est bien balisé et vous allez découvrir beaucoup de choses.]]></desc>
  </metadata>
  <trk>
    <name><![CDATA[SENTIER DES LAUZES]]></name>
    <trkseg>
      <trkpt lat="44.5304" lon="4.1077">
        <ele>401.97</ele>
        <time>2017-06-04T07:57:39Z</time>
      </trkpt>
      <trkpt lat="44.53041" lon="4.10772">
        <ele>404.85</ele>
        <time>2017-06-04T07:57:50Z</time>
      </trkpt>
      <trkpt lat="44.53044" lon="4.1077">
        <ele>408.22</ele>
        <time>2017-06-04T07:58:03Z</time>
      </trkpt>
      <trkpt lat="44.53044" lon="4.10772">
        <ele>411.58</ele>
        <time>2017-06-04T07:58:14Z</time>
      </trkpt>
      <trkpt lat="44.53044" lon="4.10768">
        <ele>414.47</ele>
        <time>2017-06-04T07:58:25Z</time>
      </trkpt>
      <trkpt lat="44.53045" lon="4.10767">
        <ele>416.87</ele>
        <time>2017-06-04T07:58:36Z</time>
      </trkpt>
      <trkpt lat="44.53043" lon="4.10765">
        <ele>418.79</ele>
        <time>2017-06-04T07:58:47Z</time>
      </trkpt>
      <trkpt lat="44.53042" lon="4.10763">
        <ele>419.27</ele>
        <time>2017-06-04T07:59:04Z</time>
      </trkpt>
      <trkpt lat="44.53042" lon="4.10764">
        <ele>419.75</ele>
        <time>2017-06-04T07:59:24Z</time>
      </trkpt>
      <trkpt lat="44.53042" lon="4.10763">
        <ele>419.75</ele>
        <time>2017-06-04T07:59:46Z</time>
      </trkpt>
      <trkpt lat="44.53042" lon="4.10762">
        <ele>420.23</ele>
        <time>2017-06-04T08:00:04Z</time>
      </trkpt>
      <trkpt lat="44.53042" lon="4.10764">
        <ele>420.71</ele>
        <time>2017-06-04T08:00:15Z</time>
      </trkpt>
      <trkpt lat="44.53042" lon="4.10766">
        <ele>420.71</ele>
        <time>2017-06-04T08:00:20Z</time>
      </trkpt>
      <trkpt lat="44.5304" lon="4.10764">
        <ele>420.71</ele>
        <time>2017-06-04T08:00:22Z</time>
      </trkpt>
      <trkpt lat="44.53033" lon="4.10764">
        <ele>421.19</ele>
        <time>2017-06-04T08:00:29Z</time>
      </trkpt>
      <trkpt lat="44.53032" lon="4.10765">
        <ele>421.19</ele>
        <time>2017-06-04T08:00:32Z</time>
      </trkpt>
      <trkpt lat="44.53021" lon="4.10771">
        <ele>422.16</ele>
        <time>2017-06-04T08:00:42Z</time>
      </trkpt>
      <trkpt lat="44.53012" lon="4.10771">
        <ele>422.64</ele>
        <time>2017-06-04T08:00:52Z</time>
      </trkpt>
      <trkpt lat="44.53008" lon="4.10768">
        <ele>423.12</ele>
        <time>2017-06-04T08:00:57Z</time>
      </trkpt>
      <trkpt lat="44.53003" lon="4.10768">
        <ele>423.6</ele>
        <time>2017-06-04T08:01:04Z</time>
      </trkpt>
      <trkpt lat="44.52991" lon="4.10762">
        <ele>427.44</ele>
        <time>2017-06-04T08:01:15Z</time>
      </trkpt>
      <trkpt lat="44.5299" lon="4.10762">
        <ele>423.6</ele>
        <time>2017-06-04T08:01:16Z</time>
      </trkpt>
      <trkpt lat="44.52981" lon="4.10761">
        <ele>425.04</ele>
        <time>2017-06-04T08:01:26Z</time>
      </trkpt>
      <trkpt lat="44.52969" lon="4.1076">
        <ele>426</ele>
        <time>2017-06-04T08:01:39Z</time>
      </trkpt>
      <trkpt lat="44.52969" lon="4.10759">
        <ele>426</ele>
        <time>2017-06-04T08:01:40Z</time>
      </trkpt>
      <trkpt lat="44.52956" lon="4.10756">
        <ele>426.48</ele>
        <time>2017-06-04T08:01:50Z</time>
      </trkpt>
      <trkpt lat="44.52951" lon="4.10761">
        <ele>427.44</ele>
        <time>2017-06-04T08:02:01Z</time>
      </trkpt>
      <trkpt lat="44.52941" lon="4.10761">
        <ele>428.4</ele>
        <time>2017-06-04T08:02:23Z</time>
      </trkpt>
      <trkpt lat="44.5293" lon="4.10771">
        <ele>429.85</ele>
        <time>2017-06-04T08:02:44Z</time>
      </trkpt>
      <trkpt lat="44.5293" lon="4.10772">
        <ele>430.33</ele>
        <time>2017-06-04T08:02:56Z</time>
      </trkpt>
      <trkpt lat="44.52914" lon="4.10772">
        <ele>431.29</ele>
        <time>2017-06-04T08:03:08Z</time>
      </trkpt>
      <trkpt lat="44.52911" lon="4.10781">
        <ele>432.25</ele>
        <time>2017-06-04T08:03:15Z</time>
      </trkpt>
      <trkpt lat="44.52903" lon="4.10798">
        <ele>432.73</ele>
        <time>2017-06-04T08:03:24Z</time>
      </trkpt>
      <trkpt lat="44.52895" lon="4.10811">
        <ele>433.21</ele>
        <time>2017-06-04T08:03:32Z</time>
      </trkpt>
      <trkpt lat="44.52893" lon="4.10817">
        <ele>433.69</ele>
        <time>2017-06-04T08:03:35Z</time>
      </trkpt>
      <trkpt lat="44.52891" lon="4.10821">
        <ele>433.69</ele>
        <time>2017-06-04T08:03:39Z</time>
      </trkpt>
      <trkpt lat="44.52889" lon="4.10833">
        <ele>434.65</ele>
        <time>2017-06-04T08:03:46Z</time>
      </trkpt>
      <trkpt lat="44.52887" lon="4.10844">
        <ele>434.65</ele>
        <time>2017-06-04T08:03:51Z</time>
      </trkpt>
      <trkpt lat="44.52881" lon="4.10867">
        <ele>436.1</ele>
        <time>2017-06-04T08:04:03Z</time>
      </trkpt>
      <trkpt lat="44.5288" lon="4.10887">
        <ele>437.06</ele>
        <time>2017-06-04T08:04:16Z</time>
      </trkpt>
      <trkpt lat="44.52877" lon="4.10896">
        <ele>438.02</ele>
        <time>2017-06-04T08:04:26Z</time>
      </trkpt>
      <trkpt lat="44.52876" lon="4.10903">
        <ele>438.98</ele>
        <time>2017-06-04T08:04:38Z</time>
      </trkpt>
      <trkpt lat="44.52874" lon="4.10915">
        <ele>439.94</ele>
        <time>2017-06-04T08:04:51Z</time>
      </trkpt>
      <trkpt lat="44.5287" lon="4.10931">
        <ele>440.42</ele>
        <time>2017-06-04T08:04:57Z</time>
      </trkpt>
      <trkpt lat="44.52864" lon="4.10945">
        <ele>440.9</ele>
        <time>2017-06-04T08:05:04Z</time>
      </trkpt>
      <trkpt lat="44.52862" lon="4.10947">
        <ele>440.9</ele>
        <time>2017-06-04T08:05:06Z</time>
      </trkpt>
      <trkpt lat="44.5286" lon="4.10952">
        <ele>440.9</ele>
        <time>2017-06-04T08:05:09Z</time>
      </trkpt>
      <trkpt lat="44.52855" lon="4.10978">
        <ele>442.34</ele>
        <time>2017-06-04T08:05:25Z</time>
      </trkpt>
      <trkpt lat="44.52853" lon="4.10987">
        <ele>443.31</ele>
        <time>2017-06-04T08:05:37Z</time>
      </trkpt>
      <trkpt lat="44.52851" lon="4.10996">
        <ele>443.79</ele>
        <time>2017-06-04T08:05:44Z</time>
      </trkpt>
      <trkpt lat="44.52848" lon="4.11015">
        <ele>444.75</ele>
        <time>2017-06-04T08:05:52Z</time>
      </trkpt>
      <trkpt lat="44.52844" lon="4.1103">
        <ele>445.23</ele>
        <time>2017-06-04T08:06:00Z</time>
      </trkpt>
      <trkpt lat="44.52841" lon="4.11036">
        <ele>445.23</ele>
        <time>2017-06-04T08:06:05Z</time>
      </trkpt>
      <trkpt lat="44.52841" lon="4.1104">
        <ele>445.71</ele>
        <time>2017-06-04T08:06:07Z</time>
      </trkpt>
      <trkpt lat="44.52838" lon="4.11045">
        <ele>445.71</ele>
        <time>2017-06-04T08:06:11Z</time>
      </trkpt>
      <trkpt lat="44.52831" lon="4.11055">
        <ele>446.67</ele>
        <time>2017-06-04T08:06:20Z</time>
      </trkpt>
      <trkpt lat="44.52828" lon="4.11065">
        <ele>447.15</ele>
        <time>2017-06-04T08:06:27Z</time>
      </trkpt>
      <trkpt lat="44.52821" lon="4.11079">
        <ele>448.11</ele>
        <time>2017-06-04T08:06:38Z</time>
      </trkpt>
      <trkpt lat="44.52821" lon="4.1109">
        <ele>448.59</ele>
        <time>2017-06-04T08:06:45Z</time>
      </trkpt>
      <trkpt lat="44.52821" lon="4.11106">
        <ele>449.07</ele>
        <time>2017-06-04T08:06:56Z</time>
      </trkpt>
      <trkpt lat="44.52827" lon="4.11125">
        <ele>451</ele>
        <time>2017-06-04T08:07:11Z</time>
      </trkpt>
      <trkpt lat="44.52831" lon="4.11137">
        <ele>450.52</ele>
        <time>2017-06-04T08:07:19Z</time>
      </trkpt>
      <trkpt lat="44.52831" lon="4.11151">
        <ele>451.48</ele>
        <time>2017-06-04T08:07:32Z</time>
      </trkpt>
      <trkpt lat="44.52832" lon="4.11168">
        <ele>452.44</ele>
        <time>2017-06-04T08:07:44Z</time>
      </trkpt>
      <trkpt lat="44.52834" lon="4.11184">
        <ele>453.4</ele>
        <time>2017-06-04T08:07:55Z</time>
      </trkpt>
      <trkpt lat="44.52834" lon="4.11188">
        <ele>453.4</ele>
        <time>2017-06-04T08:07:58Z</time>
      </trkpt>
      <trkpt lat="44.52835" lon="4.112">
        <ele>453.88</ele>
        <time>2017-06-04T08:08:06Z</time>
      </trkpt>
      <trkpt lat="44.52839" lon="4.11219">
        <ele>454.84</ele>
        <time>2017-06-04T08:08:19Z</time>
      </trkpt>
      <trkpt lat="44.52844" lon="4.1124">
        <ele>455.32</ele>
        <time>2017-06-04T08:08:33Z</time>
      </trkpt>
      <trkpt lat="44.52851" lon="4.11253">
        <ele>455.8</ele>
        <time>2017-06-04T08:08:44Z</time>
      </trkpt>
      <trkpt lat="44.52861" lon="4.11269">
        <ele>456.28</ele>
        <time>2017-06-04T08:08:56Z</time>
      </trkpt>
      <trkpt lat="44.52862" lon="4.11272">
        <ele>456.28</ele>
        <time>2017-06-04T08:08:57Z</time>
      </trkpt>
      <trkpt lat="44.52872" lon="4.11284">
        <ele>456.76</ele>
        <time>2017-06-04T08:09:09Z</time>
      </trkpt>
      <trkpt lat="44.52876" lon="4.1129">
        <ele>457.24</ele>
        <time>2017-06-04T08:09:15Z</time>
      </trkpt>
      <trkpt lat="44.52881" lon="4.11298">
        <ele>457.72</ele>
        <time>2017-06-04T08:09:28Z</time>
      </trkpt>
      <trkpt lat="44.52889" lon="4.11307">
        <ele>458.21</ele>
        <time>2017-06-04T08:09:41Z</time>
      </trkpt>
      <trkpt lat="44.5289" lon="4.1131">
        <ele>458.21</ele>
        <time>2017-06-04T08:09:54Z</time>
      </trkpt>
      <trkpt lat="44.5289" lon="4.11311">
        <ele>458.21</ele>
        <time>2017-06-04T08:10:13Z</time>
      </trkpt>
      <trkpt lat="44.52895" lon="4.1132">
        <ele>459.17</ele>
        <time>2017-06-04T08:10:25Z</time>
      </trkpt>
      <trkpt lat="44.52897" lon="4.11337">
        <ele>459.65</ele>
        <time>2017-06-04T08:10:36Z</time>
      </trkpt>
      <trkpt lat="44.52894" lon="4.11356">
        <ele>460.61</ele>
        <time>2017-06-04T08:10:50Z</time>
      </trkpt>
      <trkpt lat="44.52894" lon="4.11369">
        <ele>461.09</ele>
        <time>2017-06-04T08:11:02Z</time>
      </trkpt>
      <trkpt lat="44.52894" lon="4.11373">
        <ele>461.09</ele>
        <time>2017-06-04T08:11:18Z</time>
      </trkpt>
      <trkpt lat="44.52894" lon="4.11373">
        <ele>461.09</ele>
        <time>2017-06-04T08:11:20Z</time>
      </trkpt>
      <trkpt lat="44.52896" lon="4.1138">
        <ele>461.57</ele>
        <time>2017-06-04T08:11:31Z</time>
      </trkpt>
      <trkpt lat="44.52896" lon="4.11389">
        <ele>462.05</ele>
        <time>2017-06-04T08:11:45Z</time>
      </trkpt>
      <trkpt lat="44.52898" lon="4.11397">
        <ele>462.05</ele>
        <time>2017-06-04T08:11:51Z</time>
      </trkpt>
      <trkpt lat="44.52904" lon="4.1141">
        <ele>463.01</ele>
        <time>2017-06-04T08:12:05Z</time>
      </trkpt>
      <trkpt lat="44.52908" lon="4.11416">
        <ele>463.49</ele>
        <time>2017-06-04T08:12:11Z</time>
      </trkpt>
      <trkpt lat="44.52918" lon="4.11432">
        <ele>464.93</ele>
        <time>2017-06-04T08:12:26Z</time>
      </trkpt>
      <trkpt lat="44.52926" lon="4.11444">
        <ele>465.9</ele>
        <time>2017-06-04T08:12:40Z</time>
      </trkpt>
      <trkpt lat="44.52938" lon="4.11451">
        <ele>466.86</ele>
        <time>2017-06-04T08:12:52Z</time>
      </trkpt>
      <trkpt lat="44.52945" lon="4.11457">
        <ele>467.34</ele>
        <time>2017-06-04T08:12:59Z</time>
      </trkpt>
      <trkpt lat="44.52957" lon="4.11468">
        <ele>468.3</ele>
        <time>2017-06-04T08:13:12Z</time>
      </trkpt>
      <trkpt lat="44.5296" lon="4.11472">
        <ele>468.3</ele>
        <time>2017-06-04T08:13:16Z</time>
      </trkpt>
      <trkpt lat="44.52962" lon="4.11494">
        <ele>469.26</ele>
        <time>2017-06-04T08:13:33Z</time>
      </trkpt>
      <trkpt lat="44.52964" lon="4.11516">
        <ele>470.22</ele>
        <time>2017-06-04T08:13:47Z</time>
      </trkpt>
      <trkpt lat="44.52965" lon="4.11519">
        <ele>470.22</ele>
        <time>2017-06-04T08:13:49Z</time>
      </trkpt>
      <trkpt lat="44.52966" lon="4.11537">
        <ele>470.7</ele>
        <time>2017-06-04T08:14:01Z</time>
      </trkpt>
      <trkpt lat="44.52974" lon="4.1156">
        <ele>470.7</ele>
        <time>2017-06-04T08:14:18Z</time>
      </trkpt>
      <trkpt lat="44.52975" lon="4.11561">
        <ele>470.7</ele>
        <time>2017-06-04T08:14:19Z</time>
      </trkpt>
      <trkpt lat="44.52984" lon="4.11587">
        <ele>469.26</ele>
        <time>2017-06-04T08:14:38Z</time>
      </trkpt>
      <trkpt lat="44.52991" lon="4.11603">
        <ele>467.82</ele>
        <time>2017-06-04T08:14:50Z</time>
      </trkpt>
      <trkpt lat="44.53005" lon="4.11619">
        <ele>467.34</ele>
        <time>2017-06-04T08:15:06Z</time>
      </trkpt>
      <trkpt lat="44.53018" lon="4.11632">
        <ele>467.34</ele>
        <time>2017-06-04T08:15:20Z</time>
      </trkpt>
      <trkpt lat="44.5302" lon="4.11636">
        <ele>467.34</ele>
        <time>2017-06-04T08:15:38Z</time>
      </trkpt>
      <trkpt lat="44.53023" lon="4.11639">
        <ele>467.34</ele>
        <time>2017-06-04T08:15:43Z</time>
      </trkpt>
      <trkpt lat="44.53026" lon="4.11643">
        <ele>467.34</ele>
        <time>2017-06-04T08:15:46Z</time>
      </trkpt>
      <trkpt lat="44.53039" lon="4.11653">
        <ele>467.34</ele>
        <time>2017-06-04T08:16:02Z</time>
      </trkpt>
      <trkpt lat="44.53051" lon="4.11666">
        <ele>466.38</ele>
        <time>2017-06-04T08:16:16Z</time>
      </trkpt>
      <trkpt lat="44.53064" lon="4.11691">
        <ele>465.9</ele>
        <time>2017-06-04T08:16:34Z</time>
      </trkpt>
      <trkpt lat="44.53064" lon="4.11698">
        <ele>465.9</ele>
        <time>2017-06-04T08:16:40Z</time>
      </trkpt>
      <trkpt lat="44.53065" lon="4.11711">
        <ele>465.9</ele>
        <time>2017-06-04T08:16:51Z</time>
      </trkpt>
      <trkpt lat="44.53064" lon="4.11714">
        <ele>466.38</ele>
        <time>2017-06-04T08:16:53Z</time>
      </trkpt>
      <trkpt lat="44.53054" lon="4.11732">
        <ele>467.34</ele>
        <time>2017-06-04T08:17:08Z</time>
      </trkpt>
      <trkpt lat="44.5304" lon="4.11739">
        <ele>467.82</ele>
        <time>2017-06-04T08:17:22Z</time>
      </trkpt>
      <trkpt lat="44.53019" lon="4.11748">
        <ele>464.93</ele>
        <time>2017-06-04T08:17:42Z</time>
      </trkpt>
      <trkpt lat="44.53015" lon="4.11749">
        <ele>464.93</ele>
        <time>2017-06-04T08:17:46Z</time>
      </trkpt>
      <trkpt lat="44.52997" lon="4.11761">
        <ele>464.45</ele>
        <time>2017-06-04T08:18:03Z</time>
      </trkpt>
      <trkpt lat="44.52993" lon="4.11764">
        <ele>464.45</ele>
        <time>2017-06-04T08:18:20Z</time>
      </trkpt>
      <trkpt lat="44.52987" lon="4.11772">
        <ele>464.45</ele>
        <time>2017-06-04T08:18:37Z</time>
      </trkpt>
      <trkpt lat="44.52968" lon="4.11777">
        <ele>464.45</ele>
        <time>2017-06-04T08:18:53Z</time>
      </trkpt>
      <trkpt lat="44.52954" lon="4.1179">
        <ele>463.97</ele>
        <time>2017-06-04T08:19:07Z</time>
      </trkpt>
      <trkpt lat="44.52948" lon="4.11795">
        <ele>464.93</ele>
        <time>2017-06-04T08:19:12Z</time>
      </trkpt>
      <trkpt lat="44.52946" lon="4.11797">
        <ele>463.97</ele>
        <time>2017-06-04T08:19:15Z</time>
      </trkpt>
      <trkpt lat="44.52935" lon="4.1181">
        <ele>463.97</ele>
        <time>2017-06-04T08:19:30Z</time>
      </trkpt>
      <trkpt lat="44.52924" lon="4.11832">
        <ele>463.97</ele>
        <time>2017-06-04T08:19:46Z</time>
      </trkpt>
      <trkpt lat="44.52922" lon="4.11836">
        <ele>463.97</ele>
        <time>2017-06-04T08:19:49Z</time>
      </trkpt>
      <trkpt lat="44.52924" lon="4.11857">
        <ele>463.49</ele>
        <time>2017-06-04T08:20:03Z</time>
      </trkpt>
      <trkpt lat="44.52927" lon="4.11875">
        <ele>462.53</ele>
        <time>2017-06-04T08:20:15Z</time>
      </trkpt>
      <trkpt lat="44.52928" lon="4.11878">
        <ele>462.53</ele>
        <time>2017-06-04T08:20:17Z</time>
      </trkpt>
      <trkpt lat="44.52931" lon="4.11884">
        <ele>462.53</ele>
        <time>2017-06-04T08:20:22Z</time>
      </trkpt>
      <trkpt lat="44.52934" lon="4.11892">
        <ele>462.05</ele>
        <time>2017-06-04T08:20:28Z</time>
      </trkpt>
      <trkpt lat="44.52935" lon="4.11895">
        <ele>462.05</ele>
        <time>2017-06-04T08:20:30Z</time>
      </trkpt>
      <trkpt lat="44.52943" lon="4.11907">
        <ele>461.57</ele>
        <time>2017-06-04T08:20:42Z</time>
      </trkpt>
      <trkpt lat="44.52946" lon="4.11918">
        <ele>461.09</ele>
        <time>2017-06-04T08:20:54Z</time>
      </trkpt>
      <trkpt lat="44.52946" lon="4.11918">
        <ele>461.09</ele>
        <time>2017-06-04T08:20:59Z</time>
      </trkpt>
      <trkpt lat="44.52953" lon="4.1193">
        <ele>460.61</ele>
        <time>2017-06-04T08:21:10Z</time>
      </trkpt>
      <trkpt lat="44.52955" lon="4.11938">
        <ele>460.13</ele>
        <time>2017-06-04T08:21:16Z</time>
      </trkpt>
      <trkpt lat="44.5296" lon="4.11948">
        <ele>459.65</ele>
        <time>2017-06-04T08:21:23Z</time>
      </trkpt>
      <trkpt lat="44.52962" lon="4.11953">
        <ele>459.17</ele>
        <time>2017-06-04T08:21:27Z</time>
      </trkpt>
      <trkpt lat="44.52964" lon="4.11956">
        <ele>459.17</ele>
        <time>2017-06-04T08:21:30Z</time>
      </trkpt>
      <trkpt lat="44.52969" lon="4.11967">
        <ele>458.69</ele>
        <time>2017-06-04T08:21:38Z</time>
      </trkpt>
      <trkpt lat="44.52975" lon="4.11984">
        <ele>458.21</ele>
        <time>2017-06-04T08:21:49Z</time>
      </trkpt>
      <trkpt lat="44.52978" lon="4.11987">
        <ele>458.21</ele>
        <time>2017-06-04T08:21:52Z</time>
      </trkpt>
      <trkpt lat="44.52987" lon="4.12006">
        <ele>457.72</ele>
        <time>2017-06-04T08:22:06Z</time>
      </trkpt>
      <trkpt lat="44.5299" lon="4.12009">
        <ele>457.72</ele>
        <time>2017-06-04T08:22:10Z</time>
      </trkpt>
      <trkpt lat="44.52994" lon="4.12012">
        <ele>457.24</ele>
        <time>2017-06-04T08:22:14Z</time>
      </trkpt>
      <trkpt lat="44.52997" lon="4.12017">
        <ele>456.76</ele>
        <time>2017-06-04T08:22:18Z</time>
      </trkpt>
      <trkpt lat="44.53" lon="4.1202">
        <ele>456.76</ele>
        <time>2017-06-04T08:22:21Z</time>
      </trkpt>
      <trkpt lat="44.53004" lon="4.12028">
        <ele>456.28</ele>
        <time>2017-06-04T08:22:27Z</time>
      </trkpt>
      <trkpt lat="44.53009" lon="4.12035">
        <ele>455.8</ele>
        <time>2017-06-04T08:22:33Z</time>
      </trkpt>
      <trkpt lat="44.53015" lon="4.12043">
        <ele>455.32</ele>
        <time>2017-06-04T08:22:39Z</time>
      </trkpt>
      <trkpt lat="44.53019" lon="4.12048">
        <ele>454.84</ele>
        <time>2017-06-04T08:22:45Z</time>
      </trkpt>
      <trkpt lat="44.53021" lon="4.12053">
        <ele>454.36</ele>
        <time>2017-06-04T08:22:48Z</time>
      </trkpt>
      <trkpt lat="44.53028" lon="4.12067">
        <ele>453.4</ele>
        <time>2017-06-04T08:23:00Z</time>
      </trkpt>
      <trkpt lat="44.53026" lon="4.12075">
        <ele>452.44</ele>
        <time>2017-06-04T08:23:06Z</time>
      </trkpt>
      <trkpt lat="44.53024" lon="4.1208">
        <ele>452.44</ele>
        <time>2017-06-04T08:23:09Z</time>
      </trkpt>
      <trkpt lat="44.53023" lon="4.12085">
        <ele>452.44</ele>
        <time>2017-06-04T08:23:11Z</time>
      </trkpt>
      <trkpt lat="44.53018" lon="4.12095">
        <ele>451.96</ele>
        <time>2017-06-04T08:23:20Z</time>
      </trkpt>
      <trkpt lat="44.53015" lon="4.12099">
        <ele>451.48</ele>
        <time>2017-06-04T08:23:24Z</time>
      </trkpt>
      <trkpt lat="44.53007" lon="4.12112">
        <ele>450.52</ele>
        <time>2017-06-04T08:23:36Z</time>
      </trkpt>
      <trkpt lat="44.53" lon="4.12119">
        <ele>450.03</ele>
        <time>2017-06-04T08:23:46Z</time>
      </trkpt>
      <trkpt lat="44.52998" lon="4.1212">
        <ele>450.03</ele>
        <time>2017-06-04T08:23:48Z</time>
      </trkpt>
      <trkpt lat="44.52995" lon="4.12124">
        <ele>449.55</ele>
        <time>2017-06-04T08:23:51Z</time>
      </trkpt>
      <trkpt lat="44.52992" lon="4.12127">
        <ele>449.55</ele>
        <time>2017-06-04T08:23:54Z</time>
      </trkpt>
      <trkpt lat="44.52989" lon="4.12132">
        <ele>449.07</ele>
        <time>2017-06-04T08:23:57Z</time>
      </trkpt>
      <trkpt lat="44.5298" lon="4.12145">
        <ele>448.11</ele>
        <time>2017-06-04T08:24:09Z</time>
      </trkpt>
      <trkpt lat="44.52973" lon="4.12152">
        <ele>447.15</ele>
        <time>2017-06-04T08:24:19Z</time>
      </trkpt>
      <trkpt lat="44.5297" lon="4.12154">
        <ele>446.67</ele>
        <time>2017-06-04T08:24:21Z</time>
      </trkpt>
      <trkpt lat="44.5296" lon="4.12163">
        <ele>445.71</ele>
        <time>2017-06-04T08:24:28Z</time>
      </trkpt>
      <trkpt lat="44.52956" lon="4.12166">
        <ele>445.23</ele>
        <time>2017-06-04T08:24:31Z</time>
      </trkpt>
      <trkpt lat="44.52949" lon="4.12173">
        <ele>444.75</ele>
        <time>2017-06-04T08:24:36Z</time>
      </trkpt>
      <trkpt lat="44.52947" lon="4.12179">
        <ele>444.27</ele>
        <time>2017-06-04T08:24:40Z</time>
      </trkpt>
      <trkpt lat="44.52943" lon="4.12195">
        <ele>442.82</ele>
        <time>2017-06-04T08:24:50Z</time>
      </trkpt>
      <trkpt lat="44.5294" lon="4.12203">
        <ele>442.34</ele>
        <time>2017-06-04T08:24:56Z</time>
      </trkpt>
      <trkpt lat="44.52941" lon="4.1222">
        <ele>440.9</ele>
        <time>2017-06-04T08:25:08Z</time>
      </trkpt>
      <trkpt lat="44.52945" lon="4.12244">
        <ele>439.46</ele>
        <time>2017-06-04T08:25:21Z</time>
      </trkpt>
      <trkpt lat="44.52945" lon="4.12267">
        <ele>438.98</ele>
        <time>2017-06-04T08:25:35Z</time>
      </trkpt>
      <trkpt lat="44.52944" lon="4.12272">
        <ele>438.5</ele>
        <time>2017-06-04T08:25:38Z</time>
      </trkpt>
      <trkpt lat="44.52943" lon="4.12283">
        <ele>438.5</ele>
        <time>2017-06-04T08:25:43Z</time>
      </trkpt>
      <trkpt lat="44.52939" lon="4.12301">
        <ele>437.54</ele>
        <time>2017-06-04T08:25:53Z</time>
      </trkpt>
      <trkpt lat="44.52934" lon="4.12319">
        <ele>436.58</ele>
        <time>2017-06-04T08:26:05Z</time>
      </trkpt>
      <trkpt lat="44.52932" lon="4.12333">
        <ele>436.1</ele>
        <time>2017-06-04T08:26:15Z</time>
      </trkpt>
      <trkpt lat="44.5293" lon="4.12348">
        <ele>438.02</ele>
        <time>2017-06-04T08:26:26Z</time>
      </trkpt>
      <trkpt lat="44.52929" lon="4.12357">
        <ele>438.5</ele>
        <time>2017-06-04T08:26:31Z</time>
      </trkpt>
      <trkpt lat="44.52925" lon="4.12372">
        <ele>438.98</ele>
        <time>2017-06-04T08:26:40Z</time>
      </trkpt>
      <trkpt lat="44.52923" lon="4.12385">
        <ele>438.98</ele>
        <time>2017-06-04T08:26:48Z</time>
      </trkpt>
      <trkpt lat="44.52923" lon="4.12393">
        <ele>438.98</ele>
        <time>2017-06-04T08:26:53Z</time>
      </trkpt>
      <trkpt lat="44.52919" lon="4.12402">
        <ele>438.5</ele>
        <time>2017-06-04T08:26:59Z</time>
      </trkpt>
      <trkpt lat="44.52918" lon="4.12411">
        <ele>438.5</ele>
        <time>2017-06-04T08:27:05Z</time>
      </trkpt>
      <trkpt lat="44.52918" lon="4.12415">
        <ele>438.5</ele>
        <time>2017-06-04T08:27:08Z</time>
      </trkpt>
      <trkpt lat="44.52915" lon="4.1244">
        <ele>438.5</ele>
        <time>2017-06-04T08:27:23Z</time>
      </trkpt>
      <trkpt lat="44.52915" lon="4.12441">
        <ele>438.98</ele>
        <time>2017-06-04T08:27:40Z</time>
      </trkpt>
      <trkpt lat="44.52917" lon="4.12441">
        <ele>438.02</ele>
        <time>2017-06-04T08:27:55Z</time>
      </trkpt>
      <trkpt lat="44.52917" lon="4.12441">
        <ele>438.5</ele>
        <time>2017-06-04T08:28:21Z</time>
      </trkpt>
      <trkpt lat="44.52916" lon="4.12441">
        <ele>438.5</ele>
        <time>2017-06-04T08:28:51Z</time>
      </trkpt>
      <trkpt lat="44.52917" lon="4.12439">
        <ele>438.98</ele>
        <time>2017-06-04T08:29:06Z</time>
      </trkpt>
      <trkpt lat="44.52916" lon="4.1244">
        <ele>434.65</ele>
        <time>2017-06-04T08:29:39Z</time>
      </trkpt>
      <trkpt lat="44.52916" lon="4.1244">
        <ele>438.02</ele>
        <time>2017-06-04T08:29:40Z</time>
      </trkpt>
      <trkpt lat="44.52916" lon="4.1244">
        <ele>441.38</ele>
        <time>2017-06-04T08:29:41Z</time>
      </trkpt>
      <trkpt lat="44.52916" lon="4.1244">
        <ele>437.54</ele>
        <time>2017-06-04T08:29:42Z</time>
      </trkpt>
      <trkpt lat="44.52916" lon="4.1244">
        <ele>440.9</ele>
        <time>2017-06-04T08:29:56Z</time>
      </trkpt>
      <trkpt lat="44.52916" lon="4.1244">
        <ele>436.58</ele>
        <time>2017-06-04T08:30:03Z</time>
      </trkpt>
      <trkpt lat="44.52916" lon="4.1244">
        <ele>440.42</ele>
        <time>2017-06-04T08:30:04Z</time>
      </trkpt>
      <trkpt lat="44.52916" lon="4.1244">
        <ele>446.67</ele>
        <time>2017-06-04T08:30:06Z</time>
      </trkpt>
      <trkpt lat="44.52916" lon="4.1244">
        <ele>441.38</ele>
        <time>2017-06-04T08:30:07Z</time>
      </trkpt>
      <trkpt lat="44.52917" lon="4.12439">
        <ele>440.9</ele>
        <time>2017-06-04T08:30:21Z</time>
      </trkpt>
      <trkpt lat="44.52917" lon="4.1244">
        <ele>440.9</ele>
        <time>2017-06-04T08:30:38Z</time>
      </trkpt>
      <trkpt lat="44.52915" lon="4.12449">
        <ele>442.34</ele>
        <time>2017-06-04T08:30:54Z</time>
      </trkpt>
      <trkpt lat="44.52915" lon="4.12453">
        <ele>443.31</ele>
        <time>2017-06-04T08:31:08Z</time>
      </trkpt>
      <trkpt lat="44.52916" lon="4.12464">
        <ele>443.31</ele>
        <time>2017-06-04T08:31:22Z</time>
      </trkpt>
      <trkpt lat="44.52913" lon="4.12482">
        <ele>442.34</ele>
        <time>2017-06-04T08:31:34Z</time>
      </trkpt>
      <trkpt lat="44.52908" lon="4.12491">
        <ele>441.38</ele>
        <time>2017-06-04T08:31:40Z</time>
      </trkpt>
      <trkpt lat="44.529" lon="4.12503">
        <ele>439.94</ele>
        <time>2017-06-04T08:31:54Z</time>
      </trkpt>
      <trkpt lat="44.529" lon="4.12505">
        <ele>439.94</ele>
        <time>2017-06-04T08:32:16Z</time>
      </trkpt>
      <trkpt lat="44.52896" lon="4.12515">
        <ele>438.5</ele>
        <time>2017-06-04T08:32:37Z</time>
      </trkpt>
      <trkpt lat="44.52893" lon="4.12523">
        <ele>437.54</ele>
        <time>2017-06-04T08:32:47Z</time>
      </trkpt>
      <trkpt lat="44.5289" lon="4.12539">
        <ele>436.1</ele>
        <time>2017-06-04T08:33:02Z</time>
      </trkpt>
      <trkpt lat="44.52888" lon="4.12557">
        <ele>436.58</ele>
        <time>2017-06-04T08:33:14Z</time>
      </trkpt>
      <trkpt lat="44.52888" lon="4.12565">
        <ele>435.13</ele>
        <time>2017-06-04T08:33:19Z</time>
      </trkpt>
      <trkpt lat="44.52889" lon="4.12576">
        <ele>435.13</ele>
        <time>2017-06-04T08:33:26Z</time>
      </trkpt>
      <trkpt lat="44.52892" lon="4.12597">
        <ele>434.17</ele>
        <time>2017-06-04T08:33:37Z</time>
      </trkpt>
      <trkpt lat="44.52894" lon="4.12604">
        <ele>434.17</ele>
        <time>2017-06-04T08:33:42Z</time>
      </trkpt>
      <trkpt lat="44.52897" lon="4.1261">
        <ele>433.21</ele>
        <time>2017-06-04T08:33:55Z</time>
      </trkpt>
      <trkpt lat="44.52901" lon="4.12614">
        <ele>432.25</ele>
        <time>2017-06-04T08:34:10Z</time>
      </trkpt>
      <trkpt lat="44.52899" lon="4.12613">
        <ele>433.21</ele>
        <time>2017-06-04T08:34:29Z</time>
      </trkpt>
      <trkpt lat="44.52898" lon="4.12612">
        <ele>433.21</ele>
        <time>2017-06-04T08:34:50Z</time>
      </trkpt>
      <trkpt lat="44.52897" lon="4.12614">
        <ele>433.21</ele>
        <time>2017-06-04T08:34:59Z</time>
      </trkpt>
      <trkpt lat="44.52898" lon="4.12613">
        <ele>433.21</ele>
        <time>2017-06-04T08:35:13Z</time>
      </trkpt>
      <trkpt lat="44.529" lon="4.12612">
        <ele>433.69</ele>
        <time>2017-06-04T08:35:28Z</time>
      </trkpt>
      <trkpt lat="44.52901" lon="4.12612">
        <ele>435.13</ele>
        <time>2017-06-04T08:35:41Z</time>
      </trkpt>
      <trkpt lat="44.52904" lon="4.12609">
        <ele>437.54</ele>
        <time>2017-06-04T08:35:52Z</time>
      </trkpt>
      <trkpt lat="44.52911" lon="4.12603">
        <ele>439.46</ele>
        <time>2017-06-04T08:36:02Z</time>
      </trkpt>
      <trkpt lat="44.52917" lon="4.126">
        <ele>441.38</ele>
        <time>2017-06-04T08:36:14Z</time>
      </trkpt>
      <trkpt lat="44.52928" lon="4.12594">
        <ele>442.82</ele>
        <time>2017-06-04T08:36:24Z</time>
      </trkpt>
      <trkpt lat="44.52933" lon="4.12595">
        <ele>443.79</ele>
        <time>2017-06-04T08:36:39Z</time>
      </trkpt>
      <trkpt lat="44.52938" lon="4.12591">
        <ele>444.27</ele>
        <time>2017-06-04T08:36:49Z</time>
      </trkpt>
      <trkpt lat="44.52944" lon="4.12584">
        <ele>445.71</ele>
        <time>2017-06-04T08:37:02Z</time>
      </trkpt>
      <trkpt lat="44.52951" lon="4.1258">
        <ele>447.63</ele>
        <time>2017-06-04T08:37:16Z</time>
      </trkpt>
      <trkpt lat="44.52954" lon="4.12576">
        <ele>448.59</ele>
        <time>2017-06-04T08:37:23Z</time>
      </trkpt>
      <trkpt lat="44.52957" lon="4.12568">
        <ele>450.03</ele>
        <time>2017-06-04T08:37:34Z</time>
      </trkpt>
      <trkpt lat="44.52961" lon="4.12567">
        <ele>451.48</ele>
        <time>2017-06-04T08:37:48Z</time>
      </trkpt>
      <trkpt lat="44.52962" lon="4.12567">
        <ele>452.44</ele>
        <time>2017-06-04T08:37:51Z</time>
      </trkpt>
      <trkpt lat="44.52965" lon="4.12565">
        <ele>451.96</ele>
        <time>2017-06-04T08:37:52Z</time>
      </trkpt>
      <trkpt lat="44.52973" lon="4.12558">
        <ele>452.44</ele>
        <time>2017-06-04T08:37:59Z</time>
      </trkpt>
      <trkpt lat="44.5299" lon="4.12549">
        <ele>453.88</ele>
        <time>2017-06-04T08:38:12Z</time>
      </trkpt>
      <trkpt lat="44.53007" lon="4.12533">
        <ele>456.28</ele>
        <time>2017-06-04T08:38:30Z</time>
      </trkpt>
      <trkpt lat="44.5301" lon="4.12532">
        <ele>457.24</ele>
        <time>2017-06-04T08:38:47Z</time>
      </trkpt>
      <trkpt lat="44.53016" lon="4.12532">
        <ele>457.72</ele>
        <time>2017-06-04T08:39:04Z</time>
      </trkpt>
      <trkpt lat="44.5302" lon="4.12527">
        <ele>459.17</ele>
        <time>2017-06-04T08:39:19Z</time>
      </trkpt>
      <trkpt lat="44.53024" lon="4.12523">
        <ele>461.57</ele>
        <time>2017-06-04T08:39:34Z</time>
      </trkpt>
      <trkpt lat="44.53022" lon="4.12527">
        <ele>462.05</ele>
        <time>2017-06-04T08:39:38Z</time>
      </trkpt>
      <trkpt lat="44.53012" lon="4.12532">
        <ele>462.53</ele>
        <time>2017-06-04T08:39:48Z</time>
      </trkpt>
      <trkpt lat="44.5301" lon="4.12531">
        <ele>462.53</ele>
        <time>2017-06-04T08:39:50Z</time>
      </trkpt>
      <trkpt lat="44.53008" lon="4.12528">
        <ele>463.49</ele>
        <time>2017-06-04T08:39:53Z</time>
      </trkpt>
      <trkpt lat="44.53005" lon="4.12521">
        <ele>465.42</ele>
        <time>2017-06-04T08:40:07Z</time>
      </trkpt>
      <trkpt lat="44.53008" lon="4.12518">
        <ele>466.38</ele>
        <time>2017-06-04T08:40:13Z</time>
      </trkpt>
      <trkpt lat="44.53014" lon="4.12513">
        <ele>465.9</ele>
        <time>2017-06-04T08:40:20Z</time>
      </trkpt>
      <trkpt lat="44.5302" lon="4.12511">
        <ele>465.9</ele>
        <time>2017-06-04T08:40:27Z</time>
      </trkpt>
      <trkpt lat="44.53022" lon="4.1251">
        <ele>465.9</ele>
        <time>2017-06-04T08:40:29Z</time>
      </trkpt>
      <trkpt lat="44.53027" lon="4.12504">
        <ele>466.38</ele>
        <time>2017-06-04T08:40:35Z</time>
      </trkpt>
      <trkpt lat="44.53033" lon="4.12498">
        <ele>466.86</ele>
        <time>2017-06-04T08:40:50Z</time>
      </trkpt>
      <trkpt lat="44.53034" lon="4.12497">
        <ele>466.86</ele>
        <time>2017-06-04T08:41:06Z</time>
      </trkpt>
      <trkpt lat="44.53034" lon="4.12497">
        <ele>467.34</ele>
        <time>2017-06-04T08:41:21Z</time>
      </trkpt>
      <trkpt lat="44.53034" lon="4.12497">
        <ele>467.34</ele>
        <time>2017-06-04T08:41:44Z</time>
      </trkpt>
      <trkpt lat="44.53034" lon="4.12497">
        <ele>466.86</ele>
        <time>2017-06-04T08:42:04Z</time>
      </trkpt>
      <trkpt lat="44.53037" lon="4.12493">
        <ele>467.34</ele>
        <time>2017-06-04T08:42:22Z</time>
      </trkpt>
      <trkpt lat="44.53043" lon="4.12486">
        <ele>467.82</ele>
        <time>2017-06-04T08:42:32Z</time>
      </trkpt>
      <trkpt lat="44.53052" lon="4.12481">
        <ele>468.78</ele>
        <time>2017-06-04T08:42:44Z</time>
      </trkpt>
      <trkpt lat="44.5306" lon="4.1248">
        <ele>469.74</ele>
        <time>2017-06-04T08:42:56Z</time>
      </trkpt>
      <trkpt lat="44.53066" lon="4.12477">
        <ele>470.7</ele>
        <time>2017-06-04T08:43:05Z</time>
      </trkpt>
      <trkpt lat="44.53075" lon="4.12474">
        <ele>472.14</ele>
        <time>2017-06-04T08:43:16Z</time>
      </trkpt>
      <trkpt lat="44.53081" lon="4.12471">
        <ele>473.11</ele>
        <time>2017-06-04T08:43:26Z</time>
      </trkpt>
      <trkpt lat="44.53084" lon="4.12472">
        <ele>473.59</ele>
        <time>2017-06-04T08:43:39Z</time>
      </trkpt>
      <trkpt lat="44.53088" lon="4.1247">
        <ele>474.07</ele>
        <time>2017-06-04T08:43:54Z</time>
      </trkpt>
      <trkpt lat="44.53089" lon="4.12471">
        <ele>473.59</ele>
        <time>2017-06-04T08:44:06Z</time>
      </trkpt>
      <trkpt lat="44.53085" lon="4.12471">
        <ele>474.07</ele>
        <time>2017-06-04T08:44:18Z</time>
      </trkpt>
      <trkpt lat="44.53087" lon="4.1247">
        <ele>474.07</ele>
        <time>2017-06-04T08:44:36Z</time>
      </trkpt>
      <trkpt lat="44.53088" lon="4.12472">
        <ele>474.07</ele>
        <time>2017-06-04T08:44:53Z</time>
      </trkpt>
      <trkpt lat="44.53087" lon="4.12473">
        <ele>473.59</ele>
        <time>2017-06-04T08:45:13Z</time>
      </trkpt>
      <trkpt lat="44.53084" lon="4.12477">
        <ele>473.11</ele>
        <time>2017-06-04T08:45:26Z</time>
      </trkpt>
      <trkpt lat="44.53071" lon="4.12482">
        <ele>471.66</ele>
        <time>2017-06-04T08:45:40Z</time>
      </trkpt>
      <trkpt lat="44.53054" lon="4.1249">
        <ele>469.26</ele>
        <time>2017-06-04T08:45:56Z</time>
      </trkpt>
      <trkpt lat="44.53042" lon="4.12495">
        <ele>467.82</ele>
        <time>2017-06-04T08:46:10Z</time>
      </trkpt>
      <trkpt lat="44.53038" lon="4.125">
        <ele>467.34</ele>
        <time>2017-06-04T08:46:22Z</time>
      </trkpt>
      <trkpt lat="44.53033" lon="4.12504">
        <ele>466.86</ele>
        <time>2017-06-04T08:46:34Z</time>
      </trkpt>
      <trkpt lat="44.53031" lon="4.12507">
        <ele>466.86</ele>
        <time>2017-06-04T08:46:51Z</time>
      </trkpt>
      <trkpt lat="44.53028" lon="4.12507">
        <ele>466.38</ele>
        <time>2017-06-04T08:46:55Z</time>
      </trkpt>
      <trkpt lat="44.53016" lon="4.12513">
        <ele>465.42</ele>
        <time>2017-06-04T08:47:12Z</time>
      </trkpt>
      <trkpt lat="44.53001" lon="4.1252">
        <ele>464.93</ele>
        <time>2017-06-04T08:47:30Z</time>
      </trkpt>
      <trkpt lat="44.52999" lon="4.1252">
        <ele>464.93</ele>
        <time>2017-06-04T08:47:43Z</time>
      </trkpt>
      <trkpt lat="44.52998" lon="4.12519">
        <ele>464.93</ele>
        <time>2017-06-04T08:48:05Z</time>
      </trkpt>
      <trkpt lat="44.52997" lon="4.12519">
        <ele>464.45</ele>
        <time>2017-06-04T08:48:25Z</time>
      </trkpt>
      <trkpt lat="44.52994" lon="4.12521">
        <ele>464.45</ele>
        <time>2017-06-04T08:48:38Z</time>
      </trkpt>
      <trkpt lat="44.52996" lon="4.12525">
        <ele>464.45</ele>
        <time>2017-06-04T08:48:51Z</time>
      </trkpt>
      <trkpt lat="44.52999" lon="4.12521">
        <ele>464.45</ele>
        <time>2017-06-04T08:49:06Z</time>
      </trkpt>
      <trkpt lat="44.52999" lon="4.12522">
        <ele>464.45</ele>
        <time>2017-06-04T08:49:28Z</time>
      </trkpt>
      <trkpt lat="44.53" lon="4.12522">
        <ele>464.45</ele>
        <time>2017-06-04T08:49:46Z</time>
      </trkpt>
      <trkpt lat="44.52999" lon="4.12521">
        <ele>464.45</ele>
        <time>2017-06-04T08:50:09Z</time>
      </trkpt>
      <trkpt lat="44.52999" lon="4.12521">
        <ele>464.45</ele>
        <time>2017-06-04T08:50:35Z</time>
      </trkpt>
      <trkpt lat="44.52999" lon="4.12521">
        <ele>464.93</ele>
        <time>2017-06-04T08:50:57Z</time>
      </trkpt>
      <trkpt lat="44.53" lon="4.12516">
        <ele>465.9</ele>
        <time>2017-06-04T08:51:09Z</time>
      </trkpt>
      <trkpt lat="44.52997" lon="4.12513">
        <ele>467.34</ele>
        <time>2017-06-04T08:51:19Z</time>
      </trkpt>
      <trkpt lat="44.52996" lon="4.12508">
        <ele>468.3</ele>
        <time>2017-06-04T08:51:32Z</time>
      </trkpt>
      <trkpt lat="44.52996" lon="4.12508">
        <ele>468.3</ele>
        <time>2017-06-04T08:51:48Z</time>
      </trkpt>
      <trkpt lat="44.52997" lon="4.12506">
        <ele>468.3</ele>
        <time>2017-06-04T08:52:10Z</time>
      </trkpt>
      <trkpt lat="44.52998" lon="4.12504">
        <ele>469.26</ele>
        <time>2017-06-04T08:52:24Z</time>
      </trkpt>
      <trkpt lat="44.52998" lon="4.12502">
        <ele>469.26</ele>
        <time>2017-06-04T08:52:33Z</time>
      </trkpt>
      <trkpt lat="44.53012" lon="4.12491">
        <ele>471.66</ele>
        <time>2017-06-04T08:52:46Z</time>
      </trkpt>
      <trkpt lat="44.53025" lon="4.12479">
        <ele>473.11</ele>
        <time>2017-06-04T08:52:59Z</time>
      </trkpt>
      <trkpt lat="44.53032" lon="4.12474">
        <ele>474.55</ele>
        <time>2017-06-04T08:53:10Z</time>
      </trkpt>
      <trkpt lat="44.53037" lon="4.12472">
        <ele>476.47</ele>
        <time>2017-06-04T08:53:20Z</time>
      </trkpt>
      <trkpt lat="44.53038" lon="4.1247">
        <ele>477.43</ele>
        <time>2017-06-04T08:53:31Z</time>
      </trkpt>
      <trkpt lat="44.5304" lon="4.12467">
        <ele>477.43</ele>
        <time>2017-06-04T08:53:48Z</time>
      </trkpt>
      <trkpt lat="44.53044" lon="4.12463">
        <ele>478.39</ele>
        <time>2017-06-04T08:54:01Z</time>
      </trkpt>
      <trkpt lat="44.53047" lon="4.12463">
        <ele>478.87</ele>
        <time>2017-06-04T08:54:12Z</time>
      </trkpt>
      <trkpt lat="44.53059" lon="4.12454">
        <ele>482.24</ele>
        <time>2017-06-04T08:54:29Z</time>
      </trkpt>
      <trkpt lat="44.5307" lon="4.12446">
        <ele>484.16</ele>
        <time>2017-06-04T08:54:44Z</time>
      </trkpt>
      <trkpt lat="44.53072" lon="4.12445">
        <ele>484.16</ele>
        <time>2017-06-04T08:54:48Z</time>
      </trkpt>
      <trkpt lat="44.53081" lon="4.12447">
        <ele>485.12</ele>
        <time>2017-06-04T08:55:00Z</time>
      </trkpt>
      <trkpt lat="44.53096" lon="4.12449">
        <ele>485.6</ele>
        <time>2017-06-04T08:55:14Z</time>
      </trkpt>
      <trkpt lat="44.531" lon="4.12453">
        <ele>485.6</ele>
        <time>2017-06-04T08:55:24Z</time>
      </trkpt>
      <trkpt lat="44.53112" lon="4.12456">
        <ele>485.12</ele>
        <time>2017-06-04T08:55:38Z</time>
      </trkpt>
      <trkpt lat="44.53123" lon="4.12462">
        <ele>485.12</ele>
        <time>2017-06-04T08:55:51Z</time>
      </trkpt>
      <trkpt lat="44.5313" lon="4.12461">
        <ele>485.6</ele>
        <time>2017-06-04T08:55:57Z</time>
      </trkpt>
      <trkpt lat="44.53134" lon="4.12461">
        <ele>485.6</ele>
        <time>2017-06-04T08:55:59Z</time>
      </trkpt>
      <trkpt lat="44.53151" lon="4.12461">
        <ele>486.08</ele>
        <time>2017-06-04T08:56:12Z</time>
      </trkpt>
      <trkpt lat="44.53154" lon="4.12462">
        <ele>486.56</ele>
        <time>2017-06-04T08:56:17Z</time>
      </trkpt>
      <trkpt lat="44.53168" lon="4.1246">
        <ele>487.53</ele>
        <time>2017-06-04T08:56:31Z</time>
      </trkpt>
      <trkpt lat="44.53178" lon="4.12461">
        <ele>488.49</ele>
        <time>2017-06-04T08:56:44Z</time>
      </trkpt>
      <trkpt lat="44.53191" lon="4.12459">
        <ele>490.41</ele>
        <time>2017-06-04T08:56:58Z</time>
      </trkpt>
      <trkpt lat="44.53195" lon="4.12461">
        <ele>490.89</ele>
        <time>2017-06-04T08:57:04Z</time>
      </trkpt>
      <trkpt lat="44.53204" lon="4.12467">
        <ele>492.33</ele>
        <time>2017-06-04T08:57:17Z</time>
      </trkpt>
      <trkpt lat="44.53212" lon="4.1247">
        <ele>492.81</ele>
        <time>2017-06-04T08:57:26Z</time>
      </trkpt>
      <trkpt lat="44.53221" lon="4.12472">
        <ele>493.77</ele>
        <time>2017-06-04T08:57:37Z</time>
      </trkpt>
      <trkpt lat="44.53231" lon="4.12473">
        <ele>493.77</ele>
        <time>2017-06-04T08:57:47Z</time>
      </trkpt>
      <trkpt lat="44.53235" lon="4.12475">
        <ele>493.29</ele>
        <time>2017-06-04T08:57:52Z</time>
      </trkpt>
      <trkpt lat="44.53245" lon="4.1248">
        <ele>492.81</ele>
        <time>2017-06-04T08:58:05Z</time>
      </trkpt>
      <trkpt lat="44.53245" lon="4.1248">
        <ele>492.81</ele>
        <time>2017-06-04T08:58:06Z</time>
      </trkpt>
      <trkpt lat="44.53253" lon="4.12481">
        <ele>493.29</ele>
        <time>2017-06-04T08:58:15Z</time>
      </trkpt>
      <trkpt lat="44.53263" lon="4.12486">
        <ele>493.77</ele>
        <time>2017-06-04T08:58:29Z</time>
      </trkpt>
      <trkpt lat="44.53265" lon="4.12489">
        <ele>494.26</ele>
        <time>2017-06-04T08:58:48Z</time>
      </trkpt>
      <trkpt lat="44.53284" lon="4.12499">
        <ele>494.74</ele>
        <time>2017-06-04T08:59:02Z</time>
      </trkpt>
      <trkpt lat="44.53293" lon="4.1251">
        <ele>495.22</ele>
        <time>2017-06-04T08:59:12Z</time>
      </trkpt>
      <trkpt lat="44.53306" lon="4.12518">
        <ele>494.74</ele>
        <time>2017-06-04T08:59:25Z</time>
      </trkpt>
      <trkpt lat="44.53318" lon="4.1252">
        <ele>494.74</ele>
        <time>2017-06-04T08:59:40Z</time>
      </trkpt>
      <trkpt lat="44.53329" lon="4.12515">
        <ele>494.74</ele>
        <time>2017-06-04T08:59:54Z</time>
      </trkpt>
      <trkpt lat="44.53343" lon="4.12509">
        <ele>495.22</ele>
        <time>2017-06-04T09:00:07Z</time>
      </trkpt>
      <trkpt lat="44.53352" lon="4.12505">
        <ele>495.22</ele>
        <time>2017-06-04T09:00:17Z</time>
      </trkpt>
      <trkpt lat="44.53356" lon="4.12506">
        <ele>495.22</ele>
        <time>2017-06-04T09:00:21Z</time>
      </trkpt>
      <trkpt lat="44.53371" lon="4.12503">
        <ele>493.77</ele>
        <time>2017-06-04T09:00:37Z</time>
      </trkpt>
      <trkpt lat="44.53391" lon="4.12496">
        <ele>491.85</ele>
        <time>2017-06-04T09:00:56Z</time>
      </trkpt>
      <trkpt lat="44.53398" lon="4.12494">
        <ele>491.37</ele>
        <time>2017-06-04T09:01:07Z</time>
      </trkpt>
      <trkpt lat="44.53402" lon="4.12495">
        <ele>490.89</ele>
        <time>2017-06-04T09:01:19Z</time>
      </trkpt>
      <trkpt lat="44.53403" lon="4.12491">
        <ele>490.89</ele>
        <time>2017-06-04T09:01:41Z</time>
      </trkpt>
      <trkpt lat="44.53403" lon="4.1249">
        <ele>490.89</ele>
        <time>2017-06-04T09:01:42Z</time>
      </trkpt>
      <trkpt lat="44.53405" lon="4.12485">
        <ele>491.37</ele>
        <time>2017-06-04T09:02:04Z</time>
      </trkpt>
      <trkpt lat="44.53405" lon="4.12493">
        <ele>491.37</ele>
        <time>2017-06-04T09:02:23Z</time>
      </trkpt>
      <trkpt lat="44.53402" lon="4.12499">
        <ele>491.37</ele>
        <time>2017-06-04T09:02:49Z</time>
      </trkpt>
      <trkpt lat="44.53405" lon="4.12498">
        <ele>491.37</ele>
        <time>2017-06-04T09:02:54Z</time>
      </trkpt>
      <trkpt lat="44.53408" lon="4.12497">
        <ele>491.37</ele>
        <time>2017-06-04T09:02:57Z</time>
      </trkpt>
      <trkpt lat="44.53421" lon="4.1249">
        <ele>491.85</ele>
        <time>2017-06-04T09:03:12Z</time>
      </trkpt>
      <trkpt lat="44.53437" lon="4.12478">
        <ele>491.85</ele>
        <time>2017-06-04T09:03:26Z</time>
      </trkpt>
      <trkpt lat="44.53453" lon="4.12466">
        <ele>490.89</ele>
        <time>2017-06-04T09:03:43Z</time>
      </trkpt>
      <trkpt lat="44.53468" lon="4.12452">
        <ele>490.41</ele>
        <time>2017-06-04T09:04:00Z</time>
      </trkpt>
      <trkpt lat="44.53477" lon="4.12448">
        <ele>489.93</ele>
        <time>2017-06-04T09:04:17Z</time>
      </trkpt>
      <trkpt lat="44.53481" lon="4.12447">
        <ele>489.93</ele>
        <time>2017-06-04T09:04:23Z</time>
      </trkpt>
      <trkpt lat="44.53501" lon="4.12448">
        <ele>489.45</ele>
        <time>2017-06-04T09:04:38Z</time>
      </trkpt>
      <trkpt lat="44.53508" lon="4.12442">
        <ele>489.45</ele>
        <time>2017-06-04T09:04:40Z</time>
      </trkpt>
      <trkpt lat="44.53518" lon="4.12438">
        <ele>488.49</ele>
        <time>2017-06-04T09:04:52Z</time>
      </trkpt>
      <trkpt lat="44.53524" lon="4.12435">
        <ele>488.01</ele>
        <time>2017-06-04T09:05:13Z</time>
      </trkpt>
      <trkpt lat="44.53531" lon="4.12439">
        <ele>487.05</ele>
        <time>2017-06-04T09:05:32Z</time>
      </trkpt>
      <trkpt lat="44.53532" lon="4.12438">
        <ele>487.05</ele>
        <time>2017-06-04T09:05:51Z</time>
      </trkpt>
      <trkpt lat="44.53539" lon="4.12442">
        <ele>486.56</ele>
        <time>2017-06-04T09:06:11Z</time>
      </trkpt>
      <trkpt lat="44.53542" lon="4.12439">
        <ele>486.08</ele>
        <time>2017-06-04T09:06:28Z</time>
      </trkpt>
      <trkpt lat="44.53545" lon="4.12441">
        <ele>486.08</ele>
        <time>2017-06-04T09:06:43Z</time>
      </trkpt>
      <trkpt lat="44.53546" lon="4.12445">
        <ele>486.56</ele>
        <time>2017-06-04T09:07:00Z</time>
      </trkpt>
      <trkpt lat="44.53549" lon="4.12444">
        <ele>486.08</ele>
        <time>2017-06-04T09:07:17Z</time>
      </trkpt>
      <trkpt lat="44.53547" lon="4.12442">
        <ele>486.56</ele>
        <time>2017-06-04T09:07:31Z</time>
      </trkpt>
      <trkpt lat="44.53547" lon="4.12441">
        <ele>486.56</ele>
        <time>2017-06-04T09:07:54Z</time>
      </trkpt>
      <trkpt lat="44.53546" lon="4.12443">
        <ele>486.08</ele>
        <time>2017-06-04T09:08:16Z</time>
      </trkpt>
      <trkpt lat="44.53545" lon="4.12443">
        <ele>485.6</ele>
        <time>2017-06-04T09:08:54Z</time>
      </trkpt>
      <trkpt lat="44.53545" lon="4.12447">
        <ele>486.08</ele>
        <time>2017-06-04T09:09:10Z</time>
      </trkpt>
      <trkpt lat="44.53543" lon="4.12447">
        <ele>486.08</ele>
        <time>2017-06-04T09:09:28Z</time>
      </trkpt>
      <trkpt lat="44.53547" lon="4.12446">
        <ele>485.6</ele>
        <time>2017-06-04T09:09:44Z</time>
      </trkpt>
      <trkpt lat="44.53544" lon="4.1245">
        <ele>486.08</ele>
        <time>2017-06-04T09:09:59Z</time>
      </trkpt>
      <trkpt lat="44.53541" lon="4.12449">
        <ele>486.08</ele>
        <time>2017-06-04T09:10:10Z</time>
      </trkpt>
      <trkpt lat="44.53537" lon="4.12446">
        <ele>486.08</ele>
        <time>2017-06-04T09:10:25Z</time>
      </trkpt>
      <trkpt lat="44.53533" lon="4.12444">
        <ele>486.08</ele>
        <time>2017-06-04T09:10:40Z</time>
      </trkpt>
      <trkpt lat="44.53528" lon="4.12441">
        <ele>486.56</ele>
        <time>2017-06-04T09:10:53Z</time>
      </trkpt>
      <trkpt lat="44.53526" lon="4.12436">
        <ele>487.05</ele>
        <time>2017-06-04T09:11:04Z</time>
      </trkpt>
      <trkpt lat="44.53524" lon="4.12439">
        <ele>487.53</ele>
        <time>2017-06-04T09:11:20Z</time>
      </trkpt>
      <trkpt lat="44.53526" lon="4.12438">
        <ele>486.56</ele>
        <time>2017-06-04T09:11:38Z</time>
      </trkpt>
      <trkpt lat="44.53526" lon="4.12433">
        <ele>487.05</ele>
        <time>2017-06-04T09:11:51Z</time>
      </trkpt>
      <trkpt lat="44.53525" lon="4.12432">
        <ele>486.08</ele>
        <time>2017-06-04T09:12:06Z</time>
      </trkpt>
      <trkpt lat="44.53525" lon="4.12431">
        <ele>485.6</ele>
        <time>2017-06-04T09:12:20Z</time>
      </trkpt>
      <trkpt lat="44.53525" lon="4.1243">
        <ele>484.64</ele>
        <time>2017-06-04T09:12:36Z</time>
      </trkpt>
      <trkpt lat="44.53526" lon="4.12429">
        <ele>485.12</ele>
        <time>2017-06-04T09:12:38Z</time>
      </trkpt>
      <trkpt lat="44.53528" lon="4.12427">
        <ele>486.08</ele>
        <time>2017-06-04T09:12:42Z</time>
      </trkpt>
      <trkpt lat="44.53534" lon="4.12422">
        <ele>488.01</ele>
        <time>2017-06-04T09:12:51Z</time>
      </trkpt>
      <trkpt lat="44.53539" lon="4.12418">
        <ele>488.01</ele>
        <time>2017-06-04T09:12:54Z</time>
      </trkpt>
      <trkpt lat="44.53545" lon="4.12415">
        <ele>488.49</ele>
        <time>2017-06-04T09:13:08Z</time>
      </trkpt>
      <trkpt lat="44.53546" lon="4.12414">
        <ele>488.01</ele>
        <time>2017-06-04T09:13:22Z</time>
      </trkpt>
      <trkpt lat="44.53548" lon="4.12413">
        <ele>488.01</ele>
        <time>2017-06-04T09:13:24Z</time>
      </trkpt>
      <trkpt lat="44.53555" lon="4.12408">
        <ele>487.53</ele>
        <time>2017-06-04T09:13:30Z</time>
      </trkpt>
      <trkpt lat="44.53564" lon="4.12406">
        <ele>487.05</ele>
        <time>2017-06-04T09:13:39Z</time>
      </trkpt>
      <trkpt lat="44.53576" lon="4.1241">
        <ele>486.08</ele>
        <time>2017-06-04T09:13:53Z</time>
      </trkpt>
      <trkpt lat="44.53588" lon="4.12413">
        <ele>485.12</ele>
        <time>2017-06-04T09:14:07Z</time>
      </trkpt>
      <trkpt lat="44.53597" lon="4.12419">
        <ele>485.12</ele>
        <time>2017-06-04T09:14:20Z</time>
      </trkpt>
      <trkpt lat="44.53603" lon="4.12424">
        <ele>486.08</ele>
        <time>2017-06-04T09:14:30Z</time>
      </trkpt>
      <trkpt lat="44.53603" lon="4.12422">
        <ele>486.08</ele>
        <time>2017-06-04T09:14:54Z</time>
      </trkpt>
      <trkpt lat="44.53604" lon="4.12425">
        <ele>485.6</ele>
        <time>2017-06-04T09:15:05Z</time>
      </trkpt>
      <trkpt lat="44.53604" lon="4.12425">
        <ele>485.6</ele>
        <time>2017-06-04T09:15:33Z</time>
      </trkpt>
      <trkpt lat="44.53605" lon="4.12428">
        <ele>485.6</ele>
        <time>2017-06-04T09:15:45Z</time>
      </trkpt>
      <trkpt lat="44.5361" lon="4.12428">
        <ele>485.6</ele>
        <time>2017-06-04T09:15:50Z</time>
      </trkpt>
      <trkpt lat="44.5362" lon="4.1243">
        <ele>484.64</ele>
        <time>2017-06-04T09:16:03Z</time>
      </trkpt>
      <trkpt lat="44.53621" lon="4.12432">
        <ele>484.16</ele>
        <time>2017-06-04T09:16:07Z</time>
      </trkpt>
      <trkpt lat="44.53625" lon="4.12437">
        <ele>485.12</ele>
        <time>2017-06-04T09:16:12Z</time>
      </trkpt>
      <trkpt lat="44.53628" lon="4.12444">
        <ele>486.08</ele>
        <time>2017-06-04T09:16:19Z</time>
      </trkpt>
      <trkpt lat="44.53631" lon="4.12454">
        <ele>488.01</ele>
        <time>2017-06-04T09:16:29Z</time>
      </trkpt>
      <trkpt lat="44.53633" lon="4.12468">
        <ele>488.97</ele>
        <time>2017-06-04T09:16:41Z</time>
      </trkpt>
      <trkpt lat="44.53635" lon="4.1248">
        <ele>489.93</ele>
        <time>2017-06-04T09:16:49Z</time>
      </trkpt>
      <trkpt lat="44.53639" lon="4.12498">
        <ele>491.37</ele>
        <time>2017-06-04T09:17:03Z</time>
      </trkpt>
      <trkpt lat="44.5364" lon="4.12505">
        <ele>491.85</ele>
        <time>2017-06-04T09:17:08Z</time>
      </trkpt>
      <trkpt lat="44.53641" lon="4.12508">
        <ele>492.33</ele>
        <time>2017-06-04T09:17:10Z</time>
      </trkpt>
      <trkpt lat="44.53643" lon="4.12512">
        <ele>492.81</ele>
        <time>2017-06-04T09:17:13Z</time>
      </trkpt>
      <trkpt lat="44.53643" lon="4.12515">
        <ele>493.29</ele>
        <time>2017-06-04T09:17:15Z</time>
      </trkpt>
      <trkpt lat="44.53648" lon="4.12526">
        <ele>494.74</ele>
        <time>2017-06-04T09:17:25Z</time>
      </trkpt>
      <trkpt lat="44.53648" lon="4.12529">
        <ele>494.74</ele>
        <time>2017-06-04T09:17:27Z</time>
      </trkpt>
      <trkpt lat="44.53649" lon="4.12531">
        <ele>495.22</ele>
        <time>2017-06-04T09:17:29Z</time>
      </trkpt>
      <trkpt lat="44.53657" lon="4.12536">
        <ele>496.66</ele>
        <time>2017-06-04T09:17:41Z</time>
      </trkpt>
      <trkpt lat="44.53657" lon="4.12538">
        <ele>496.18</ele>
        <time>2017-06-04T09:17:42Z</time>
      </trkpt>
      <trkpt lat="44.5366" lon="4.12542">
        <ele>495.7</ele>
        <time>2017-06-04T09:17:56Z</time>
      </trkpt>
      <trkpt lat="44.53667" lon="4.12543">
        <ele>495.22</ele>
        <time>2017-06-04T09:18:01Z</time>
      </trkpt>
      <trkpt lat="44.5368" lon="4.12551">
        <ele>494.26</ele>
        <time>2017-06-04T09:18:15Z</time>
      </trkpt>
      <trkpt lat="44.53687" lon="4.12566">
        <ele>493.29</ele>
        <time>2017-06-04T09:18:29Z</time>
      </trkpt>
      <trkpt lat="44.53691" lon="4.1257">
        <ele>492.33</ele>
        <time>2017-06-04T09:18:36Z</time>
      </trkpt>
      <trkpt lat="44.53704" lon="4.12573">
        <ele>490.89</ele>
        <time>2017-06-04T09:18:46Z</time>
      </trkpt>
      <trkpt lat="44.53712" lon="4.12576">
        <ele>490.89</ele>
        <time>2017-06-04T09:18:53Z</time>
      </trkpt>
      <trkpt lat="44.53718" lon="4.12596">
        <ele>491.37</ele>
        <time>2017-06-04T09:19:10Z</time>
      </trkpt>
      <trkpt lat="44.53718" lon="4.12598">
        <ele>491.37</ele>
        <time>2017-06-04T09:19:12Z</time>
      </trkpt>
      <trkpt lat="44.53715" lon="4.12614">
        <ele>491.85</ele>
        <time>2017-06-04T09:19:26Z</time>
      </trkpt>
      <trkpt lat="44.5371" lon="4.12629">
        <ele>491.37</ele>
        <time>2017-06-04T09:19:38Z</time>
      </trkpt>
      <trkpt lat="44.53708" lon="4.12643">
        <ele>491.37</ele>
        <time>2017-06-04T09:19:51Z</time>
      </trkpt>
      <trkpt lat="44.53707" lon="4.1266">
        <ele>492.33</ele>
        <time>2017-06-04T09:20:03Z</time>
      </trkpt>
      <trkpt lat="44.53706" lon="4.12669">
        <ele>492.33</ele>
        <time>2017-06-04T09:20:16Z</time>
      </trkpt>
      <trkpt lat="44.53704" lon="4.12677">
        <ele>491.85</ele>
        <time>2017-06-04T09:20:32Z</time>
      </trkpt>
      <trkpt lat="44.53703" lon="4.12687">
        <ele>490.89</ele>
        <time>2017-06-04T09:20:48Z</time>
      </trkpt>
      <trkpt lat="44.53705" lon="4.12702">
        <ele>488.49</ele>
        <time>2017-06-04T09:21:03Z</time>
      </trkpt>
      <trkpt lat="44.53706" lon="4.12715">
        <ele>486.08</ele>
        <time>2017-06-04T09:21:17Z</time>
      </trkpt>
      <trkpt lat="44.53711" lon="4.12733">
        <ele>484.16</ele>
        <time>2017-06-04T09:21:33Z</time>
      </trkpt>
      <trkpt lat="44.53716" lon="4.1274">
        <ele>482.72</ele>
        <time>2017-06-04T09:21:45Z</time>
      </trkpt>
      <trkpt lat="44.53718" lon="4.1275">
        <ele>482.24</ele>
        <time>2017-06-04T09:21:57Z</time>
      </trkpt>
      <trkpt lat="44.5372" lon="4.12755">
        <ele>480.8</ele>
        <time>2017-06-04T09:22:13Z</time>
      </trkpt>
      <trkpt lat="44.53723" lon="4.12772">
        <ele>479.35</ele>
        <time>2017-06-04T09:22:26Z</time>
      </trkpt>
      <trkpt lat="44.53728" lon="4.12784">
        <ele>478.39</ele>
        <time>2017-06-04T09:22:41Z</time>
      </trkpt>
      <trkpt lat="44.53733" lon="4.12784">
        <ele>478.39</ele>
        <time>2017-06-04T09:22:52Z</time>
      </trkpt>
      <trkpt lat="44.53734" lon="4.12784">
        <ele>475.03</ele>
        <time>2017-06-04T09:22:55Z</time>
      </trkpt>
      <trkpt lat="44.53734" lon="4.12784">
        <ele>480.32</ele>
        <time>2017-06-04T09:22:56Z</time>
      </trkpt>
      <trkpt lat="44.53734" lon="4.12784">
        <ele>476.95</ele>
        <time>2017-06-04T09:22:59Z</time>
      </trkpt>
      <trkpt lat="44.53734" lon="4.12784">
        <ele>481.28</ele>
        <time>2017-06-04T09:23:05Z</time>
      </trkpt>
      <trkpt lat="44.53735" lon="4.12787">
        <ele>477.43</ele>
        <time>2017-06-04T09:23:17Z</time>
      </trkpt>
      <trkpt lat="44.53735" lon="4.12787">
        <ele>481.28</ele>
        <time>2017-06-04T09:23:18Z</time>
      </trkpt>
      <trkpt lat="44.53735" lon="4.12786">
        <ele>477.91</ele>
        <time>2017-06-04T09:23:22Z</time>
      </trkpt>
      <trkpt lat="44.53737" lon="4.12789">
        <ele>478.87</ele>
        <time>2017-06-04T09:23:32Z</time>
      </trkpt>
      <trkpt lat="44.5375" lon="4.12788">
        <ele>479.35</ele>
        <time>2017-06-04T09:23:42Z</time>
      </trkpt>
      <trkpt lat="44.53764" lon="4.12785">
        <ele>479.84</ele>
        <time>2017-06-04T09:23:54Z</time>
      </trkpt>
      <trkpt lat="44.53774" lon="4.1278">
        <ele>480.32</ele>
        <time>2017-06-04T09:24:04Z</time>
      </trkpt>
      <trkpt lat="44.53777" lon="4.12779">
        <ele>480.8</ele>
        <time>2017-06-04T09:24:07Z</time>
      </trkpt>
      <trkpt lat="44.53781" lon="4.12778">
        <ele>480.8</ele>
        <time>2017-06-04T09:24:10Z</time>
      </trkpt>
      <trkpt lat="44.53786" lon="4.12775">
        <ele>481.76</ele>
        <time>2017-06-04T09:24:17Z</time>
      </trkpt>
      <trkpt lat="44.53792" lon="4.1277">
        <ele>482.24</ele>
        <time>2017-06-04T09:24:25Z</time>
      </trkpt>
      <trkpt lat="44.538" lon="4.12765">
        <ele>482.72</ele>
        <time>2017-06-04T09:24:35Z</time>
      </trkpt>
      <trkpt lat="44.53814" lon="4.12755">
        <ele>484.16</ele>
        <time>2017-06-04T09:24:47Z</time>
      </trkpt>
      <trkpt lat="44.53816" lon="4.12754">
        <ele>484.16</ele>
        <time>2017-06-04T09:24:48Z</time>
      </trkpt>
      <trkpt lat="44.53823" lon="4.1275">
        <ele>483.2</ele>
        <time>2017-06-04T09:24:59Z</time>
      </trkpt>
      <trkpt lat="44.53833" lon="4.12742">
        <ele>481.28</ele>
        <time>2017-06-04T09:25:13Z</time>
      </trkpt>
      <trkpt lat="44.53841" lon="4.12738">
        <ele>480.32</ele>
        <time>2017-06-04T09:25:26Z</time>
      </trkpt>
      <trkpt lat="44.53848" lon="4.12735">
        <ele>478.87</ele>
        <time>2017-06-04T09:25:39Z</time>
      </trkpt>
      <trkpt lat="44.53848" lon="4.12734">
        <ele>477.91</ele>
        <time>2017-06-04T09:25:52Z</time>
      </trkpt>
      <trkpt lat="44.53856" lon="4.12729">
        <ele>475.99</ele>
        <time>2017-06-04T09:26:06Z</time>
      </trkpt>
      <trkpt lat="44.53868" lon="4.12721">
        <ele>475.51</ele>
        <time>2017-06-04T09:26:13Z</time>
      </trkpt>
      <trkpt lat="44.53876" lon="4.12716">
        <ele>474.55</ele>
        <time>2017-06-04T09:26:25Z</time>
      </trkpt>
      <trkpt lat="44.53879" lon="4.12716">
        <ele>474.07</ele>
        <time>2017-06-04T09:26:30Z</time>
      </trkpt>
      <trkpt lat="44.53889" lon="4.12713">
        <ele>473.11</ele>
        <time>2017-06-04T09:26:40Z</time>
      </trkpt>
      <trkpt lat="44.53896" lon="4.12716">
        <ele>471.66</ele>
        <time>2017-06-04T09:26:52Z</time>
      </trkpt>
      <trkpt lat="44.53899" lon="4.12714">
        <ele>471.66</ele>
        <time>2017-06-04T09:26:54Z</time>
      </trkpt>
      <trkpt lat="44.53903" lon="4.12713">
        <ele>470.7</ele>
        <time>2017-06-04T09:26:58Z</time>
      </trkpt>
      <trkpt lat="44.53908" lon="4.12713">
        <ele>469.74</ele>
        <time>2017-06-04T09:27:09Z</time>
      </trkpt>
      <trkpt lat="44.53917" lon="4.12714">
        <ele>467.34</ele>
        <time>2017-06-04T09:27:21Z</time>
      </trkpt>
      <trkpt lat="44.53923" lon="4.12711">
        <ele>466.38</ele>
        <time>2017-06-04T09:27:36Z</time>
      </trkpt>
      <trkpt lat="44.53932" lon="4.1271">
        <ele>464.45</ele>
        <time>2017-06-04T09:27:50Z</time>
      </trkpt>
      <trkpt lat="44.53933" lon="4.12717">
        <ele>463.01</ele>
        <time>2017-06-04T09:28:01Z</time>
      </trkpt>
      <trkpt lat="44.53942" lon="4.12715">
        <ele>461.57</ele>
        <time>2017-06-04T09:28:11Z</time>
      </trkpt>
      <trkpt lat="44.53949" lon="4.12718">
        <ele>460.13</ele>
        <time>2017-06-04T09:28:22Z</time>
      </trkpt>
      <trkpt lat="44.53958" lon="4.12717">
        <ele>458.21</ele>
        <time>2017-06-04T09:28:34Z</time>
      </trkpt>
      <trkpt lat="44.53959" lon="4.12718">
        <ele>458.21</ele>
        <time>2017-06-04T09:28:35Z</time>
      </trkpt>
      <trkpt lat="44.53964" lon="4.12721">
        <ele>456.28</ele>
        <time>2017-06-04T09:28:49Z</time>
      </trkpt>
      <trkpt lat="44.53964" lon="4.12721">
        <ele>455.8</ele>
        <time>2017-06-04T09:28:52Z</time>
      </trkpt>
      <trkpt lat="44.5397" lon="4.12721">
        <ele>453.88</ele>
        <time>2017-06-04T09:29:05Z</time>
      </trkpt>
      <trkpt lat="44.5397" lon="4.1272">
        <ele>452.92</ele>
        <time>2017-06-04T09:29:12Z</time>
      </trkpt>
      <trkpt lat="44.53969" lon="4.12721">
        <ele>452.44</ele>
        <time>2017-06-04T09:29:15Z</time>
      </trkpt>
      <trkpt lat="44.5397" lon="4.1272">
        <ele>450.03</ele>
        <time>2017-06-04T09:29:27Z</time>
      </trkpt>
      <trkpt lat="44.5397" lon="4.1272">
        <ele>450.03</ele>
        <time>2017-06-04T09:29:29Z</time>
      </trkpt>
      <trkpt lat="44.53969" lon="4.12717">
        <ele>448.11</ele>
        <time>2017-06-04T09:29:40Z</time>
      </trkpt>
      <trkpt lat="44.53982" lon="4.1271">
        <ele>446.67</ele>
        <time>2017-06-04T09:29:53Z</time>
      </trkpt>
      <trkpt lat="44.5399" lon="4.12712">
        <ele>445.71</ele>
        <time>2017-06-04T09:30:07Z</time>
      </trkpt>
      <trkpt lat="44.54011" lon="4.1271">
        <ele>444.75</ele>
        <time>2017-06-04T09:30:23Z</time>
      </trkpt>
      <trkpt lat="44.54018" lon="4.12708">
        <ele>444.75</ele>
        <time>2017-06-04T09:30:48Z</time>
      </trkpt>
      <trkpt lat="44.54023" lon="4.12704">
        <ele>445.23</ele>
        <time>2017-06-04T09:31:17Z</time>
      </trkpt>
      <trkpt lat="44.54024" lon="4.12701">
        <ele>443.31</ele>
        <time>2017-06-04T09:31:37Z</time>
      </trkpt>
      <trkpt lat="44.54023" lon="4.12701">
        <ele>443.79</ele>
        <time>2017-06-04T09:32:05Z</time>
      </trkpt>
      <trkpt lat="44.54023" lon="4.12702">
        <ele>443.79</ele>
        <time>2017-06-04T09:32:24Z</time>
      </trkpt>
      <trkpt lat="44.54028" lon="4.12715">
        <ele>444.27</ele>
        <time>2017-06-04T09:32:41Z</time>
      </trkpt>
      <trkpt lat="44.54028" lon="4.12718">
        <ele>446.19</ele>
        <time>2017-06-04T09:32:45Z</time>
      </trkpt>
      <trkpt lat="44.54029" lon="4.12717">
        <ele>447.15</ele>
        <time>2017-06-04T09:33:05Z</time>
      </trkpt>
      <trkpt lat="44.54028" lon="4.12722">
        <ele>449.07</ele>
        <time>2017-06-04T09:33:09Z</time>
      </trkpt>
      <trkpt lat="44.54028" lon="4.12725">
        <ele>449.07</ele>
        <time>2017-06-04T09:33:12Z</time>
      </trkpt>
      <trkpt lat="44.54033" lon="4.12741">
        <ele>450.52</ele>
        <time>2017-06-04T09:33:28Z</time>
      </trkpt>
      <trkpt lat="44.54034" lon="4.12744">
        <ele>451</ele>
        <time>2017-06-04T09:33:31Z</time>
      </trkpt>
      <trkpt lat="44.54036" lon="4.12749">
        <ele>452.44</ele>
        <time>2017-06-04T09:33:37Z</time>
      </trkpt>
      <trkpt lat="44.5404" lon="4.12783">
        <ele>454.36</ele>
        <time>2017-06-04T09:33:55Z</time>
      </trkpt>
      <trkpt lat="44.54039" lon="4.1279">
        <ele>457.72</ele>
        <time>2017-06-04T09:34:11Z</time>
      </trkpt>
      <trkpt lat="44.54045" lon="4.12796">
        <ele>458.69</ele>
        <time>2017-06-04T09:34:32Z</time>
      </trkpt>
      <trkpt lat="44.54049" lon="4.12798">
        <ele>460.61</ele>
        <time>2017-06-04T09:34:48Z</time>
      </trkpt>
      <trkpt lat="44.54049" lon="4.12802">
        <ele>461.09</ele>
        <time>2017-06-04T09:35:10Z</time>
      </trkpt>
      <trkpt lat="44.54051" lon="4.12805">
        <ele>461.09</ele>
        <time>2017-06-04T09:35:34Z</time>
      </trkpt>
      <trkpt lat="44.5405" lon="4.12809">
        <ele>462.53</ele>
        <time>2017-06-04T09:35:55Z</time>
      </trkpt>
      <trkpt lat="44.5405" lon="4.1281">
        <ele>462.05</ele>
        <time>2017-06-04T09:36:12Z</time>
      </trkpt>
      <trkpt lat="44.5405" lon="4.1281">
        <ele>462.53</ele>
        <time>2017-06-04T09:36:43Z</time>
      </trkpt>
      <trkpt lat="44.54049" lon="4.1281">
        <ele>461.57</ele>
        <time>2017-06-04T09:36:59Z</time>
      </trkpt>
      <trkpt lat="44.54047" lon="4.12815">
        <ele>462.53</ele>
        <time>2017-06-04T09:37:18Z</time>
      </trkpt>
      <trkpt lat="44.54044" lon="4.12828">
        <ele>462.05</ele>
        <time>2017-06-04T09:37:31Z</time>
      </trkpt>
      <trkpt lat="44.54042" lon="4.12834">
        <ele>461.57</ele>
        <time>2017-06-04T09:37:35Z</time>
      </trkpt>
      <trkpt lat="44.54039" lon="4.12843">
        <ele>462.05</ele>
        <time>2017-06-04T09:37:48Z</time>
      </trkpt>
      <trkpt lat="44.54039" lon="4.12852">
        <ele>462.05</ele>
        <time>2017-06-04T09:37:59Z</time>
      </trkpt>
      <trkpt lat="44.54039" lon="4.12857">
        <ele>462.53</ele>
        <time>2017-06-04T09:38:16Z</time>
      </trkpt>
      <trkpt lat="44.54033" lon="4.12863">
        <ele>462.53</ele>
        <time>2017-06-04T09:38:33Z</time>
      </trkpt>
      <trkpt lat="44.54032" lon="4.12863">
        <ele>462.53</ele>
        <time>2017-06-04T09:38:54Z</time>
      </trkpt>
      <trkpt lat="44.54032" lon="4.12857">
        <ele>462.53</ele>
        <time>2017-06-04T09:39:12Z</time>
      </trkpt>
      <trkpt lat="44.54032" lon="4.12858">
        <ele>462.05</ele>
        <time>2017-06-04T09:39:25Z</time>
      </trkpt>
      <trkpt lat="44.54031" lon="4.1286">
        <ele>462.53</ele>
        <time>2017-06-04T09:39:39Z</time>
      </trkpt>
      <trkpt lat="44.54025" lon="4.12859">
        <ele>462.53</ele>
        <time>2017-06-04T09:39:52Z</time>
      </trkpt>
      <trkpt lat="44.53998" lon="4.12833">
        <ele>462.53</ele>
        <time>2017-06-04T09:40:25Z</time>
      </trkpt>
      <trkpt lat="44.53999" lon="4.12835">
        <ele>463.97</ele>
        <time>2017-06-04T09:40:41Z</time>
      </trkpt>
      <trkpt lat="44.54" lon="4.12836">
        <ele>464.45</ele>
        <time>2017-06-04T09:40:56Z</time>
      </trkpt>
      <trkpt lat="44.54002" lon="4.12838">
        <ele>464.93</ele>
        <time>2017-06-04T09:41:15Z</time>
      </trkpt>
      <trkpt lat="44.54003" lon="4.12839">
        <ele>465.42</ele>
        <time>2017-06-04T09:41:22Z</time>
      </trkpt>
      <trkpt lat="44.54016" lon="4.12845">
        <ele>465.42</ele>
        <time>2017-06-04T09:41:26Z</time>
      </trkpt>
      <trkpt lat="44.54031" lon="4.12856">
        <ele>465.42</ele>
        <time>2017-06-04T09:41:34Z</time>
      </trkpt>
      <trkpt lat="44.54029" lon="4.1286">
        <ele>466.38</ele>
        <time>2017-06-04T09:41:47Z</time>
      </trkpt>
      <trkpt lat="44.5403" lon="4.12866">
        <ele>468.3</ele>
        <time>2017-06-04T09:42:01Z</time>
      </trkpt>
      <trkpt lat="44.54031" lon="4.12871">
        <ele>468.3</ele>
        <time>2017-06-04T09:42:07Z</time>
      </trkpt>
      <trkpt lat="44.54038" lon="4.12892">
        <ele>469.26</ele>
        <time>2017-06-04T09:42:18Z</time>
      </trkpt>
      <trkpt lat="44.54042" lon="4.129">
        <ele>469.26</ele>
        <time>2017-06-04T09:42:21Z</time>
      </trkpt>
      <trkpt lat="44.54053" lon="4.12918">
        <ele>470.22</ele>
        <time>2017-06-04T09:42:31Z</time>
      </trkpt>
      <trkpt lat="44.54058" lon="4.12925">
        <ele>471.66</ele>
        <time>2017-06-04T09:42:41Z</time>
      </trkpt>
      <trkpt lat="44.54065" lon="4.1293">
        <ele>473.59</ele>
        <time>2017-06-04T09:42:54Z</time>
      </trkpt>
      <trkpt lat="44.54073" lon="4.12933">
        <ele>475.99</ele>
        <time>2017-06-04T09:43:07Z</time>
      </trkpt>
      <trkpt lat="44.54083" lon="4.12934">
        <ele>477.91</ele>
        <time>2017-06-04T09:43:21Z</time>
      </trkpt>
      <trkpt lat="44.54095" lon="4.1294">
        <ele>480.32</ele>
        <time>2017-06-04T09:43:37Z</time>
      </trkpt>
      <trkpt lat="44.54097" lon="4.12942">
        <ele>480.32</ele>
        <time>2017-06-04T09:43:42Z</time>
      </trkpt>
      <trkpt lat="44.54108" lon="4.12943">
        <ele>481.28</ele>
        <time>2017-06-04T09:43:54Z</time>
      </trkpt>
      <trkpt lat="44.54122" lon="4.12949">
        <ele>482.72</ele>
        <time>2017-06-04T09:44:08Z</time>
      </trkpt>
      <trkpt lat="44.54124" lon="4.12949">
        <ele>482.72</ele>
        <time>2017-06-04T09:44:09Z</time>
      </trkpt>
      <trkpt lat="44.54132" lon="4.12952">
        <ele>483.68</ele>
        <time>2017-06-04T09:44:21Z</time>
      </trkpt>
      <trkpt lat="44.5414" lon="4.12954">
        <ele>484.64</ele>
        <time>2017-06-04T09:44:30Z</time>
      </trkpt>
      <trkpt lat="44.54148" lon="4.12958">
        <ele>485.6</ele>
        <time>2017-06-04T09:44:40Z</time>
      </trkpt>
      <trkpt lat="44.54157" lon="4.12954">
        <ele>487.05</ele>
        <time>2017-06-04T09:44:57Z</time>
      </trkpt>
      <trkpt lat="44.54171" lon="4.12956">
        <ele>488.97</ele>
        <time>2017-06-04T09:45:14Z</time>
      </trkpt>
      <trkpt lat="44.54183" lon="4.12956">
        <ele>490.89</ele>
        <time>2017-06-04T09:45:28Z</time>
      </trkpt>
      <trkpt lat="44.54197" lon="4.12956">
        <ele>492.81</ele>
        <time>2017-06-04T09:45:43Z</time>
      </trkpt>
      <trkpt lat="44.542" lon="4.12954">
        <ele>492.81</ele>
        <time>2017-06-04T09:45:54Z</time>
      </trkpt>
      <trkpt lat="44.542" lon="4.12954">
        <ele>493.29</ele>
        <time>2017-06-04T09:46:09Z</time>
      </trkpt>
      <trkpt lat="44.54199" lon="4.12952">
        <ele>493.77</ele>
        <time>2017-06-04T09:46:25Z</time>
      </trkpt>
      <trkpt lat="44.54194" lon="4.12948">
        <ele>494.74</ele>
        <time>2017-06-04T09:46:45Z</time>
      </trkpt>
      <trkpt lat="44.54185" lon="4.12944">
        <ele>495.7</ele>
        <time>2017-06-04T09:46:59Z</time>
      </trkpt>
      <trkpt lat="44.54178" lon="4.12934">
        <ele>497.62</ele>
        <time>2017-06-04T09:47:13Z</time>
      </trkpt>
      <trkpt lat="44.54166" lon="4.12928">
        <ele>499.06</ele>
        <time>2017-06-04T09:47:25Z</time>
      </trkpt>
      <trkpt lat="44.54162" lon="4.12917">
        <ele>500.98</ele>
        <time>2017-06-04T09:47:38Z</time>
      </trkpt>
      <trkpt lat="44.54166" lon="4.12914">
        <ele>501.95</ele>
        <time>2017-06-04T09:47:50Z</time>
      </trkpt>
      <trkpt lat="44.54171" lon="4.12913">
        <ele>502.91</ele>
        <time>2017-06-04T09:47:57Z</time>
      </trkpt>
      <trkpt lat="44.54177" lon="4.12911">
        <ele>503.87</ele>
        <time>2017-06-04T09:48:03Z</time>
      </trkpt>
      <trkpt lat="44.54184" lon="4.12907">
        <ele>505.31</ele>
        <time>2017-06-04T09:48:12Z</time>
      </trkpt>
      <trkpt lat="44.54185" lon="4.12908">
        <ele>505.31</ele>
        <time>2017-06-04T09:48:13Z</time>
      </trkpt>
      <trkpt lat="44.54187" lon="4.12909">
        <ele>505.79</ele>
        <time>2017-06-04T09:48:23Z</time>
      </trkpt>
      <trkpt lat="44.54187" lon="4.12909">
        <ele>506.27</ele>
        <time>2017-06-04T09:48:32Z</time>
      </trkpt>
      <trkpt lat="44.54189" lon="4.12908">
        <ele>506.27</ele>
        <time>2017-06-04T09:48:37Z</time>
      </trkpt>
      <trkpt lat="44.54194" lon="4.12907">
        <ele>507.71</ele>
        <time>2017-06-04T09:48:46Z</time>
      </trkpt>
      <trkpt lat="44.54195" lon="4.12907">
        <ele>507.71</ele>
        <time>2017-06-04T09:48:47Z</time>
      </trkpt>
      <trkpt lat="44.54201" lon="4.12906">
        <ele>508.67</ele>
        <time>2017-06-04T09:48:53Z</time>
      </trkpt>
      <trkpt lat="44.54202" lon="4.12906">
        <ele>508.67</ele>
        <time>2017-06-04T09:48:54Z</time>
      </trkpt>
      <trkpt lat="44.54208" lon="4.12906">
        <ele>509.64</ele>
        <time>2017-06-04T09:49:08Z</time>
      </trkpt>
      <trkpt lat="44.54209" lon="4.12904">
        <ele>509.64</ele>
        <time>2017-06-04T09:49:27Z</time>
      </trkpt>
      <trkpt lat="44.5421" lon="4.12904">
        <ele>510.12</ele>
        <time>2017-06-04T09:49:41Z</time>
      </trkpt>
      <trkpt lat="44.54212" lon="4.12903">
        <ele>510.12</ele>
        <time>2017-06-04T09:49:56Z</time>
      </trkpt>
      <trkpt lat="44.54212" lon="4.12902">
        <ele>510.6</ele>
        <time>2017-06-04T09:50:12Z</time>
      </trkpt>
      <trkpt lat="44.54223" lon="4.12905">
        <ele>511.08</ele>
        <time>2017-06-04T09:50:27Z</time>
      </trkpt>
      <trkpt lat="44.54231" lon="4.12912">
        <ele>512.04</ele>
        <time>2017-06-04T09:50:37Z</time>
      </trkpt>
      <trkpt lat="44.54234" lon="4.12914">
        <ele>513</ele>
        <time>2017-06-04T09:50:46Z</time>
      </trkpt>
      <trkpt lat="44.54243" lon="4.12917">
        <ele>513.96</ele>
        <time>2017-06-04T09:50:58Z</time>
      </trkpt>
      <trkpt lat="44.54245" lon="4.12919">
        <ele>515.4</ele>
        <time>2017-06-04T09:51:07Z</time>
      </trkpt>
      <trkpt lat="44.54246" lon="4.12919">
        <ele>515.4</ele>
        <time>2017-06-04T09:51:08Z</time>
      </trkpt>
      <trkpt lat="44.54249" lon="4.12921">
        <ele>515.88</ele>
        <time>2017-06-04T09:51:11Z</time>
      </trkpt>
      <trkpt lat="44.54253" lon="4.12921">
        <ele>516.37</ele>
        <time>2017-06-04T09:51:15Z</time>
      </trkpt>
      <trkpt lat="44.54266" lon="4.12918">
        <ele>517.33</ele>
        <time>2017-06-04T09:51:23Z</time>
      </trkpt>
      <trkpt lat="44.5427" lon="4.1292">
        <ele>517.81</ele>
        <time>2017-06-04T09:51:26Z</time>
      </trkpt>
      <trkpt lat="44.54272" lon="4.12921">
        <ele>517.81</ele>
        <time>2017-06-04T09:51:27Z</time>
      </trkpt>
      <trkpt lat="44.54273" lon="4.12921">
        <ele>517.81</ele>
        <time>2017-06-04T09:51:29Z</time>
      </trkpt>
      <trkpt lat="44.54275" lon="4.12925">
        <ele>518.29</ele>
        <time>2017-06-04T09:51:40Z</time>
      </trkpt>
      <trkpt lat="44.54274" lon="4.12925">
        <ele>517.81</ele>
        <time>2017-06-04T09:52:03Z</time>
      </trkpt>
      <trkpt lat="44.54275" lon="4.12925">
        <ele>518.29</ele>
        <time>2017-06-04T09:52:24Z</time>
      </trkpt>
      <trkpt lat="44.54277" lon="4.12925">
        <ele>517.81</ele>
        <time>2017-06-04T09:52:51Z</time>
      </trkpt>
      <trkpt lat="44.54279" lon="4.12925">
        <ele>518.29</ele>
        <time>2017-06-04T09:53:01Z</time>
      </trkpt>
      <trkpt lat="44.54281" lon="4.12926">
        <ele>518.29</ele>
        <time>2017-06-04T09:53:07Z</time>
      </trkpt>
      <trkpt lat="44.54284" lon="4.12928">
        <ele>518.29</ele>
        <time>2017-06-04T09:53:12Z</time>
      </trkpt>
      <trkpt lat="44.54287" lon="4.12929">
        <ele>518.29</ele>
        <time>2017-06-04T09:53:16Z</time>
      </trkpt>
      <trkpt lat="44.54288" lon="4.1293">
        <ele>518.29</ele>
        <time>2017-06-04T09:53:17Z</time>
      </trkpt>
      <trkpt lat="44.54289" lon="4.12932">
        <ele>518.29</ele>
        <time>2017-06-04T09:53:29Z</time>
      </trkpt>
      <trkpt lat="44.54293" lon="4.12932">
        <ele>518.29</ele>
        <time>2017-06-04T09:53:51Z</time>
      </trkpt>
      <trkpt lat="44.54295" lon="4.12931">
        <ele>518.29</ele>
        <time>2017-06-04T09:54:10Z</time>
      </trkpt>
      <trkpt lat="44.54297" lon="4.12932">
        <ele>518.29</ele>
        <time>2017-06-04T09:54:22Z</time>
      </trkpt>
      <trkpt lat="44.54298" lon="4.12931">
        <ele>518.29</ele>
        <time>2017-06-04T09:54:23Z</time>
      </trkpt>
      <trkpt lat="44.54299" lon="4.1293">
        <ele>518.29</ele>
        <time>2017-06-04T09:54:24Z</time>
      </trkpt>
      <trkpt lat="44.54302" lon="4.12931">
        <ele>518.29</ele>
        <time>2017-06-04T09:54:27Z</time>
      </trkpt>
      <trkpt lat="44.54307" lon="4.12927">
        <ele>519.73</ele>
        <time>2017-06-04T09:54:37Z</time>
      </trkpt>
      <trkpt lat="44.54307" lon="4.12922">
        <ele>519.73</ele>
        <time>2017-06-04T09:54:40Z</time>
      </trkpt>
      <trkpt lat="44.54303" lon="4.12916">
        <ele>521.17</ele>
        <time>2017-06-04T09:54:50Z</time>
      </trkpt>
      <trkpt lat="44.54301" lon="4.12915">
        <ele>521.17</ele>
        <time>2017-06-04T09:54:53Z</time>
      </trkpt>
      <trkpt lat="44.54298" lon="4.12913">
        <ele>522.13</ele>
        <time>2017-06-04T09:54:57Z</time>
      </trkpt>
      <trkpt lat="44.54289" lon="4.12909">
        <ele>522.61</ele>
        <time>2017-06-04T09:55:07Z</time>
      </trkpt>
      <trkpt lat="44.54279" lon="4.12905">
        <ele>522.61</ele>
        <time>2017-06-04T09:55:20Z</time>
      </trkpt>
      <trkpt lat="44.54278" lon="4.12905">
        <ele>523.09</ele>
        <time>2017-06-04T09:55:47Z</time>
      </trkpt>
      <trkpt lat="44.54277" lon="4.12906">
        <ele>522.61</ele>
        <time>2017-06-04T09:56:11Z</time>
      </trkpt>
      <trkpt lat="44.54266" lon="4.12902">
        <ele>522.61</ele>
        <time>2017-06-04T09:56:23Z</time>
      </trkpt>
      <trkpt lat="44.54252" lon="4.12893">
        <ele>523.09</ele>
        <time>2017-06-04T09:56:37Z</time>
      </trkpt>
      <trkpt lat="44.54249" lon="4.12891">
        <ele>523.09</ele>
        <time>2017-06-04T09:56:40Z</time>
      </trkpt>
      <trkpt lat="44.54238" lon="4.12879">
        <ele>524.06</ele>
        <time>2017-06-04T09:56:54Z</time>
      </trkpt>
      <trkpt lat="44.54225" lon="4.12867">
        <ele>524.54</ele>
        <time>2017-06-04T09:57:08Z</time>
      </trkpt>
      <trkpt lat="44.54211" lon="4.12862">
        <ele>525.5</ele>
        <time>2017-06-04T09:57:20Z</time>
      </trkpt>
      <trkpt lat="44.54204" lon="4.12852">
        <ele>526.46</ele>
        <time>2017-06-04T09:57:31Z</time>
      </trkpt>
      <trkpt lat="44.54199" lon="4.12849">
        <ele>528.38</ele>
        <time>2017-06-04T09:57:45Z</time>
      </trkpt>
      <trkpt lat="44.54201" lon="4.12844">
        <ele>529.34</ele>
        <time>2017-06-04T09:57:56Z</time>
      </trkpt>
      <trkpt lat="44.54204" lon="4.12837">
        <ele>530.3</ele>
        <time>2017-06-04T09:58:06Z</time>
      </trkpt>
      <trkpt lat="44.54209" lon="4.12835">
        <ele>532.71</ele>
        <time>2017-06-04T09:58:19Z</time>
      </trkpt>
      <trkpt lat="44.5421" lon="4.12831">
        <ele>534.15</ele>
        <time>2017-06-04T09:58:31Z</time>
      </trkpt>
      <trkpt lat="44.54206" lon="4.12824">
        <ele>535.59</ele>
        <time>2017-06-04T09:58:45Z</time>
      </trkpt>
      <trkpt lat="44.54199" lon="4.12819">
        <ele>536.55</ele>
        <time>2017-06-04T09:58:55Z</time>
      </trkpt>
      <trkpt lat="44.54199" lon="4.12816">
        <ele>536.55</ele>
        <time>2017-06-04T09:59:13Z</time>
      </trkpt>
      <trkpt lat="44.54199" lon="4.12811">
        <ele>536.55</ele>
        <time>2017-06-04T09:59:17Z</time>
      </trkpt>
      <trkpt lat="44.54201" lon="4.12798">
        <ele>537.99</ele>
        <time>2017-06-04T09:59:32Z</time>
      </trkpt>
      <trkpt lat="44.54203" lon="4.12791">
        <ele>539.44</ele>
        <time>2017-06-04T09:59:42Z</time>
      </trkpt>
      <trkpt lat="44.54204" lon="4.1279">
        <ele>539.92</ele>
        <time>2017-06-04T09:59:43Z</time>
      </trkpt>
      <trkpt lat="44.54205" lon="4.1279">
        <ele>539.92</ele>
        <time>2017-06-04T09:59:46Z</time>
      </trkpt>
      <trkpt lat="44.54209" lon="4.12787">
        <ele>541.36</ele>
        <time>2017-06-04T09:59:56Z</time>
      </trkpt>
      <trkpt lat="44.54213" lon="4.12778">
        <ele>542.8</ele>
        <time>2017-06-04T10:00:08Z</time>
      </trkpt>
      <trkpt lat="44.54216" lon="4.12772">
        <ele>544.72</ele>
        <time>2017-06-04T10:00:18Z</time>
      </trkpt>
      <trkpt lat="44.54217" lon="4.12768">
        <ele>545.69</ele>
        <time>2017-06-04T10:00:31Z</time>
      </trkpt>
      <trkpt lat="44.54222" lon="4.12762">
        <ele>547.13</ele>
        <time>2017-06-04T10:00:43Z</time>
      </trkpt>
      <trkpt lat="44.54227" lon="4.12757">
        <ele>549.05</ele>
        <time>2017-06-04T10:00:54Z</time>
      </trkpt>
      <trkpt lat="44.54235" lon="4.12751">
        <ele>550.49</ele>
        <time>2017-06-04T10:01:06Z</time>
      </trkpt>
      <trkpt lat="44.54239" lon="4.12749">
        <ele>551.93</ele>
        <time>2017-06-04T10:01:19Z</time>
      </trkpt>
      <trkpt lat="44.54244" lon="4.12743">
        <ele>553.86</ele>
        <time>2017-06-04T10:01:29Z</time>
      </trkpt>
      <trkpt lat="44.54247" lon="4.1274">
        <ele>554.82</ele>
        <time>2017-06-04T10:01:38Z</time>
      </trkpt>
      <trkpt lat="44.54249" lon="4.12737">
        <ele>556.26</ele>
        <time>2017-06-04T10:01:53Z</time>
      </trkpt>
      <trkpt lat="44.5425" lon="4.12735">
        <ele>558.18</ele>
        <time>2017-06-04T10:02:05Z</time>
      </trkpt>
      <trkpt lat="44.54262" lon="4.1273">
        <ele>560.59</ele>
        <time>2017-06-04T10:02:21Z</time>
      </trkpt>
      <trkpt lat="44.54268" lon="4.1273">
        <ele>561.07</ele>
        <time>2017-06-04T10:02:44Z</time>
      </trkpt>
      <trkpt lat="44.54276" lon="4.12729">
        <ele>562.51</ele>
        <time>2017-06-04T10:02:56Z</time>
      </trkpt>
      <trkpt lat="44.54284" lon="4.12728">
        <ele>564.43</ele>
        <time>2017-06-04T10:03:09Z</time>
      </trkpt>
      <trkpt lat="44.5429" lon="4.12726">
        <ele>565.87</ele>
        <time>2017-06-04T10:03:21Z</time>
      </trkpt>
      <trkpt lat="44.54296" lon="4.12726">
        <ele>566.35</ele>
        <time>2017-06-04T10:03:39Z</time>
      </trkpt>
      <trkpt lat="44.54302" lon="4.12723">
        <ele>568.28</ele>
        <time>2017-06-04T10:03:52Z</time>
      </trkpt>
      <trkpt lat="44.54304" lon="4.12715">
        <ele>570.2</ele>
        <time>2017-06-04T10:04:05Z</time>
      </trkpt>
      <trkpt lat="44.54302" lon="4.1271">
        <ele>571.16</ele>
        <time>2017-06-04T10:04:17Z</time>
      </trkpt>
      <trkpt lat="44.54305" lon="4.12709">
        <ele>571.16</ele>
        <time>2017-06-04T10:04:31Z</time>
      </trkpt>
      <trkpt lat="44.54309" lon="4.12709">
        <ele>571.64</ele>
        <time>2017-06-04T10:04:40Z</time>
      </trkpt>
      <trkpt lat="44.54319" lon="4.12707">
        <ele>572.12</ele>
        <time>2017-06-04T10:04:51Z</time>
      </trkpt>
      <trkpt lat="44.54326" lon="4.12706">
        <ele>573.08</ele>
        <time>2017-06-04T10:05:04Z</time>
      </trkpt>
      <trkpt lat="44.54334" lon="4.12704">
        <ele>573.08</ele>
        <time>2017-06-04T10:05:13Z</time>
      </trkpt>
      <trkpt lat="44.54341" lon="4.12706">
        <ele>573.56</ele>
        <time>2017-06-04T10:05:19Z</time>
      </trkpt>
      <trkpt lat="44.54344" lon="4.12706">
        <ele>574.04</ele>
        <time>2017-06-04T10:05:24Z</time>
      </trkpt>
      <trkpt lat="44.54348" lon="4.12705">
        <ele>574.53</ele>
        <time>2017-06-04T10:05:27Z</time>
      </trkpt>
      <trkpt lat="44.54359" lon="4.12705">
        <ele>575.97</ele>
        <time>2017-06-04T10:05:40Z</time>
      </trkpt>
      <trkpt lat="44.54371" lon="4.127">
        <ele>576.93</ele>
        <time>2017-06-04T10:05:51Z</time>
      </trkpt>
      <trkpt lat="44.54382" lon="4.12696">
        <ele>577.89</ele>
        <time>2017-06-04T10:06:00Z</time>
      </trkpt>
      <trkpt lat="44.54384" lon="4.12695">
        <ele>578.37</ele>
        <time>2017-06-04T10:06:02Z</time>
      </trkpt>
      <trkpt lat="44.54395" lon="4.12691">
        <ele>579.81</ele>
        <time>2017-06-04T10:06:15Z</time>
      </trkpt>
      <trkpt lat="44.54405" lon="4.1268">
        <ele>580.77</ele>
        <time>2017-06-04T10:06:26Z</time>
      </trkpt>
      <trkpt lat="44.54408" lon="4.12676">
        <ele>581.73</ele>
        <time>2017-06-04T10:06:32Z</time>
      </trkpt>
      <trkpt lat="44.54414" lon="4.1267">
        <ele>582.7</ele>
        <time>2017-06-04T10:06:42Z</time>
      </trkpt>
      <trkpt lat="44.54418" lon="4.12668">
        <ele>583.18</ele>
        <time>2017-06-04T10:06:47Z</time>
      </trkpt>
      <trkpt lat="44.5442" lon="4.12667">
        <ele>583.66</ele>
        <time>2017-06-04T10:06:48Z</time>
      </trkpt>
      <trkpt lat="44.54422" lon="4.12665">
        <ele>583.66</ele>
        <time>2017-06-04T10:06:50Z</time>
      </trkpt>
      <trkpt lat="44.54434" lon="4.1266">
        <ele>584.62</ele>
        <time>2017-06-04T10:07:00Z</time>
      </trkpt>
      <trkpt lat="44.54439" lon="4.12658">
        <ele>585.58</ele>
        <time>2017-06-04T10:07:08Z</time>
      </trkpt>
      <trkpt lat="44.54441" lon="4.12657">
        <ele>586.06</ele>
        <time>2017-06-04T10:07:27Z</time>
      </trkpt>
      <trkpt lat="44.54446" lon="4.12655">
        <ele>586.54</ele>
        <time>2017-06-04T10:07:43Z</time>
      </trkpt>
      <trkpt lat="44.54456" lon="4.1265">
        <ele>588.46</ele>
        <time>2017-06-04T10:07:55Z</time>
      </trkpt>
      <trkpt lat="44.54465" lon="4.12646">
        <ele>589.91</ele>
        <time>2017-06-04T10:08:07Z</time>
      </trkpt>
      <trkpt lat="44.54477" lon="4.12648">
        <ele>591.35</ele>
        <time>2017-06-04T10:08:19Z</time>
      </trkpt>
      <trkpt lat="44.54482" lon="4.12647">
        <ele>591.83</ele>
        <time>2017-06-04T10:08:23Z</time>
      </trkpt>
      <trkpt lat="44.54495" lon="4.12647">
        <ele>593.27</ele>
        <time>2017-06-04T10:08:35Z</time>
      </trkpt>
      <trkpt lat="44.54498" lon="4.12648">
        <ele>593.75</ele>
        <time>2017-06-04T10:08:39Z</time>
      </trkpt>
      <trkpt lat="44.545" lon="4.12647">
        <ele>593.75</ele>
        <time>2017-06-04T10:08:41Z</time>
      </trkpt>
      <trkpt lat="44.54507" lon="4.12648">
        <ele>594.23</ele>
        <time>2017-06-04T10:08:48Z</time>
      </trkpt>
      <trkpt lat="44.5451" lon="4.12648">
        <ele>594.71</ele>
        <time>2017-06-04T10:08:50Z</time>
      </trkpt>
      <trkpt lat="44.54516" lon="4.12645">
        <ele>595.67</ele>
        <time>2017-06-04T10:09:03Z</time>
      </trkpt>
      <trkpt lat="44.54516" lon="4.12644">
        <ele>596.15</ele>
        <time>2017-06-04T10:09:06Z</time>
      </trkpt>
      <trkpt lat="44.54512" lon="4.12642">
        <ele>595.67</ele>
        <time>2017-06-04T10:09:11Z</time>
      </trkpt>
      <trkpt lat="44.54507" lon="4.12638">
        <ele>596.15</ele>
        <time>2017-06-04T10:09:19Z</time>
      </trkpt>
      <trkpt lat="44.54489" lon="4.12643">
        <ele>595.67</ele>
        <time>2017-06-04T10:09:34Z</time>
      </trkpt>
      <trkpt lat="44.54484" lon="4.12638">
        <ele>595.67</ele>
        <time>2017-06-04T10:09:42Z</time>
      </trkpt>
      <trkpt lat="44.54481" lon="4.12635">
        <ele>596.15</ele>
        <time>2017-06-04T10:09:46Z</time>
      </trkpt>
      <trkpt lat="44.54483" lon="4.12631">
        <ele>597.12</ele>
        <time>2017-06-04T10:09:52Z</time>
      </trkpt>
      <trkpt lat="44.54485" lon="4.1263">
        <ele>597.6</ele>
        <time>2017-06-04T10:09:56Z</time>
      </trkpt>
      <trkpt lat="44.54487" lon="4.12629">
        <ele>598.08</ele>
        <time>2017-06-04T10:09:59Z</time>
      </trkpt>
      <trkpt lat="44.54491" lon="4.12626">
        <ele>599.04</ele>
        <time>2017-06-04T10:10:06Z</time>
      </trkpt>
      <trkpt lat="44.54495" lon="4.12624">
        <ele>600</ele>
        <time>2017-06-04T10:10:11Z</time>
      </trkpt>
      <trkpt lat="44.545" lon="4.12623">
        <ele>601.92</ele>
        <time>2017-06-04T10:10:21Z</time>
      </trkpt>
      <trkpt lat="44.54506" lon="4.12622">
        <ele>602.88</ele>
        <time>2017-06-04T10:10:29Z</time>
      </trkpt>
      <trkpt lat="44.54512" lon="4.12616">
        <ele>604.81</ele>
        <time>2017-06-04T10:10:40Z</time>
      </trkpt>
      <trkpt lat="44.54515" lon="4.12614">
        <ele>606.25</ele>
        <time>2017-06-04T10:10:54Z</time>
      </trkpt>
      <trkpt lat="44.5452" lon="4.12609">
        <ele>607.21</ele>
        <time>2017-06-04T10:11:06Z</time>
      </trkpt>
      <trkpt lat="44.5452" lon="4.12609">
        <ele>607.69</ele>
        <time>2017-06-04T10:11:18Z</time>
      </trkpt>
      <trkpt lat="44.54521" lon="4.1261">
        <ele>607.21</ele>
        <time>2017-06-04T10:11:33Z</time>
      </trkpt>
      <trkpt lat="44.54522" lon="4.1261">
        <ele>607.69</ele>
        <time>2017-06-04T10:11:56Z</time>
      </trkpt>
      <trkpt lat="44.54523" lon="4.12609">
        <ele>607.21</ele>
        <time>2017-06-04T10:12:25Z</time>
      </trkpt>
      <trkpt lat="44.54524" lon="4.12608">
        <ele>607.21</ele>
        <time>2017-06-04T10:12:48Z</time>
      </trkpt>
      <trkpt lat="44.54522" lon="4.1261">
        <ele>607.21</ele>
        <time>2017-06-04T10:13:00Z</time>
      </trkpt>
      <trkpt lat="44.54519" lon="4.12608">
        <ele>607.21</ele>
        <time>2017-06-04T10:13:03Z</time>
      </trkpt>
      <trkpt lat="44.54515" lon="4.12608">
        <ele>606.73</ele>
        <time>2017-06-04T10:13:09Z</time>
      </trkpt>
      <trkpt lat="44.54509" lon="4.1261">
        <ele>607.69</ele>
        <time>2017-06-04T10:13:19Z</time>
      </trkpt>
      <trkpt lat="44.54506" lon="4.12606">
        <ele>608.65</ele>
        <time>2017-06-04T10:13:26Z</time>
      </trkpt>
      <trkpt lat="44.54502" lon="4.12601">
        <ele>610.09</ele>
        <time>2017-06-04T10:13:36Z</time>
      </trkpt>
      <trkpt lat="44.54497" lon="4.12598">
        <ele>610.57</ele>
        <time>2017-06-04T10:13:49Z</time>
      </trkpt>
      <trkpt lat="44.5449" lon="4.12594">
        <ele>612.02</ele>
        <time>2017-06-04T10:13:59Z</time>
      </trkpt>
      <trkpt lat="44.54489" lon="4.12594">
        <ele>612.5</ele>
        <time>2017-06-04T10:14:01Z</time>
      </trkpt>
      <trkpt lat="44.54485" lon="4.12592">
        <ele>612.98</ele>
        <time>2017-06-04T10:14:08Z</time>
      </trkpt>
      <trkpt lat="44.5448" lon="4.1259">
        <ele>614.42</ele>
        <time>2017-06-04T10:14:18Z</time>
      </trkpt>
      <trkpt lat="44.54479" lon="4.12589">
        <ele>614.9</ele>
        <time>2017-06-04T10:14:23Z</time>
      </trkpt>
      <trkpt lat="44.54474" lon="4.12583">
        <ele>615.86</ele>
        <time>2017-06-04T10:14:29Z</time>
      </trkpt>
      <trkpt lat="44.54469" lon="4.12579">
        <ele>616.82</ele>
        <time>2017-06-04T10:14:40Z</time>
      </trkpt>
      <trkpt lat="44.54463" lon="4.12574">
        <ele>619.23</ele>
        <time>2017-06-04T10:14:53Z</time>
      </trkpt>
      <trkpt lat="44.54457" lon="4.12565">
        <ele>620.67</ele>
        <time>2017-06-04T10:15:05Z</time>
      </trkpt>
      <trkpt lat="44.5445" lon="4.12561">
        <ele>622.59</ele>
        <time>2017-06-04T10:15:16Z</time>
      </trkpt>
      <trkpt lat="44.54446" lon="4.12551">
        <ele>623.55</ele>
        <time>2017-06-04T10:15:27Z</time>
      </trkpt>
      <trkpt lat="44.54448" lon="4.12548">
        <ele>624.99</ele>
        <time>2017-06-04T10:15:35Z</time>
      </trkpt>
      <trkpt lat="44.54457" lon="4.12545">
        <ele>625.96</ele>
        <time>2017-06-04T10:15:48Z</time>
      </trkpt>
      <trkpt lat="44.54464" lon="4.12541">
        <ele>627.4</ele>
        <time>2017-06-04T10:16:01Z</time>
      </trkpt>
      <trkpt lat="44.54473" lon="4.12538">
        <ele>628.84</ele>
        <time>2017-06-04T10:16:13Z</time>
      </trkpt>
      <trkpt lat="44.54485" lon="4.1254">
        <ele>629.8</ele>
        <time>2017-06-04T10:16:28Z</time>
      </trkpt>
      <trkpt lat="44.54496" lon="4.1254">
        <ele>630.28</ele>
        <time>2017-06-04T10:16:38Z</time>
      </trkpt>
      <trkpt lat="44.54505" lon="4.12537">
        <ele>631.72</ele>
        <time>2017-06-04T10:16:52Z</time>
      </trkpt>
      <trkpt lat="44.54515" lon="4.12535">
        <ele>632.68</ele>
        <time>2017-06-04T10:17:05Z</time>
      </trkpt>
      <trkpt lat="44.54516" lon="4.12535">
        <ele>633.17</ele>
        <time>2017-06-04T10:17:19Z</time>
      </trkpt>
      <trkpt lat="44.54525" lon="4.12528">
        <ele>634.13</ele>
        <time>2017-06-04T10:17:31Z</time>
      </trkpt>
      <trkpt lat="44.54533" lon="4.12522">
        <ele>635.57</ele>
        <time>2017-06-04T10:17:44Z</time>
      </trkpt>
      <trkpt lat="44.54544" lon="4.12518">
        <ele>636.53</ele>
        <time>2017-06-04T10:17:57Z</time>
      </trkpt>
      <trkpt lat="44.54557" lon="4.12519">
        <ele>637.01</ele>
        <time>2017-06-04T10:18:10Z</time>
      </trkpt>
      <trkpt lat="44.54571" lon="4.1252">
        <ele>637.97</ele>
        <time>2017-06-04T10:18:24Z</time>
      </trkpt>
      <trkpt lat="44.54581" lon="4.12519">
        <ele>638.45</ele>
        <time>2017-06-04T10:18:36Z</time>
      </trkpt>
      <trkpt lat="44.54589" lon="4.12518">
        <ele>639.41</ele>
        <time>2017-06-04T10:18:49Z</time>
      </trkpt>
      <trkpt lat="44.54595" lon="4.12517">
        <ele>640.86</ele>
        <time>2017-06-04T10:19:00Z</time>
      </trkpt>
      <trkpt lat="44.54604" lon="4.12517">
        <ele>642.78</ele>
        <time>2017-06-04T10:19:13Z</time>
      </trkpt>
      <trkpt lat="44.54608" lon="4.12516">
        <ele>642.78</ele>
        <time>2017-06-04T10:19:17Z</time>
      </trkpt>
      <trkpt lat="44.54621" lon="4.12517">
        <ele>644.22</ele>
        <time>2017-06-04T10:19:29Z</time>
      </trkpt>
      <trkpt lat="44.54627" lon="4.12522">
        <ele>645.18</ele>
        <time>2017-06-04T10:19:41Z</time>
      </trkpt>
      <trkpt lat="44.54638" lon="4.12533">
        <ele>645.66</ele>
        <time>2017-06-04T10:19:53Z</time>
      </trkpt>
      <trkpt lat="44.54644" lon="4.12541">
        <ele>647.1</ele>
        <time>2017-06-04T10:20:05Z</time>
      </trkpt>
      <trkpt lat="44.54651" lon="4.12547">
        <ele>648.55</ele>
        <time>2017-06-04T10:20:16Z</time>
      </trkpt>
      <trkpt lat="44.54651" lon="4.12547">
        <ele>648.55</ele>
        <time>2017-06-04T10:20:17Z</time>
      </trkpt>
      <trkpt lat="44.54656" lon="4.12552">
        <ele>649.51</ele>
        <time>2017-06-04T10:20:27Z</time>
      </trkpt>
      <trkpt lat="44.54664" lon="4.12557">
        <ele>650.47</ele>
        <time>2017-06-04T10:20:38Z</time>
      </trkpt>
      <trkpt lat="44.54666" lon="4.12562">
        <ele>650.47</ele>
        <time>2017-06-04T10:20:55Z</time>
      </trkpt>
      <trkpt lat="44.54669" lon="4.12563">
        <ele>650.47</ele>
        <time>2017-06-04T10:21:21Z</time>
      </trkpt>
      <trkpt lat="44.5467" lon="4.12564">
        <ele>650.95</ele>
        <time>2017-06-04T10:21:42Z</time>
      </trkpt>
      <trkpt lat="44.54676" lon="4.12569">
        <ele>651.43</ele>
        <time>2017-06-04T10:21:56Z</time>
      </trkpt>
      <trkpt lat="44.54687" lon="4.12578">
        <ele>652.39</ele>
        <time>2017-06-04T10:22:10Z</time>
      </trkpt>
      <trkpt lat="44.54688" lon="4.12581">
        <ele>653.35</ele>
        <time>2017-06-04T10:22:26Z</time>
      </trkpt>
      <trkpt lat="44.54692" lon="4.12587">
        <ele>654.8</ele>
        <time>2017-06-04T10:22:42Z</time>
      </trkpt>
      <trkpt lat="44.54696" lon="4.1259">
        <ele>656.24</ele>
        <time>2017-06-04T10:22:56Z</time>
      </trkpt>
      <trkpt lat="44.547" lon="4.12593">
        <ele>657.68</ele>
        <time>2017-06-04T10:23:19Z</time>
      </trkpt>
      <trkpt lat="44.54701" lon="4.12594">
        <ele>657.68</ele>
        <time>2017-06-04T10:23:20Z</time>
      </trkpt>
      <trkpt lat="44.54711" lon="4.12601">
        <ele>659.12</ele>
        <time>2017-06-04T10:23:31Z</time>
      </trkpt>
      <trkpt lat="44.54714" lon="4.12608">
        <ele>660.56</ele>
        <time>2017-06-04T10:23:42Z</time>
      </trkpt>
      <trkpt lat="44.54721" lon="4.12611">
        <ele>662.01</ele>
        <time>2017-06-04T10:23:56Z</time>
      </trkpt>
      <trkpt lat="44.54723" lon="4.12613">
        <ele>662.49</ele>
        <time>2017-06-04T10:24:18Z</time>
      </trkpt>
      <trkpt lat="44.54722" lon="4.12611">
        <ele>664.41</ele>
        <time>2017-06-04T10:24:31Z</time>
      </trkpt>
      <trkpt lat="44.54722" lon="4.12603">
        <ele>665.37</ele>
        <time>2017-06-04T10:24:41Z</time>
      </trkpt>
      <trkpt lat="44.54722" lon="4.12598">
        <ele>667.29</ele>
        <time>2017-06-04T10:24:55Z</time>
      </trkpt>
      <trkpt lat="44.54723" lon="4.12596">
        <ele>667.77</ele>
        <time>2017-06-04T10:25:16Z</time>
      </trkpt>
      <trkpt lat="44.54725" lon="4.12593">
        <ele>668.73</ele>
        <time>2017-06-04T10:25:26Z</time>
      </trkpt>
      <trkpt lat="44.54728" lon="4.12595">
        <ele>669.22</ele>
        <time>2017-06-04T10:25:31Z</time>
      </trkpt>
      <trkpt lat="44.54736" lon="4.12596">
        <ele>671.14</ele>
        <time>2017-06-04T10:25:44Z</time>
      </trkpt>
      <trkpt lat="44.54738" lon="4.12597">
        <ele>673.06</ele>
        <time>2017-06-04T10:25:59Z</time>
      </trkpt>
      <trkpt lat="44.54744" lon="4.126">
        <ele>675.46</ele>
        <time>2017-06-04T10:26:18Z</time>
      </trkpt>
      <trkpt lat="44.54748" lon="4.12601">
        <ele>674.98</ele>
        <time>2017-06-04T10:26:46Z</time>
      </trkpt>
      <trkpt lat="44.54753" lon="4.12604">
        <ele>676.42</ele>
        <time>2017-06-04T10:27:03Z</time>
      </trkpt>
      <trkpt lat="44.54757" lon="4.12603">
        <ele>678.83</ele>
        <time>2017-06-04T10:27:20Z</time>
      </trkpt>
      <trkpt lat="44.5476" lon="4.12605">
        <ele>680.27</ele>
        <time>2017-06-04T10:27:35Z</time>
      </trkpt>
      <trkpt lat="44.54765" lon="4.1261">
        <ele>680.27</ele>
        <time>2017-06-04T10:28:00Z</time>
      </trkpt>
      <trkpt lat="44.54774" lon="4.12612">
        <ele>681.71</ele>
        <time>2017-06-04T10:28:16Z</time>
      </trkpt>
      <trkpt lat="44.54785" lon="4.12617">
        <ele>683.15</ele>
        <time>2017-06-04T10:28:33Z</time>
      </trkpt>
      <trkpt lat="44.54788" lon="4.12617">
        <ele>685.08</ele>
        <time>2017-06-04T10:28:47Z</time>
      </trkpt>
      <trkpt lat="44.54792" lon="4.12616">
        <ele>687</ele>
        <time>2017-06-04T10:29:02Z</time>
      </trkpt>
      <trkpt lat="44.548" lon="4.12612">
        <ele>688.44</ele>
        <time>2017-06-04T10:29:15Z</time>
      </trkpt>
      <trkpt lat="44.54805" lon="4.12606">
        <ele>689.88</ele>
        <time>2017-06-04T10:29:26Z</time>
      </trkpt>
      <trkpt lat="44.54808" lon="4.12604">
        <ele>690.84</ele>
        <time>2017-06-04T10:29:49Z</time>
      </trkpt>
      <trkpt lat="44.54812" lon="4.12601">
        <ele>691.33</ele>
        <time>2017-06-04T10:30:00Z</time>
      </trkpt>
      <trkpt lat="44.54821" lon="4.12598">
        <ele>693.25</ele>
        <time>2017-06-04T10:30:12Z</time>
      </trkpt>
      <trkpt lat="44.54827" lon="4.12596">
        <ele>694.21</ele>
        <time>2017-06-04T10:30:33Z</time>
      </trkpt>
      <trkpt lat="44.54834" lon="4.12596">
        <ele>695.65</ele>
        <time>2017-06-04T10:30:53Z</time>
      </trkpt>
      <trkpt lat="44.5485" lon="4.12587">
        <ele>697.09</ele>
        <time>2017-06-04T10:31:05Z</time>
      </trkpt>
      <trkpt lat="44.54862" lon="4.12578">
        <ele>699.5</ele>
        <time>2017-06-04T10:31:19Z</time>
      </trkpt>
      <trkpt lat="44.54863" lon="4.12579">
        <ele>699.5</ele>
        <time>2017-06-04T10:31:39Z</time>
      </trkpt>
      <trkpt lat="44.54865" lon="4.12577">
        <ele>701.42</ele>
        <time>2017-06-04T10:31:54Z</time>
      </trkpt>
      <trkpt lat="44.5487" lon="4.12568">
        <ele>703.34</ele>
        <time>2017-06-04T10:32:08Z</time>
      </trkpt>
      <trkpt lat="44.54876" lon="4.12556">
        <ele>705.75</ele>
        <time>2017-06-04T10:32:25Z</time>
      </trkpt>
      <trkpt lat="44.54882" lon="4.12546">
        <ele>707.19</ele>
        <time>2017-06-04T10:32:38Z</time>
      </trkpt>
      <trkpt lat="44.54891" lon="4.12541">
        <ele>708.63</ele>
        <time>2017-06-04T10:32:50Z</time>
      </trkpt>
      <trkpt lat="44.54894" lon="4.1253">
        <ele>709.59</ele>
        <time>2017-06-04T10:33:03Z</time>
      </trkpt>
      <trkpt lat="44.54895" lon="4.12517">
        <ele>711.51</ele>
        <time>2017-06-04T10:33:15Z</time>
      </trkpt>
      <trkpt lat="44.54898" lon="4.12506">
        <ele>713.92</ele>
        <time>2017-06-04T10:33:30Z</time>
      </trkpt>
      <trkpt lat="44.54901" lon="4.12503">
        <ele>713.92</ele>
        <time>2017-06-04T10:33:48Z</time>
      </trkpt>
      <trkpt lat="44.54906" lon="4.12495">
        <ele>715.84</ele>
        <time>2017-06-04T10:34:08Z</time>
      </trkpt>
      <trkpt lat="44.5491" lon="4.12486">
        <ele>717.76</ele>
        <time>2017-06-04T10:34:22Z</time>
      </trkpt>
      <trkpt lat="44.54911" lon="4.12483">
        <ele>717.76</ele>
        <time>2017-06-04T10:34:44Z</time>
      </trkpt>
      <trkpt lat="44.54917" lon="4.12477">
        <ele>719.2</ele>
        <time>2017-06-04T10:34:57Z</time>
      </trkpt>
      <trkpt lat="44.54923" lon="4.12474">
        <ele>720.16</ele>
        <time>2017-06-04T10:35:06Z</time>
      </trkpt>
      <trkpt lat="44.54927" lon="4.12473">
        <ele>722.09</ele>
        <time>2017-06-04T10:35:21Z</time>
      </trkpt>
      <trkpt lat="44.5493" lon="4.12469">
        <ele>723.53</ele>
        <time>2017-06-04T10:35:34Z</time>
      </trkpt>
      <trkpt lat="44.54928" lon="4.12471">
        <ele>723.53</ele>
        <time>2017-06-04T10:35:42Z</time>
      </trkpt>
      <trkpt lat="44.54936" lon="4.12461">
        <ele>724.97</ele>
        <time>2017-06-04T10:35:56Z</time>
      </trkpt>
      <trkpt lat="44.54937" lon="4.12455">
        <ele>726.89</ele>
        <time>2017-06-04T10:36:09Z</time>
      </trkpt>
      <trkpt lat="44.54939" lon="4.12452">
        <ele>728.34</ele>
        <time>2017-06-04T10:36:26Z</time>
      </trkpt>
      <trkpt lat="44.54945" lon="4.12445">
        <ele>730.26</ele>
        <time>2017-06-04T10:36:41Z</time>
      </trkpt>
      <trkpt lat="44.54952" lon="4.12443">
        <ele>732.18</ele>
        <time>2017-06-04T10:36:56Z</time>
      </trkpt>
      <trkpt lat="44.54957" lon="4.12432">
        <ele>733.62</ele>
        <time>2017-06-04T10:37:11Z</time>
      </trkpt>
      <trkpt lat="44.54961" lon="4.12423">
        <ele>733.62</ele>
        <time>2017-06-04T10:37:24Z</time>
      </trkpt>
      <trkpt lat="44.54971" lon="4.12422">
        <ele>733.62</ele>
        <time>2017-06-04T10:37:30Z</time>
      </trkpt>
      <trkpt lat="44.54979" lon="4.12424">
        <ele>734.1</ele>
        <time>2017-06-04T10:37:39Z</time>
      </trkpt>
      <trkpt lat="44.54986" lon="4.12421">
        <ele>735.07</ele>
        <time>2017-06-04T10:37:54Z</time>
      </trkpt>
      <trkpt lat="44.54994" lon="4.12414">
        <ele>735.55</ele>
        <time>2017-06-04T10:38:04Z</time>
      </trkpt>
      <trkpt lat="44.55002" lon="4.12414">
        <ele>736.51</ele>
        <time>2017-06-04T10:38:22Z</time>
      </trkpt>
      <trkpt lat="44.55016" lon="4.12413">
        <ele>737.47</ele>
        <time>2017-06-04T10:38:35Z</time>
      </trkpt>
      <trkpt lat="44.55028" lon="4.12407">
        <ele>738.43</ele>
        <time>2017-06-04T10:38:49Z</time>
      </trkpt>
      <trkpt lat="44.55038" lon="4.12404">
        <ele>738.91</ele>
        <time>2017-06-04T10:39:05Z</time>
      </trkpt>
      <trkpt lat="44.55049" lon="4.12403">
        <ele>739.87</ele>
        <time>2017-06-04T10:39:17Z</time>
      </trkpt>
      <trkpt lat="44.5505" lon="4.12402">
        <ele>739.87</ele>
        <time>2017-06-04T10:39:20Z</time>
      </trkpt>
      <trkpt lat="44.55056" lon="4.12402">
        <ele>740.35</ele>
        <time>2017-06-04T10:39:38Z</time>
      </trkpt>
      <trkpt lat="44.55055" lon="4.12403">
        <ele>740.35</ele>
        <time>2017-06-04T10:39:58Z</time>
      </trkpt>
      <trkpt lat="44.55057" lon="4.12399">
        <ele>740.83</ele>
        <time>2017-06-04T10:40:17Z</time>
      </trkpt>
      <trkpt lat="44.5507" lon="4.12391">
        <ele>742.28</ele>
        <time>2017-06-04T10:40:30Z</time>
      </trkpt>
      <trkpt lat="44.5508" lon="4.12388">
        <ele>742.76</ele>
        <time>2017-06-04T10:40:43Z</time>
      </trkpt>
      <trkpt lat="44.55088" lon="4.12384">
        <ele>744.2</ele>
        <time>2017-06-04T10:40:54Z</time>
      </trkpt>
      <trkpt lat="44.55102" lon="4.12387">
        <ele>745.16</ele>
        <time>2017-06-04T10:41:07Z</time>
      </trkpt>
      <trkpt lat="44.55112" lon="4.12387">
        <ele>746.12</ele>
        <time>2017-06-04T10:41:17Z</time>
      </trkpt>
      <trkpt lat="44.55119" lon="4.12383">
        <ele>746.12</ele>
        <time>2017-06-04T10:41:24Z</time>
      </trkpt>
      <trkpt lat="44.55129" lon="4.12382">
        <ele>747.08</ele>
        <time>2017-06-04T10:41:34Z</time>
      </trkpt>
      <trkpt lat="44.55141" lon="4.1238">
        <ele>748.04</ele>
        <time>2017-06-04T10:41:44Z</time>
      </trkpt>
      <trkpt lat="44.55148" lon="4.12381">
        <ele>749</ele>
        <time>2017-06-04T10:41:54Z</time>
      </trkpt>
      <trkpt lat="44.55152" lon="4.1238">
        <ele>749.49</ele>
        <time>2017-06-04T10:42:02Z</time>
      </trkpt>
      <trkpt lat="44.55156" lon="4.12379">
        <ele>749.49</ele>
        <time>2017-06-04T10:42:05Z</time>
      </trkpt>
      <trkpt lat="44.55158" lon="4.12379">
        <ele>749.97</ele>
        <time>2017-06-04T10:42:07Z</time>
      </trkpt>
      <trkpt lat="44.5516" lon="4.12378">
        <ele>749.97</ele>
        <time>2017-06-04T10:42:09Z</time>
      </trkpt>
      <trkpt lat="44.55166" lon="4.12377">
        <ele>750.93</ele>
        <time>2017-06-04T10:42:16Z</time>
      </trkpt>
      <trkpt lat="44.55174" lon="4.12377">
        <ele>751.41</ele>
        <time>2017-06-04T10:42:24Z</time>
      </trkpt>
      <trkpt lat="44.55179" lon="4.12375">
        <ele>751.41</ele>
        <time>2017-06-04T10:42:29Z</time>
      </trkpt>
      <trkpt lat="44.55187" lon="4.12373">
        <ele>751.41</ele>
        <time>2017-06-04T10:42:35Z</time>
      </trkpt>
      <trkpt lat="44.55196" lon="4.12366">
        <ele>752.85</ele>
        <time>2017-06-04T10:42:47Z</time>
      </trkpt>
      <trkpt lat="44.55197" lon="4.12364">
        <ele>752.85</ele>
        <time>2017-06-04T10:42:49Z</time>
      </trkpt>
      <trkpt lat="44.55202" lon="4.12363">
        <ele>752.85</ele>
        <time>2017-06-04T10:42:54Z</time>
      </trkpt>
      <trkpt lat="44.55206" lon="4.12361">
        <ele>753.33</ele>
        <time>2017-06-04T10:43:00Z</time>
      </trkpt>
      <trkpt lat="44.5521" lon="4.12359">
        <ele>753.33</ele>
        <time>2017-06-04T10:43:04Z</time>
      </trkpt>
      <trkpt lat="44.55221" lon="4.12359">
        <ele>754.29</ele>
        <time>2017-06-04T10:43:17Z</time>
      </trkpt>
      <trkpt lat="44.55222" lon="4.12358">
        <ele>754.29</ele>
        <time>2017-06-04T10:43:18Z</time>
      </trkpt>
      <trkpt lat="44.55228" lon="4.12357">
        <ele>753.81</ele>
        <time>2017-06-04T10:43:25Z</time>
      </trkpt>
      <trkpt lat="44.55237" lon="4.12359">
        <ele>754.29</ele>
        <time>2017-06-04T10:43:37Z</time>
      </trkpt>
      <trkpt lat="44.55248" lon="4.12359">
        <ele>754.29</ele>
        <time>2017-06-04T10:43:48Z</time>
      </trkpt>
      <trkpt lat="44.55251" lon="4.1236">
        <ele>754.29</ele>
        <time>2017-06-04T10:43:50Z</time>
      </trkpt>
      <trkpt lat="44.55262" lon="4.12362">
        <ele>753.81</ele>
        <time>2017-06-04T10:44:00Z</time>
      </trkpt>
      <trkpt lat="44.55272" lon="4.12362">
        <ele>753.33</ele>
        <time>2017-06-04T10:44:13Z</time>
      </trkpt>
      <trkpt lat="44.55281" lon="4.12362">
        <ele>753.33</ele>
        <time>2017-06-04T10:44:25Z</time>
      </trkpt>
      <trkpt lat="44.55283" lon="4.12363">
        <ele>752.85</ele>
        <time>2017-06-04T10:44:27Z</time>
      </trkpt>
      <trkpt lat="44.55288" lon="4.12364">
        <ele>752.85</ele>
        <time>2017-06-04T10:44:32Z</time>
      </trkpt>
      <trkpt lat="44.55293" lon="4.12365">
        <ele>752.37</ele>
        <time>2017-06-04T10:44:37Z</time>
      </trkpt>
      <trkpt lat="44.55299" lon="4.12366">
        <ele>751.89</ele>
        <time>2017-06-04T10:44:45Z</time>
      </trkpt>
      <trkpt lat="44.5531" lon="4.12377">
        <ele>750.45</ele>
        <time>2017-06-04T10:44:58Z</time>
      </trkpt>
      <trkpt lat="44.5531" lon="4.12378">
        <ele>750.45</ele>
        <time>2017-06-04T10:44:59Z</time>
      </trkpt>
      <trkpt lat="44.5532" lon="4.12386">
        <ele>749.97</ele>
        <time>2017-06-04T10:45:11Z</time>
      </trkpt>
      <trkpt lat="44.55321" lon="4.12389">
        <ele>749</ele>
        <time>2017-06-04T10:45:14Z</time>
      </trkpt>
      <trkpt lat="44.55324" lon="4.12392">
        <ele>748.52</ele>
        <time>2017-06-04T10:45:16Z</time>
      </trkpt>
      <trkpt lat="44.55335" lon="4.12405">
        <ele>747.56</ele>
        <time>2017-06-04T10:45:29Z</time>
      </trkpt>
      <trkpt lat="44.55348" lon="4.12418">
        <ele>745.64</ele>
        <time>2017-06-04T10:45:43Z</time>
      </trkpt>
      <trkpt lat="44.55355" lon="4.12427">
        <ele>744.2</ele>
        <time>2017-06-04T10:45:58Z</time>
      </trkpt>
      <trkpt lat="44.55359" lon="4.12434">
        <ele>743.72</ele>
        <time>2017-06-04T10:46:11Z</time>
      </trkpt>
      <trkpt lat="44.55363" lon="4.1244">
        <ele>742.76</ele>
        <time>2017-06-04T10:46:25Z</time>
      </trkpt>
      <trkpt lat="44.55372" lon="4.12446">
        <ele>742.28</ele>
        <time>2017-06-04T10:46:38Z</time>
      </trkpt>
      <trkpt lat="44.55382" lon="4.1245">
        <ele>741.79</ele>
        <time>2017-06-04T10:46:47Z</time>
      </trkpt>
      <trkpt lat="44.55394" lon="4.12452">
        <ele>741.31</ele>
        <time>2017-06-04T10:47:01Z</time>
      </trkpt>
      <trkpt lat="44.55399" lon="4.12451">
        <ele>740.83</ele>
        <time>2017-06-04T10:47:10Z</time>
      </trkpt>
      <trkpt lat="44.55402" lon="4.12452">
        <ele>740.35</ele>
        <time>2017-06-04T10:47:12Z</time>
      </trkpt>
      <trkpt lat="44.55406" lon="4.12452">
        <ele>740.35</ele>
        <time>2017-06-04T10:47:15Z</time>
      </trkpt>
      <trkpt lat="44.55414" lon="4.12448">
        <ele>739.39</ele>
        <time>2017-06-04T10:47:27Z</time>
      </trkpt>
      <trkpt lat="44.55419" lon="4.12447">
        <ele>739.39</ele>
        <time>2017-06-04T10:47:39Z</time>
      </trkpt>
      <trkpt lat="44.5542" lon="4.12447">
        <ele>738.91</ele>
        <time>2017-06-04T10:48:08Z</time>
      </trkpt>
      <trkpt lat="44.55426" lon="4.12446">
        <ele>738.43</ele>
        <time>2017-06-04T10:48:18Z</time>
      </trkpt>
      <trkpt lat="44.55431" lon="4.12444">
        <ele>738.43</ele>
        <time>2017-06-04T10:48:30Z</time>
      </trkpt>
      <trkpt lat="44.55432" lon="4.12441">
        <ele>737.95</ele>
        <time>2017-06-04T10:48:48Z</time>
      </trkpt>
      <trkpt lat="44.55438" lon="4.12436">
        <ele>737.47</ele>
        <time>2017-06-04T10:48:57Z</time>
      </trkpt>
      <trkpt lat="44.55445" lon="4.12432">
        <ele>737.47</ele>
        <time>2017-06-04T10:49:03Z</time>
      </trkpt>
      <trkpt lat="44.55448" lon="4.1243">
        <ele>736.99</ele>
        <time>2017-06-04T10:49:06Z</time>
      </trkpt>
      <trkpt lat="44.5546" lon="4.12424">
        <ele>736.51</ele>
        <time>2017-06-04T10:49:19Z</time>
      </trkpt>
      <trkpt lat="44.55464" lon="4.12422">
        <ele>736.03</ele>
        <time>2017-06-04T10:49:24Z</time>
      </trkpt>
      <trkpt lat="44.55469" lon="4.12422">
        <ele>735.55</ele>
        <time>2017-06-04T10:49:28Z</time>
      </trkpt>
      <trkpt lat="44.55473" lon="4.12417">
        <ele>735.55</ele>
        <time>2017-06-04T10:49:33Z</time>
      </trkpt>
      <trkpt lat="44.55476" lon="4.1242">
        <ele>735.07</ele>
        <time>2017-06-04T10:49:46Z</time>
      </trkpt>
      <trkpt lat="44.55476" lon="4.1242">
        <ele>735.07</ele>
        <time>2017-06-04T10:50:00Z</time>
      </trkpt>
      <trkpt lat="44.55476" lon="4.1242">
        <ele>735.07</ele>
        <time>2017-06-04T10:50:02Z</time>
      </trkpt>
      <trkpt lat="44.55478" lon="4.12419">
        <ele>735.07</ele>
        <time>2017-06-04T10:50:05Z</time>
      </trkpt>
      <trkpt lat="44.55485" lon="4.12414">
        <ele>734.58</ele>
        <time>2017-06-04T10:50:12Z</time>
      </trkpt>
      <trkpt lat="44.55494" lon="4.12411">
        <ele>734.1</ele>
        <time>2017-06-04T10:50:22Z</time>
      </trkpt>
      <trkpt lat="44.55495" lon="4.12409">
        <ele>733.62</ele>
        <time>2017-06-04T10:50:24Z</time>
      </trkpt>
      <trkpt lat="44.55497" lon="4.12409">
        <ele>733.62</ele>
        <time>2017-06-04T10:50:26Z</time>
      </trkpt>
      <trkpt lat="44.55504" lon="4.12406">
        <ele>732.66</ele>
        <time>2017-06-04T10:50:35Z</time>
      </trkpt>
      <trkpt lat="44.55511" lon="4.12402">
        <ele>732.18</ele>
        <time>2017-06-04T10:50:45Z</time>
      </trkpt>
      <trkpt lat="44.55521" lon="4.12401">
        <ele>730.74</ele>
        <time>2017-06-04T10:50:56Z</time>
      </trkpt>
      <trkpt lat="44.55528" lon="4.124">
        <ele>729.78</ele>
        <time>2017-06-04T10:51:09Z</time>
      </trkpt>
      <trkpt lat="44.55533" lon="4.12398">
        <ele>729.3</ele>
        <time>2017-06-04T10:51:15Z</time>
      </trkpt>
      <trkpt lat="44.55541" lon="4.12394">
        <ele>727.86</ele>
        <time>2017-06-04T10:51:30Z</time>
      </trkpt>
      <trkpt lat="44.55542" lon="4.12393">
        <ele>727.86</ele>
        <time>2017-06-04T10:51:54Z</time>
      </trkpt>
      <trkpt lat="44.55543" lon="4.12392">
        <ele>727.86</ele>
        <time>2017-06-04T10:51:55Z</time>
      </trkpt>
      <trkpt lat="44.55549" lon="4.1239">
        <ele>727.37</ele>
        <time>2017-06-04T10:52:09Z</time>
      </trkpt>
      <trkpt lat="44.55553" lon="4.12388">
        <ele>726.41</ele>
        <time>2017-06-04T10:52:20Z</time>
      </trkpt>
      <trkpt lat="44.55557" lon="4.12387">
        <ele>726.41</ele>
        <time>2017-06-04T10:52:25Z</time>
      </trkpt>
      <trkpt lat="44.55564" lon="4.12384">
        <ele>725.93</ele>
        <time>2017-06-04T10:52:34Z</time>
      </trkpt>
      <trkpt lat="44.55567" lon="4.12382">
        <ele>725.45</ele>
        <time>2017-06-04T10:52:38Z</time>
      </trkpt>
      <trkpt lat="44.5557" lon="4.12381">
        <ele>725.45</ele>
        <time>2017-06-04T10:52:41Z</time>
      </trkpt>
      <trkpt lat="44.55572" lon="4.12382">
        <ele>725.45</ele>
        <time>2017-06-04T10:52:43Z</time>
      </trkpt>
      <trkpt lat="44.55574" lon="4.12381">
        <ele>725.45</ele>
        <time>2017-06-04T10:52:45Z</time>
      </trkpt>
      <trkpt lat="44.55579" lon="4.1238">
        <ele>725.45</ele>
        <time>2017-06-04T10:52:50Z</time>
      </trkpt>
      <trkpt lat="44.55582" lon="4.12381">
        <ele>725.45</ele>
        <time>2017-06-04T10:52:54Z</time>
      </trkpt>
      <trkpt lat="44.55586" lon="4.12381">
        <ele>725.45</ele>
        <time>2017-06-04T10:52:59Z</time>
      </trkpt>
      <trkpt lat="44.55592" lon="4.12381">
        <ele>725.93</ele>
        <time>2017-06-04T10:53:10Z</time>
      </trkpt>
      <trkpt lat="44.55599" lon="4.12386">
        <ele>725.93</ele>
        <time>2017-06-04T10:53:19Z</time>
      </trkpt>
      <trkpt lat="44.55604" lon="4.12389">
        <ele>725.93</ele>
        <time>2017-06-04T10:53:23Z</time>
      </trkpt>
      <trkpt lat="44.55609" lon="4.1239">
        <ele>726.41</ele>
        <time>2017-06-04T10:53:28Z</time>
      </trkpt>
      <trkpt lat="44.55616" lon="4.12394">
        <ele>725.93</ele>
        <time>2017-06-04T10:53:34Z</time>
      </trkpt>
      <trkpt lat="44.55623" lon="4.12396">
        <ele>726.41</ele>
        <time>2017-06-04T10:53:40Z</time>
      </trkpt>
      <trkpt lat="44.55633" lon="4.12398">
        <ele>726.41</ele>
        <time>2017-06-04T10:53:47Z</time>
      </trkpt>
      <trkpt lat="44.55648" lon="4.12396">
        <ele>726.89</ele>
        <time>2017-06-04T10:53:59Z</time>
      </trkpt>
      <trkpt lat="44.55662" lon="4.12394">
        <ele>726.89</ele>
        <time>2017-06-04T10:54:10Z</time>
      </trkpt>
      <trkpt lat="44.5568" lon="4.12389">
        <ele>726.41</ele>
        <time>2017-06-04T10:54:24Z</time>
      </trkpt>
      <trkpt lat="44.55682" lon="4.12389">
        <ele>726.41</ele>
        <time>2017-06-04T10:54:27Z</time>
      </trkpt>
      <trkpt lat="44.55697" lon="4.12384">
        <ele>724.97</ele>
        <time>2017-06-04T10:54:39Z</time>
      </trkpt>
      <trkpt lat="44.55703" lon="4.12381">
        <ele>724.49</ele>
        <time>2017-06-04T10:54:45Z</time>
      </trkpt>
      <trkpt lat="44.5571" lon="4.12377">
        <ele>724.01</ele>
        <time>2017-06-04T10:54:52Z</time>
      </trkpt>
      <trkpt lat="44.5572" lon="4.12371">
        <ele>723.05</ele>
        <time>2017-06-04T10:55:02Z</time>
      </trkpt>
      <trkpt lat="44.55729" lon="4.1237">
        <ele>721.61</ele>
        <time>2017-06-04T10:55:10Z</time>
      </trkpt>
      <trkpt lat="44.55741" lon="4.12375">
        <ele>720.65</ele>
        <time>2017-06-04T10:55:21Z</time>
      </trkpt>
      <trkpt lat="44.55743" lon="4.12377">
        <ele>720.16</ele>
        <time>2017-06-04T10:55:23Z</time>
      </trkpt>
      <trkpt lat="44.55745" lon="4.12378">
        <ele>720.16</ele>
        <time>2017-06-04T10:55:25Z</time>
      </trkpt>
      <trkpt lat="44.55757" lon="4.12382">
        <ele>718.24</ele>
        <time>2017-06-04T10:55:37Z</time>
      </trkpt>
      <trkpt lat="44.55761" lon="4.12383">
        <ele>718.24</ele>
        <time>2017-06-04T10:55:41Z</time>
      </trkpt>
      <trkpt lat="44.55779" lon="4.12381">
        <ele>716.8</ele>
        <time>2017-06-04T10:55:55Z</time>
      </trkpt>
      <trkpt lat="44.55782" lon="4.12381">
        <ele>716.8</ele>
        <time>2017-06-04T10:55:58Z</time>
      </trkpt>
      <trkpt lat="44.5579" lon="4.12381">
        <ele>716.32</ele>
        <time>2017-06-04T10:56:10Z</time>
      </trkpt>
      <trkpt lat="44.55792" lon="4.12386">
        <ele>716.8</ele>
        <time>2017-06-04T10:56:18Z</time>
      </trkpt>
      <trkpt lat="44.55801" lon="4.12394">
        <ele>718.72</ele>
        <time>2017-06-04T10:56:32Z</time>
      </trkpt>
      <trkpt lat="44.55798" lon="4.12395">
        <ele>718.72</ele>
        <time>2017-06-04T10:56:45Z</time>
      </trkpt>
      <trkpt lat="44.55794" lon="4.12393">
        <ele>717.76</ele>
        <time>2017-06-04T10:56:57Z</time>
      </trkpt>
      <trkpt lat="44.5579" lon="4.12388">
        <ele>716.32</ele>
        <time>2017-06-04T10:57:08Z</time>
      </trkpt>
      <trkpt lat="44.55795" lon="4.12384">
        <ele>716.32</ele>
        <time>2017-06-04T10:57:15Z</time>
      </trkpt>
      <trkpt lat="44.55802" lon="4.12382">
        <ele>715.84</ele>
        <time>2017-06-04T10:57:25Z</time>
      </trkpt>
      <trkpt lat="44.5581" lon="4.1238">
        <ele>715.84</ele>
        <time>2017-06-04T10:57:32Z</time>
      </trkpt>
      <trkpt lat="44.55824" lon="4.12376">
        <ele>715.36</ele>
        <time>2017-06-04T10:57:47Z</time>
      </trkpt>
      <trkpt lat="44.55828" lon="4.12374">
        <ele>715.36</ele>
        <time>2017-06-04T10:57:51Z</time>
      </trkpt>
      <trkpt lat="44.55831" lon="4.12372">
        <ele>715.36</ele>
        <time>2017-06-04T10:57:53Z</time>
      </trkpt>
      <trkpt lat="44.55836" lon="4.12369">
        <ele>714.88</ele>
        <time>2017-06-04T10:57:57Z</time>
      </trkpt>
      <trkpt lat="44.55839" lon="4.12368">
        <ele>715.36</ele>
        <time>2017-06-04T10:58:00Z</time>
      </trkpt>
      <trkpt lat="44.55847" lon="4.12365">
        <ele>715.36</ele>
        <time>2017-06-04T10:58:08Z</time>
      </trkpt>
      <trkpt lat="44.55861" lon="4.12364">
        <ele>715.36</ele>
        <time>2017-06-04T10:58:19Z</time>
      </trkpt>
      <trkpt lat="44.55864" lon="4.12365">
        <ele>715.36</ele>
        <time>2017-06-04T10:58:22Z</time>
      </trkpt>
      <trkpt lat="44.55879" lon="4.12363">
        <ele>715.36</ele>
        <time>2017-06-04T10:58:33Z</time>
      </trkpt>
      <trkpt lat="44.55885" lon="4.12363">
        <ele>715.36</ele>
        <time>2017-06-04T10:58:40Z</time>
      </trkpt>
      <trkpt lat="44.55897" lon="4.12365">
        <ele>714.88</ele>
        <time>2017-06-04T10:58:51Z</time>
      </trkpt>
      <trkpt lat="44.55901" lon="4.12363">
        <ele>714.88</ele>
        <time>2017-06-04T10:58:57Z</time>
      </trkpt>
      <trkpt lat="44.55903" lon="4.12364">
        <ele>714.4</ele>
        <time>2017-06-04T10:59:12Z</time>
      </trkpt>
      <trkpt lat="44.55905" lon="4.12363">
        <ele>714.4</ele>
        <time>2017-06-04T10:59:27Z</time>
      </trkpt>
      <trkpt lat="44.5592" lon="4.12362">
        <ele>713.92</ele>
        <time>2017-06-04T10:59:41Z</time>
      </trkpt>
      <trkpt lat="44.55933" lon="4.1236">
        <ele>713.44</ele>
        <time>2017-06-04T10:59:53Z</time>
      </trkpt>
      <trkpt lat="44.55935" lon="4.12359">
        <ele>713.44</ele>
        <time>2017-06-04T10:59:56Z</time>
      </trkpt>
      <trkpt lat="44.55947" lon="4.1236">
        <ele>711.99</ele>
        <time>2017-06-04T11:00:08Z</time>
      </trkpt>
      <trkpt lat="44.55951" lon="4.12361">
        <ele>711.51</ele>
        <time>2017-06-04T11:00:12Z</time>
      </trkpt>
      <trkpt lat="44.55957" lon="4.12365">
        <ele>710.55</ele>
        <time>2017-06-04T11:00:20Z</time>
      </trkpt>
      <trkpt lat="44.55963" lon="4.12369">
        <ele>710.55</ele>
        <time>2017-06-04T11:00:26Z</time>
      </trkpt>
      <trkpt lat="44.5597" lon="4.12372">
        <ele>710.07</ele>
        <time>2017-06-04T11:00:33Z</time>
      </trkpt>
      <trkpt lat="44.5598" lon="4.12378">
        <ele>709.59</ele>
        <time>2017-06-04T11:00:45Z</time>
      </trkpt>
      <trkpt lat="44.55981" lon="4.12379">
        <ele>709.59</ele>
        <time>2017-06-04T11:00:46Z</time>
      </trkpt>
      <trkpt lat="44.55989" lon="4.12381">
        <ele>709.11</ele>
        <time>2017-06-04T11:00:55Z</time>
      </trkpt>
      <trkpt lat="44.55994" lon="4.12381">
        <ele>709.11</ele>
        <time>2017-06-04T11:00:59Z</time>
      </trkpt>
      <trkpt lat="44.55996" lon="4.12381">
        <ele>709.11</ele>
        <time>2017-06-04T11:01:01Z</time>
      </trkpt>
      <trkpt lat="44.56007" lon="4.12385">
        <ele>708.63</ele>
        <time>2017-06-04T11:01:12Z</time>
      </trkpt>
      <trkpt lat="44.56013" lon="4.12385">
        <ele>708.15</ele>
        <time>2017-06-04T11:01:19Z</time>
      </trkpt>
      <trkpt lat="44.56019" lon="4.12385">
        <ele>707.19</ele>
        <time>2017-06-04T11:01:26Z</time>
      </trkpt>
      <trkpt lat="44.56032" lon="4.12387">
        <ele>705.75</ele>
        <time>2017-06-04T11:01:39Z</time>
      </trkpt>
      <trkpt lat="44.56033" lon="4.12387">
        <ele>705.75</ele>
        <time>2017-06-04T11:01:40Z</time>
      </trkpt>
      <trkpt lat="44.56039" lon="4.12387">
        <ele>705.75</ele>
        <time>2017-06-04T11:01:45Z</time>
      </trkpt>
      <trkpt lat="44.56044" lon="4.12388">
        <ele>705.26</ele>
        <time>2017-06-04T11:01:50Z</time>
      </trkpt>
      <trkpt lat="44.56046" lon="4.12387">
        <ele>705.26</ele>
        <time>2017-06-04T11:01:53Z</time>
      </trkpt>
      <trkpt lat="44.56058" lon="4.12386">
        <ele>704.78</ele>
        <time>2017-06-04T11:02:05Z</time>
      </trkpt>
      <trkpt lat="44.56063" lon="4.12388">
        <ele>704.3</ele>
        <time>2017-06-04T11:02:12Z</time>
      </trkpt>
      <trkpt lat="44.56078" lon="4.12387">
        <ele>704.78</ele>
        <time>2017-06-04T11:02:26Z</time>
      </trkpt>
      <trkpt lat="44.56088" lon="4.12384">
        <ele>705.26</ele>
        <time>2017-06-04T11:02:36Z</time>
      </trkpt>
      <trkpt lat="44.56091" lon="4.12383">
        <ele>705.26</ele>
        <time>2017-06-04T11:02:39Z</time>
      </trkpt>
      <trkpt lat="44.56096" lon="4.12381">
        <ele>705.26</ele>
        <time>2017-06-04T11:02:44Z</time>
      </trkpt>
      <trkpt lat="44.56101" lon="4.12379">
        <ele>705.75</ele>
        <time>2017-06-04T11:02:48Z</time>
      </trkpt>
      <trkpt lat="44.56106" lon="4.12376">
        <ele>706.23</ele>
        <time>2017-06-04T11:02:54Z</time>
      </trkpt>
      <trkpt lat="44.56109" lon="4.12375">
        <ele>706.23</ele>
        <time>2017-06-04T11:02:56Z</time>
      </trkpt>
      <trkpt lat="44.56116" lon="4.1237">
        <ele>707.19</ele>
        <time>2017-06-04T11:03:06Z</time>
      </trkpt>
      <trkpt lat="44.56122" lon="4.12367">
        <ele>707.19</ele>
        <time>2017-06-04T11:03:11Z</time>
      </trkpt>
      <trkpt lat="44.56133" lon="4.12357">
        <ele>707.67</ele>
        <time>2017-06-04T11:03:24Z</time>
      </trkpt>
      <trkpt lat="44.56134" lon="4.12357">
        <ele>707.67</ele>
        <time>2017-06-04T11:03:28Z</time>
      </trkpt>
      <trkpt lat="44.56138" lon="4.12355">
        <ele>708.15</ele>
        <time>2017-06-04T11:03:31Z</time>
      </trkpt>
      <trkpt lat="44.56142" lon="4.12351">
        <ele>708.15</ele>
        <time>2017-06-04T11:03:37Z</time>
      </trkpt>
      <trkpt lat="44.5615" lon="4.12344">
        <ele>708.15</ele>
        <time>2017-06-04T11:03:45Z</time>
      </trkpt>
      <trkpt lat="44.56153" lon="4.12343">
        <ele>708.15</ele>
        <time>2017-06-04T11:03:48Z</time>
      </trkpt>
      <trkpt lat="44.56155" lon="4.12341">
        <ele>708.15</ele>
        <time>2017-06-04T11:03:50Z</time>
      </trkpt>
      <trkpt lat="44.56158" lon="4.12338">
        <ele>708.15</ele>
        <time>2017-06-04T11:03:53Z</time>
      </trkpt>
      <trkpt lat="44.56162" lon="4.12334">
        <ele>708.15</ele>
        <time>2017-06-04T11:03:58Z</time>
      </trkpt>
      <trkpt lat="44.56165" lon="4.12327">
        <ele>707.67</ele>
        <time>2017-06-04T11:04:02Z</time>
      </trkpt>
      <trkpt lat="44.56166" lon="4.12324">
        <ele>707.67</ele>
        <time>2017-06-04T11:04:05Z</time>
      </trkpt>
      <trkpt lat="44.56168" lon="4.1232">
        <ele>707.67</ele>
        <time>2017-06-04T11:04:09Z</time>
      </trkpt>
      <trkpt lat="44.56173" lon="4.12313">
        <ele>707.67</ele>
        <time>2017-06-04T11:04:15Z</time>
      </trkpt>
      <trkpt lat="44.56178" lon="4.12309">
        <ele>708.15</ele>
        <time>2017-06-04T11:04:20Z</time>
      </trkpt>
      <trkpt lat="44.56182" lon="4.12312">
        <ele>708.15</ele>
        <time>2017-06-04T11:04:34Z</time>
      </trkpt>
      <trkpt lat="44.5618" lon="4.1231">
        <ele>707.67</ele>
        <time>2017-06-04T11:04:46Z</time>
      </trkpt>
      <trkpt lat="44.56175" lon="4.12309">
        <ele>706.71</ele>
        <time>2017-06-04T11:05:00Z</time>
      </trkpt>
      <trkpt lat="44.56174" lon="4.1231">
        <ele>706.71</ele>
        <time>2017-06-04T11:05:16Z</time>
      </trkpt>
      <trkpt lat="44.56174" lon="4.12309">
        <ele>706.71</ele>
        <time>2017-06-04T11:05:39Z</time>
      </trkpt>
      <trkpt lat="44.56175" lon="4.12309">
        <ele>706.71</ele>
        <time>2017-06-04T11:05:54Z</time>
      </trkpt>
      <trkpt lat="44.56176" lon="4.12309">
        <ele>707.67</ele>
        <time>2017-06-04T11:06:12Z</time>
      </trkpt>
      <trkpt lat="44.56177" lon="4.12309">
        <ele>707.19</ele>
        <time>2017-06-04T11:06:50Z</time>
      </trkpt>
      <trkpt lat="44.56177" lon="4.12309">
        <ele>706.71</ele>
        <time>2017-06-04T11:07:13Z</time>
      </trkpt>
      <trkpt lat="44.56177" lon="4.12309">
        <ele>706.71</ele>
        <time>2017-06-04T11:07:43Z</time>
      </trkpt>
      <trkpt lat="44.56177" lon="4.12308">
        <ele>706.71</ele>
        <time>2017-06-04T11:08:18Z</time>
      </trkpt>
      <trkpt lat="44.56177" lon="4.12308">
        <ele>706.71</ele>
        <time>2017-06-04T11:08:52Z</time>
      </trkpt>
      <trkpt lat="44.56177" lon="4.12309">
        <ele>706.71</ele>
        <time>2017-06-04T11:09:25Z</time>
      </trkpt>
      <trkpt lat="44.56177" lon="4.12309">
        <ele>706.71</ele>
        <time>2017-06-04T11:09:56Z</time>
      </trkpt>
      <trkpt lat="44.56177" lon="4.12309">
        <ele>706.71</ele>
        <time>2017-06-04T11:10:31Z</time>
      </trkpt>
      <trkpt lat="44.56177" lon="4.12309">
        <ele>706.71</ele>
        <time>2017-06-04T11:11:04Z</time>
      </trkpt>
      <trkpt lat="44.56177" lon="4.12308">
        <ele>706.71</ele>
        <time>2017-06-04T11:11:41Z</time>
      </trkpt>
      <trkpt lat="44.56176" lon="4.12308">
        <ele>706.71</ele>
        <time>2017-06-04T11:12:21Z</time>
      </trkpt>
      <trkpt lat="44.56176" lon="4.12307">
        <ele>706.71</ele>
        <time>2017-06-04T11:13:01Z</time>
      </trkpt>
      <trkpt lat="44.56176" lon="4.12307">
        <ele>707.19</ele>
        <time>2017-06-04T11:13:41Z</time>
      </trkpt>
      <trkpt lat="44.56176" lon="4.12307">
        <ele>707.19</ele>
        <time>2017-06-04T11:14:14Z</time>
      </trkpt>
      <trkpt lat="44.56176" lon="4.12307">
        <ele>707.19</ele>
        <time>2017-06-04T11:14:46Z</time>
      </trkpt>
      <trkpt lat="44.56177" lon="4.12307">
        <ele>707.19</ele>
        <time>2017-06-04T11:15:23Z</time>
      </trkpt>
      <trkpt lat="44.56177" lon="4.12307">
        <ele>707.67</ele>
        <time>2017-06-04T11:15:59Z</time>
      </trkpt>
      <trkpt lat="44.56177" lon="4.12307">
        <ele>707.19</ele>
        <time>2017-06-04T11:16:26Z</time>
      </trkpt>
      <trkpt lat="44.56177" lon="4.12308">
        <ele>707.19</ele>
        <time>2017-06-04T11:17:04Z</time>
      </trkpt>
      <trkpt lat="44.56177" lon="4.12309">
        <ele>707.67</ele>
        <time>2017-06-04T11:17:39Z</time>
      </trkpt>
      <trkpt lat="44.56176" lon="4.12308">
        <ele>707.67</ele>
        <time>2017-06-04T11:18:08Z</time>
      </trkpt>
      <trkpt lat="44.56176" lon="4.12308">
        <ele>707.67</ele>
        <time>2017-06-04T11:18:40Z</time>
      </trkpt>
      <trkpt lat="44.56176" lon="4.12307">
        <ele>707.67</ele>
        <time>2017-06-04T11:19:12Z</time>
      </trkpt>
      <trkpt lat="44.56176" lon="4.12308">
        <ele>707.67</ele>
        <time>2017-06-04T11:19:48Z</time>
      </trkpt>
      <trkpt lat="44.56176" lon="4.12308">
        <ele>707.67</ele>
        <time>2017-06-04T11:20:27Z</time>
      </trkpt>
      <trkpt lat="44.56176" lon="4.12308">
        <ele>708.15</ele>
        <time>2017-06-04T11:21:02Z</time>
      </trkpt>
      <trkpt lat="44.56176" lon="4.12308">
        <ele>708.15</ele>
        <time>2017-06-04T11:21:34Z</time>
      </trkpt>
      <trkpt lat="44.56176" lon="4.12308">
        <ele>708.63</ele>
        <time>2017-06-04T11:22:13Z</time>
      </trkpt>
      <trkpt lat="44.56176" lon="4.12307">
        <ele>708.63</ele>
        <time>2017-06-04T11:22:50Z</time>
      </trkpt>
      <trkpt lat="44.56176" lon="4.12308">
        <ele>708.63</ele>
        <time>2017-06-04T11:23:25Z</time>
      </trkpt>
      <trkpt lat="44.56176" lon="4.12308">
        <ele>708.63</ele>
        <time>2017-06-04T11:24:04Z</time>
      </trkpt>
      <trkpt lat="44.56175" lon="4.12309">
        <ele>708.63</ele>
        <time>2017-06-04T11:24:42Z</time>
      </trkpt>
      <trkpt lat="44.56175" lon="4.12308">
        <ele>709.59</ele>
        <time>2017-06-04T11:25:13Z</time>
      </trkpt>
      <trkpt lat="44.56175" lon="4.12308">
        <ele>709.11</ele>
        <time>2017-06-04T11:25:45Z</time>
      </trkpt>
      <trkpt lat="44.56175" lon="4.12309">
        <ele>709.11</ele>
        <time>2017-06-04T11:26:22Z</time>
      </trkpt>
      <trkpt lat="44.56176" lon="4.12309">
        <ele>709.11</ele>
        <time>2017-06-04T11:27:00Z</time>
      </trkpt>
      <trkpt lat="44.56175" lon="4.12308">
        <ele>709.11</ele>
        <time>2017-06-04T11:27:26Z</time>
      </trkpt>
      <trkpt lat="44.56176" lon="4.12308">
        <ele>709.11</ele>
        <time>2017-06-04T11:28:00Z</time>
      </trkpt>
      <trkpt lat="44.56175" lon="4.12308">
        <ele>709.11</ele>
        <time>2017-06-04T11:28:27Z</time>
      </trkpt>
      <trkpt lat="44.56175" lon="4.12308">
        <ele>709.11</ele>
        <time>2017-06-04T11:29:04Z</time>
      </trkpt>
      <trkpt lat="44.56174" lon="4.12308">
        <ele>709.11</ele>
        <time>2017-06-04T11:29:39Z</time>
      </trkpt>
      <trkpt lat="44.56174" lon="4.12307">
        <ele>709.59</ele>
        <time>2017-06-04T11:30:15Z</time>
      </trkpt>
      <trkpt lat="44.56175" lon="4.12307">
        <ele>709.59</ele>
        <time>2017-06-04T11:30:48Z</time>
      </trkpt>
      <trkpt lat="44.56175" lon="4.12307">
        <ele>709.59</ele>
        <time>2017-06-04T11:31:26Z</time>
      </trkpt>
      <trkpt lat="44.56175" lon="4.12307">
        <ele>709.59</ele>
        <time>2017-06-04T11:32:00Z</time>
      </trkpt>
      <trkpt lat="44.56175" lon="4.12308">
        <ele>709.59</ele>
        <time>2017-06-04T11:32:31Z</time>
      </trkpt>
      <trkpt lat="44.56175" lon="4.12307">
        <ele>709.59</ele>
        <time>2017-06-04T11:33:07Z</time>
      </trkpt>
      <trkpt lat="44.56176" lon="4.12308">
        <ele>709.11</ele>
        <time>2017-06-04T11:33:42Z</time>
      </trkpt>
      <trkpt lat="44.56177" lon="4.12309">
        <ele>709.59</ele>
        <time>2017-06-04T11:34:20Z</time>
      </trkpt>
      <trkpt lat="44.56177" lon="4.12309">
        <ele>709.59</ele>
        <time>2017-06-04T11:34:51Z</time>
      </trkpt>
      <trkpt lat="44.56177" lon="4.12309">
        <ele>709.11</ele>
        <time>2017-06-04T11:35:21Z</time>
      </trkpt>
      <trkpt lat="44.56177" lon="4.12308">
        <ele>708.63</ele>
        <time>2017-06-04T11:35:50Z</time>
      </trkpt>
      <trkpt lat="44.56176" lon="4.12308">
        <ele>708.63</ele>
        <time>2017-06-04T11:36:24Z</time>
      </trkpt>
      <trkpt lat="44.56176" lon="4.12308">
        <ele>709.11</ele>
        <time>2017-06-04T11:36:49Z</time>
      </trkpt>
      <trkpt lat="44.56176" lon="4.12308">
        <ele>709.11</ele>
        <time>2017-06-04T11:37:22Z</time>
      </trkpt>
      <trkpt lat="44.56176" lon="4.12308">
        <ele>709.11</ele>
        <time>2017-06-04T11:37:54Z</time>
      </trkpt>
      <trkpt lat="44.56176" lon="4.12308">
        <ele>709.11</ele>
        <time>2017-06-04T11:38:24Z</time>
      </trkpt>
      <trkpt lat="44.56176" lon="4.12308">
        <ele>709.11</ele>
        <time>2017-06-04T11:39:02Z</time>
      </trkpt>
      <trkpt lat="44.56176" lon="4.12308">
        <ele>709.11</ele>
        <time>2017-06-04T11:39:37Z</time>
      </trkpt>
      <trkpt lat="44.56176" lon="4.12308">
        <ele>709.11</ele>
        <time>2017-06-04T11:40:11Z</time>
      </trkpt>
      <trkpt lat="44.56176" lon="4.12308">
        <ele>709.11</ele>
        <time>2017-06-04T11:40:47Z</time>
      </trkpt>
      <trkpt lat="44.56176" lon="4.12308">
        <ele>708.63</ele>
        <time>2017-06-04T11:41:10Z</time>
      </trkpt>
      <trkpt lat="44.56176" lon="4.12308">
        <ele>708.63</ele>
        <time>2017-06-04T11:41:44Z</time>
      </trkpt>
      <trkpt lat="44.56176" lon="4.12308">
        <ele>709.11</ele>
        <time>2017-06-04T11:42:07Z</time>
      </trkpt>
      <trkpt lat="44.56175" lon="4.12307">
        <ele>708.63</ele>
        <time>2017-06-04T11:42:44Z</time>
      </trkpt>
      <trkpt lat="44.56175" lon="4.12306">
        <ele>709.11</ele>
        <time>2017-06-04T11:43:24Z</time>
      </trkpt>
      <trkpt lat="44.56174" lon="4.12306">
        <ele>708.63</ele>
        <time>2017-06-04T11:44:00Z</time>
      </trkpt>
      <trkpt lat="44.56174" lon="4.12306">
        <ele>708.63</ele>
        <time>2017-06-04T11:44:36Z</time>
      </trkpt>
      <trkpt lat="44.56174" lon="4.12306">
        <ele>708.63</ele>
        <time>2017-06-04T11:45:11Z</time>
      </trkpt>
      <trkpt lat="44.56175" lon="4.12305">
        <ele>709.11</ele>
        <time>2017-06-04T11:45:46Z</time>
      </trkpt>
      <trkpt lat="44.56175" lon="4.12305">
        <ele>708.63</ele>
        <time>2017-06-04T11:46:21Z</time>
      </trkpt>
      <trkpt lat="44.56175" lon="4.12305">
        <ele>709.11</ele>
        <time>2017-06-04T11:46:50Z</time>
      </trkpt>
      <trkpt lat="44.56175" lon="4.12305">
        <ele>710.07</ele>
        <time>2017-06-04T11:47:18Z</time>
      </trkpt>
      <trkpt lat="44.56176" lon="4.12305">
        <ele>709.11</ele>
        <time>2017-06-04T11:47:50Z</time>
      </trkpt>
      <trkpt lat="44.56175" lon="4.12305">
        <ele>709.11</ele>
        <time>2017-06-04T11:48:23Z</time>
      </trkpt>
      <trkpt lat="44.56175" lon="4.12305">
        <ele>709.11</ele>
        <time>2017-06-04T11:48:55Z</time>
      </trkpt>
      <trkpt lat="44.56175" lon="4.12306">
        <ele>708.63</ele>
        <time>2017-06-04T11:49:27Z</time>
      </trkpt>
      <trkpt lat="44.56175" lon="4.12306">
        <ele>708.63</ele>
        <time>2017-06-04T11:50:00Z</time>
      </trkpt>
      <trkpt lat="44.56175" lon="4.12305">
        <ele>708.63</ele>
        <time>2017-06-04T11:50:28Z</time>
      </trkpt>
      <trkpt lat="44.56175" lon="4.12306">
        <ele>708.63</ele>
        <time>2017-06-04T11:50:59Z</time>
      </trkpt>
      <trkpt lat="44.56175" lon="4.12306">
        <ele>709.11</ele>
        <time>2017-06-04T11:51:30Z</time>
      </trkpt>
      <trkpt lat="44.56175" lon="4.12307">
        <ele>709.11</ele>
        <time>2017-06-04T11:52:02Z</time>
      </trkpt>
      <trkpt lat="44.56175" lon="4.12307">
        <ele>709.59</ele>
        <time>2017-06-04T11:52:24Z</time>
      </trkpt>
      <trkpt lat="44.56176" lon="4.12305">
        <ele>710.07</ele>
        <time>2017-06-04T11:52:35Z</time>
      </trkpt>
      <trkpt lat="44.56177" lon="4.12306">
        <ele>710.07</ele>
        <time>2017-06-04T11:52:54Z</time>
      </trkpt>
      <trkpt lat="44.56177" lon="4.12305">
        <ele>710.07</ele>
        <time>2017-06-04T11:53:12Z</time>
      </trkpt>
      <trkpt lat="44.56177" lon="4.12306">
        <ele>710.55</ele>
        <time>2017-06-04T11:53:26Z</time>
      </trkpt>
      <trkpt lat="44.56175" lon="4.12309">
        <ele>710.55</ele>
        <time>2017-06-04T11:53:38Z</time>
      </trkpt>
      <trkpt lat="44.56174" lon="4.12315">
        <ele>709.11</ele>
        <time>2017-06-04T11:53:49Z</time>
      </trkpt>
      <trkpt lat="44.56174" lon="4.12315">
        <ele>712.47</ele>
        <time>2017-06-04T11:53:50Z</time>
      </trkpt>
      <trkpt lat="44.56174" lon="4.12315">
        <ele>711.03</ele>
        <time>2017-06-04T11:53:51Z</time>
      </trkpt>
      <trkpt lat="44.56171" lon="4.1232">
        <ele>710.55</ele>
        <time>2017-06-04T11:54:02Z</time>
      </trkpt>
      <trkpt lat="44.56169" lon="4.12329">
        <ele>710.55</ele>
        <time>2017-06-04T11:54:16Z</time>
      </trkpt>
      <trkpt lat="44.56176" lon="4.12327">
        <ele>711.03</ele>
        <time>2017-06-04T11:54:23Z</time>
      </trkpt>
      <trkpt lat="44.56181" lon="4.12323">
        <ele>710.07</ele>
        <time>2017-06-04T11:54:36Z</time>
      </trkpt>
      <trkpt lat="44.56181" lon="4.12329">
        <ele>710.55</ele>
        <time>2017-06-04T11:54:48Z</time>
      </trkpt>
      <trkpt lat="44.56182" lon="4.12324">
        <ele>710.07</ele>
        <time>2017-06-04T11:55:01Z</time>
      </trkpt>
      <trkpt lat="44.56186" lon="4.12315">
        <ele>709.11</ele>
        <time>2017-06-04T11:55:13Z</time>
      </trkpt>
      <trkpt lat="44.5619" lon="4.12308">
        <ele>708.63</ele>
        <time>2017-06-04T11:55:24Z</time>
      </trkpt>
      <trkpt lat="44.56196" lon="4.12294">
        <ele>707.19</ele>
        <time>2017-06-04T11:55:38Z</time>
      </trkpt>
      <trkpt lat="44.56205" lon="4.12279">
        <ele>705.26</ele>
        <time>2017-06-04T11:55:52Z</time>
      </trkpt>
      <trkpt lat="44.56212" lon="4.12267">
        <ele>704.3</ele>
        <time>2017-06-04T11:56:06Z</time>
      </trkpt>
      <trkpt lat="44.56217" lon="4.12254">
        <ele>703.34</ele>
        <time>2017-06-04T11:56:17Z</time>
      </trkpt>
      <trkpt lat="44.56221" lon="4.1225">
        <ele>702.86</ele>
        <time>2017-06-04T11:56:23Z</time>
      </trkpt>
      <trkpt lat="44.56224" lon="4.12247">
        <ele>702.38</ele>
        <time>2017-06-04T11:56:26Z</time>
      </trkpt>
      <trkpt lat="44.5623" lon="4.12244">
        <ele>701.42</ele>
        <time>2017-06-04T11:56:41Z</time>
      </trkpt>
      <trkpt lat="44.5623" lon="4.12244">
        <ele>700.94</ele>
        <time>2017-06-04T11:57:13Z</time>
      </trkpt>
      <trkpt lat="44.5623" lon="4.12245">
        <ele>700.94</ele>
        <time>2017-06-04T11:57:29Z</time>
      </trkpt>
      <trkpt lat="44.56229" lon="4.12239">
        <ele>700.94</ele>
        <time>2017-06-04T11:57:43Z</time>
      </trkpt>
      <trkpt lat="44.5623" lon="4.12244">
        <ele>700.94</ele>
        <time>2017-06-04T11:58:12Z</time>
      </trkpt>
      <trkpt lat="44.5623" lon="4.12245">
        <ele>700.94</ele>
        <time>2017-06-04T11:58:43Z</time>
      </trkpt>
      <trkpt lat="44.5623" lon="4.12244">
        <ele>700.94</ele>
        <time>2017-06-04T11:59:14Z</time>
      </trkpt>
      <trkpt lat="44.56231" lon="4.12243">
        <ele>701.42</ele>
        <time>2017-06-04T11:59:46Z</time>
      </trkpt>
      <trkpt lat="44.5623" lon="4.12242">
        <ele>701.42</ele>
        <time>2017-06-04T12:00:00Z</time>
      </trkpt>
      <trkpt lat="44.56227" lon="4.12241">
        <ele>701.42</ele>
        <time>2017-06-04T12:00:15Z</time>
      </trkpt>
      <trkpt lat="44.56227" lon="4.12239">
        <ele>701.42</ele>
        <time>2017-06-04T12:00:28Z</time>
      </trkpt>
      <trkpt lat="44.56228" lon="4.12242">
        <ele>701.9</ele>
        <time>2017-06-04T12:00:57Z</time>
      </trkpt>
      <trkpt lat="44.56225" lon="4.12252">
        <ele>702.86</ele>
        <time>2017-06-04T12:01:09Z</time>
      </trkpt>
      <trkpt lat="44.56221" lon="4.12256">
        <ele>703.34</ele>
        <time>2017-06-04T12:01:15Z</time>
      </trkpt>
      <trkpt lat="44.56219" lon="4.12259">
        <ele>703.34</ele>
        <time>2017-06-04T12:01:28Z</time>
      </trkpt>
      <trkpt lat="44.56218" lon="4.12261">
        <ele>703.82</ele>
        <time>2017-06-04T12:01:45Z</time>
      </trkpt>
      <trkpt lat="44.56217" lon="4.12263">
        <ele>703.82</ele>
        <time>2017-06-04T12:01:48Z</time>
      </trkpt>
      <trkpt lat="44.56215" lon="4.12266">
        <ele>704.3</ele>
        <time>2017-06-04T12:01:51Z</time>
      </trkpt>
      <trkpt lat="44.56211" lon="4.12277">
        <ele>704.78</ele>
        <time>2017-06-04T12:02:01Z</time>
      </trkpt>
      <trkpt lat="44.56205" lon="4.12287">
        <ele>705.75</ele>
        <time>2017-06-04T12:02:13Z</time>
      </trkpt>
      <trkpt lat="44.56205" lon="4.12288">
        <ele>705.75</ele>
        <time>2017-06-04T12:02:14Z</time>
      </trkpt>
      <trkpt lat="44.56204" lon="4.12291">
        <ele>706.23</ele>
        <time>2017-06-04T12:02:17Z</time>
      </trkpt>
      <trkpt lat="44.56198" lon="4.123">
        <ele>707.19</ele>
        <time>2017-06-04T12:02:29Z</time>
      </trkpt>
      <trkpt lat="44.56195" lon="4.12306">
        <ele>707.67</ele>
        <time>2017-06-04T12:02:36Z</time>
      </trkpt>
      <trkpt lat="44.56193" lon="4.12312">
        <ele>708.15</ele>
        <time>2017-06-04T12:02:41Z</time>
      </trkpt>
      <trkpt lat="44.56185" lon="4.12325">
        <ele>709.11</ele>
        <time>2017-06-04T12:02:54Z</time>
      </trkpt>
      <trkpt lat="44.56182" lon="4.12329">
        <ele>709.59</ele>
        <time>2017-06-04T12:02:59Z</time>
      </trkpt>
      <trkpt lat="44.56175" lon="4.12334">
        <ele>710.07</ele>
        <time>2017-06-04T12:03:11Z</time>
      </trkpt>
      <trkpt lat="44.56175" lon="4.12335">
        <ele>709.11</ele>
        <time>2017-06-04T12:03:26Z</time>
      </trkpt>
      <trkpt lat="44.56174" lon="4.12335">
        <ele>709.11</ele>
        <time>2017-06-04T12:04:02Z</time>
      </trkpt>
      <trkpt lat="44.56174" lon="4.12335">
        <ele>709.59</ele>
        <time>2017-06-04T12:04:43Z</time>
      </trkpt>
      <trkpt lat="44.56175" lon="4.12335">
        <ele>709.11</ele>
        <time>2017-06-04T12:05:24Z</time>
      </trkpt>
      <trkpt lat="44.56175" lon="4.12334">
        <ele>709.59</ele>
        <time>2017-06-04T12:06:00Z</time>
      </trkpt>
      <trkpt lat="44.56174" lon="4.12334">
        <ele>709.59</ele>
        <time>2017-06-04T12:06:13Z</time>
      </trkpt>
      <trkpt lat="44.56175" lon="4.12332">
        <ele>709.11</ele>
        <time>2017-06-04T12:06:24Z</time>
      </trkpt>
      <trkpt lat="44.56175" lon="4.12329">
        <ele>709.11</ele>
        <time>2017-06-04T12:06:27Z</time>
      </trkpt>
      <trkpt lat="44.56184" lon="4.12317">
        <ele>708.15</ele>
        <time>2017-06-04T12:06:43Z</time>
      </trkpt>
      <trkpt lat="44.56186" lon="4.12314">
        <ele>707.67</ele>
        <time>2017-06-04T12:06:49Z</time>
      </trkpt>
      <trkpt lat="44.56188" lon="4.12312">
        <ele>707.67</ele>
        <time>2017-06-04T12:06:51Z</time>
      </trkpt>
      <trkpt lat="44.56194" lon="4.12302">
        <ele>706.71</ele>
        <time>2017-06-04T12:07:02Z</time>
      </trkpt>
      <trkpt lat="44.56194" lon="4.123">
        <ele>706.23</ele>
        <time>2017-06-04T12:07:04Z</time>
      </trkpt>
      <trkpt lat="44.56196" lon="4.12297">
        <ele>705.75</ele>
        <time>2017-06-04T12:07:07Z</time>
      </trkpt>
      <trkpt lat="44.56202" lon="4.12285">
        <ele>703.82</ele>
        <time>2017-06-04T12:07:19Z</time>
      </trkpt>
      <trkpt lat="44.56209" lon="4.12273">
        <ele>702.86</ele>
        <time>2017-06-04T12:07:30Z</time>
      </trkpt>
      <trkpt lat="44.56215" lon="4.12261">
        <ele>702.38</ele>
        <time>2017-06-04T12:07:42Z</time>
      </trkpt>
      <trkpt lat="44.56219" lon="4.12254">
        <ele>701.42</ele>
        <time>2017-06-04T12:07:51Z</time>
      </trkpt>
      <trkpt lat="44.56219" lon="4.12253">
        <ele>701.9</ele>
        <time>2017-06-04T12:07:52Z</time>
      </trkpt>
      <trkpt lat="44.5622" lon="4.1225">
        <ele>700.94</ele>
        <time>2017-06-04T12:07:54Z</time>
      </trkpt>
      <trkpt lat="44.56228" lon="4.12242">
        <ele>699.98</ele>
        <time>2017-06-04T12:08:06Z</time>
      </trkpt>
      <trkpt lat="44.56228" lon="4.12236">
        <ele>699.98</ele>
        <time>2017-06-04T12:08:21Z</time>
      </trkpt>
      <trkpt lat="44.56224" lon="4.1223">
        <ele>699.98</ele>
        <time>2017-06-04T12:08:28Z</time>
      </trkpt>
      <trkpt lat="44.56223" lon="4.12213">
        <ele>699.5</ele>
        <time>2017-06-04T12:08:42Z</time>
      </trkpt>
      <trkpt lat="44.56234" lon="4.12201">
        <ele>699.5</ele>
        <time>2017-06-04T12:08:57Z</time>
      </trkpt>
      <trkpt lat="44.56247" lon="4.12187">
        <ele>699.5</ele>
        <time>2017-06-04T12:09:13Z</time>
      </trkpt>
      <trkpt lat="44.56257" lon="4.12178">
        <ele>699.5</ele>
        <time>2017-06-04T12:09:26Z</time>
      </trkpt>
      <trkpt lat="44.56266" lon="4.1217">
        <ele>699.98</ele>
        <time>2017-06-04T12:09:39Z</time>
      </trkpt>
      <trkpt lat="44.5627" lon="4.12163">
        <ele>699.98</ele>
        <time>2017-06-04T12:09:52Z</time>
      </trkpt>
      <trkpt lat="44.56273" lon="4.12157">
        <ele>699.98</ele>
        <time>2017-06-04T12:09:57Z</time>
      </trkpt>
      <trkpt lat="44.56279" lon="4.12143">
        <ele>698.53</ele>
        <time>2017-06-04T12:10:10Z</time>
      </trkpt>
      <trkpt lat="44.56281" lon="4.1214">
        <ele>698.05</ele>
        <time>2017-06-04T12:10:14Z</time>
      </trkpt>
      <trkpt lat="44.56286" lon="4.12129">
        <ele>697.09</ele>
        <time>2017-06-04T12:10:26Z</time>
      </trkpt>
      <trkpt lat="44.56289" lon="4.12122">
        <ele>696.61</ele>
        <time>2017-06-04T12:10:35Z</time>
      </trkpt>
      <trkpt lat="44.5629" lon="4.12118">
        <ele>696.61</ele>
        <time>2017-06-04T12:10:37Z</time>
      </trkpt>
      <trkpt lat="44.56293" lon="4.12111">
        <ele>695.65</ele>
        <time>2017-06-04T12:10:47Z</time>
      </trkpt>
      <trkpt lat="44.56295" lon="4.12103">
        <ele>694.69</ele>
        <time>2017-06-04T12:10:57Z</time>
      </trkpt>
      <trkpt lat="44.56297" lon="4.12099">
        <ele>694.21</ele>
        <time>2017-06-04T12:11:01Z</time>
      </trkpt>
      <trkpt lat="44.56299" lon="4.12093">
        <ele>694.21</ele>
        <time>2017-06-04T12:11:06Z</time>
      </trkpt>
      <trkpt lat="44.56302" lon="4.12084">
        <ele>693.25</ele>
        <time>2017-06-04T12:11:16Z</time>
      </trkpt>
      <trkpt lat="44.56303" lon="4.12074">
        <ele>691.81</ele>
        <time>2017-06-04T12:11:25Z</time>
      </trkpt>
      <trkpt lat="44.56305" lon="4.12065">
        <ele>691.33</ele>
        <time>2017-06-04T12:11:32Z</time>
      </trkpt>
      <trkpt lat="44.56308" lon="4.12053">
        <ele>690.84</ele>
        <time>2017-06-04T12:11:43Z</time>
      </trkpt>
      <trkpt lat="44.56309" lon="4.12051">
        <ele>690.84</ele>
        <time>2017-06-04T12:11:45Z</time>
      </trkpt>
      <trkpt lat="44.56309" lon="4.12048">
        <ele>690.36</ele>
        <time>2017-06-04T12:11:47Z</time>
      </trkpt>
      <trkpt lat="44.56312" lon="4.12038">
        <ele>690.36</ele>
        <time>2017-06-04T12:11:57Z</time>
      </trkpt>
      <trkpt lat="44.56313" lon="4.12034">
        <ele>689.88</ele>
        <time>2017-06-04T12:12:00Z</time>
      </trkpt>
      <trkpt lat="44.56312" lon="4.12022">
        <ele>689.4</ele>
        <time>2017-06-04T12:12:11Z</time>
      </trkpt>
      <trkpt lat="44.56314" lon="4.12006">
        <ele>687.96</ele>
        <time>2017-06-04T12:12:25Z</time>
      </trkpt>
      <trkpt lat="44.56316" lon="4.11993">
        <ele>687.48</ele>
        <time>2017-06-04T12:12:35Z</time>
      </trkpt>
      <trkpt lat="44.5632" lon="4.11981">
        <ele>686.52</ele>
        <time>2017-06-04T12:12:47Z</time>
      </trkpt>
      <trkpt lat="44.56323" lon="4.11973">
        <ele>685.56</ele>
        <time>2017-06-04T12:12:58Z</time>
      </trkpt>
      <trkpt lat="44.56327" lon="4.11962">
        <ele>684.6</ele>
        <time>2017-06-04T12:13:10Z</time>
      </trkpt>
      <trkpt lat="44.56331" lon="4.11955">
        <ele>684.12</ele>
        <time>2017-06-04T12:13:16Z</time>
      </trkpt>
      <trkpt lat="44.56332" lon="4.1195">
        <ele>683.63</ele>
        <time>2017-06-04T12:13:19Z</time>
      </trkpt>
      <trkpt lat="44.56334" lon="4.11946">
        <ele>683.15</ele>
        <time>2017-06-04T12:13:22Z</time>
      </trkpt>
      <trkpt lat="44.56338" lon="4.11942">
        <ele>682.67</ele>
        <time>2017-06-04T12:13:27Z</time>
      </trkpt>
      <trkpt lat="44.56339" lon="4.1194">
        <ele>682.67</ele>
        <time>2017-06-04T12:13:29Z</time>
      </trkpt>
      <trkpt lat="44.56346" lon="4.11922">
        <ele>681.23</ele>
        <time>2017-06-04T12:13:43Z</time>
      </trkpt>
      <trkpt lat="44.56352" lon="4.11914">
        <ele>680.75</ele>
        <time>2017-06-04T12:13:50Z</time>
      </trkpt>
      <trkpt lat="44.56356" lon="4.11903">
        <ele>680.27</ele>
        <time>2017-06-04T12:14:01Z</time>
      </trkpt>
      <trkpt lat="44.5636" lon="4.11895">
        <ele>679.31</ele>
        <time>2017-06-04T12:14:11Z</time>
      </trkpt>
      <trkpt lat="44.56365" lon="4.11888">
        <ele>678.35</ele>
        <time>2017-06-04T12:14:21Z</time>
      </trkpt>
      <trkpt lat="44.5637" lon="4.11878">
        <ele>677.87</ele>
        <time>2017-06-04T12:14:31Z</time>
      </trkpt>
      <trkpt lat="44.56378" lon="4.11871">
        <ele>676.91</ele>
        <time>2017-06-04T12:14:41Z</time>
      </trkpt>
      <trkpt lat="44.56379" lon="4.1187">
        <ele>676.91</ele>
        <time>2017-06-04T12:14:42Z</time>
      </trkpt>
      <trkpt lat="44.56384" lon="4.11862">
        <ele>675.94</ele>
        <time>2017-06-04T12:14:53Z</time>
      </trkpt>
      <trkpt lat="44.56386" lon="4.1186">
        <ele>675.94</ele>
        <time>2017-06-04T12:14:56Z</time>
      </trkpt>
      <trkpt lat="44.5639" lon="4.11856">
        <ele>675.46</ele>
        <time>2017-06-04T12:15:07Z</time>
      </trkpt>
      <trkpt lat="44.56396" lon="4.11844">
        <ele>674.5</ele>
        <time>2017-06-04T12:15:18Z</time>
      </trkpt>
      <trkpt lat="44.564" lon="4.11833">
        <ele>673.06</ele>
        <time>2017-06-04T12:15:28Z</time>
      </trkpt>
      <trkpt lat="44.56401" lon="4.11819">
        <ele>672.1</ele>
        <time>2017-06-04T12:15:39Z</time>
      </trkpt>
      <trkpt lat="44.56401" lon="4.11805">
        <ele>671.62</ele>
        <time>2017-06-04T12:15:50Z</time>
      </trkpt>
      <trkpt lat="44.56401" lon="4.11801">
        <ele>670.66</ele>
        <time>2017-06-04T12:15:56Z</time>
      </trkpt>
      <trkpt lat="44.564" lon="4.11792">
        <ele>670.66</ele>
        <time>2017-06-04T12:16:02Z</time>
      </trkpt>
      <trkpt lat="44.56397" lon="4.11779">
        <ele>669.7</ele>
        <time>2017-06-04T12:16:13Z</time>
      </trkpt>
      <trkpt lat="44.56392" lon="4.11762">
        <ele>667.77</ele>
        <time>2017-06-04T12:16:30Z</time>
      </trkpt>
      <trkpt lat="44.56387" lon="4.11751">
        <ele>666.33</ele>
        <time>2017-06-04T12:16:42Z</time>
      </trkpt>
      <trkpt lat="44.56382" lon="4.1174">
        <ele>665.85</ele>
        <time>2017-06-04T12:16:53Z</time>
      </trkpt>
      <trkpt lat="44.56381" lon="4.11737">
        <ele>665.85</ele>
        <time>2017-06-04T12:16:56Z</time>
      </trkpt>
      <trkpt lat="44.56374" lon="4.11726">
        <ele>664.41</ele>
        <time>2017-06-04T12:17:10Z</time>
      </trkpt>
      <trkpt lat="44.5637" lon="4.11713">
        <ele>664.41</ele>
        <time>2017-06-04T12:17:20Z</time>
      </trkpt>
      <trkpt lat="44.56368" lon="4.117">
        <ele>663.45</ele>
        <time>2017-06-04T12:17:33Z</time>
      </trkpt>
      <trkpt lat="44.56367" lon="4.11688">
        <ele>662.49</ele>
        <time>2017-06-04T12:17:47Z</time>
      </trkpt>
      <trkpt lat="44.56367" lon="4.11677">
        <ele>661.52</ele>
        <time>2017-06-04T12:17:57Z</time>
      </trkpt>
      <trkpt lat="44.56369" lon="4.11662">
        <ele>660.08</ele>
        <time>2017-06-04T12:18:11Z</time>
      </trkpt>
      <trkpt lat="44.56374" lon="4.11645">
        <ele>659.12</ele>
        <time>2017-06-04T12:18:25Z</time>
      </trkpt>
      <trkpt lat="44.56377" lon="4.11639">
        <ele>658.16</ele>
        <time>2017-06-04T12:18:34Z</time>
      </trkpt>
      <trkpt lat="44.56378" lon="4.11636">
        <ele>658.16</ele>
        <time>2017-06-04T12:18:37Z</time>
      </trkpt>
      <trkpt lat="44.5638" lon="4.11627">
        <ele>657.2</ele>
        <time>2017-06-04T12:18:44Z</time>
      </trkpt>
      <trkpt lat="44.56386" lon="4.11616">
        <ele>656.24</ele>
        <time>2017-06-04T12:18:53Z</time>
      </trkpt>
      <trkpt lat="44.56388" lon="4.11613">
        <ele>656.24</ele>
        <time>2017-06-04T12:18:58Z</time>
      </trkpt>
      <trkpt lat="44.56394" lon="4.11603">
        <ele>655.28</ele>
        <time>2017-06-04T12:19:06Z</time>
      </trkpt>
      <trkpt lat="44.564" lon="4.11598">
        <ele>654.31</ele>
        <time>2017-06-04T12:19:12Z</time>
      </trkpt>
      <trkpt lat="44.56402" lon="4.11596">
        <ele>654.31</ele>
        <time>2017-06-04T12:19:14Z</time>
      </trkpt>
      <trkpt lat="44.56412" lon="4.11589">
        <ele>652.87</ele>
        <time>2017-06-04T12:19:24Z</time>
      </trkpt>
      <trkpt lat="44.56415" lon="4.11586">
        <ele>652.39</ele>
        <time>2017-06-04T12:19:28Z</time>
      </trkpt>
      <trkpt lat="44.56426" lon="4.11577">
        <ele>651.43</ele>
        <time>2017-06-04T12:19:35Z</time>
      </trkpt>
      <trkpt lat="44.56428" lon="4.11575">
        <ele>650.95</ele>
        <time>2017-06-04T12:19:39Z</time>
      </trkpt>
      <trkpt lat="44.5643" lon="4.11574">
        <ele>650.47</ele>
        <time>2017-06-04T12:19:41Z</time>
      </trkpt>
      <trkpt lat="44.56435" lon="4.11571">
        <ele>649.99</ele>
        <time>2017-06-04T12:19:47Z</time>
      </trkpt>
      <trkpt lat="44.56445" lon="4.11568">
        <ele>649.03</ele>
        <time>2017-06-04T12:19:57Z</time>
      </trkpt>
      <trkpt lat="44.56456" lon="4.11558">
        <ele>647.1</ele>
        <time>2017-06-04T12:20:10Z</time>
      </trkpt>
      <trkpt lat="44.56459" lon="4.11555">
        <ele>646.62</ele>
        <time>2017-06-04T12:20:14Z</time>
      </trkpt>
      <trkpt lat="44.56463" lon="4.11555">
        <ele>646.62</ele>
        <time>2017-06-04T12:20:17Z</time>
      </trkpt>
      <trkpt lat="44.56473" lon="4.11544">
        <ele>645.18</ele>
        <time>2017-06-04T12:20:29Z</time>
      </trkpt>
      <trkpt lat="44.56483" lon="4.11542">
        <ele>644.22</ele>
        <time>2017-06-04T12:20:39Z</time>
      </trkpt>
      <trkpt lat="44.56487" lon="4.1154">
        <ele>644.22</ele>
        <time>2017-06-04T12:20:42Z</time>
      </trkpt>
      <trkpt lat="44.56498" lon="4.11536">
        <ele>642.3</ele>
        <time>2017-06-04T12:20:51Z</time>
      </trkpt>
      <trkpt lat="44.56512" lon="4.1154">
        <ele>641.34</ele>
        <time>2017-06-04T12:21:02Z</time>
      </trkpt>
      <trkpt lat="44.56519" lon="4.1154">
        <ele>640.38</ele>
        <time>2017-06-04T12:21:11Z</time>
      </trkpt>
      <trkpt lat="44.56523" lon="4.11539">
        <ele>640.38</ele>
        <time>2017-06-04T12:21:14Z</time>
      </trkpt>
      <trkpt lat="44.56532" lon="4.11539">
        <ele>639.41</ele>
        <time>2017-06-04T12:21:24Z</time>
      </trkpt>
      <trkpt lat="44.56535" lon="4.1154">
        <ele>638.93</ele>
        <time>2017-06-04T12:21:27Z</time>
      </trkpt>
      <trkpt lat="44.56545" lon="4.11543">
        <ele>637.97</ele>
        <time>2017-06-04T12:21:38Z</time>
      </trkpt>
      <trkpt lat="44.56557" lon="4.11543">
        <ele>636.53</ele>
        <time>2017-06-04T12:21:50Z</time>
      </trkpt>
      <trkpt lat="44.5656" lon="4.11543">
        <ele>636.05</ele>
        <time>2017-06-04T12:21:53Z</time>
      </trkpt>
      <trkpt lat="44.5657" lon="4.11547">
        <ele>634.61</ele>
        <time>2017-06-04T12:22:06Z</time>
      </trkpt>
      <trkpt lat="44.56575" lon="4.1155">
        <ele>633.65</ele>
        <time>2017-06-04T12:22:14Z</time>
      </trkpt>
      <trkpt lat="44.56585" lon="4.11559">
        <ele>633.17</ele>
        <time>2017-06-04T12:22:26Z</time>
      </trkpt>
      <trkpt lat="44.56588" lon="4.1156">
        <ele>633.17</ele>
        <time>2017-06-04T12:22:29Z</time>
      </trkpt>
      <trkpt lat="44.56595" lon="4.11557">
        <ele>632.68</ele>
        <time>2017-06-04T12:22:36Z</time>
      </trkpt>
      <trkpt lat="44.56603" lon="4.1155">
        <ele>631.72</ele>
        <time>2017-06-04T12:22:45Z</time>
      </trkpt>
      <trkpt lat="44.56608" lon="4.11537">
        <ele>631.24</ele>
        <time>2017-06-04T12:22:56Z</time>
      </trkpt>
      <trkpt lat="44.56614" lon="4.11521">
        <ele>629.8</ele>
        <time>2017-06-04T12:23:10Z</time>
      </trkpt>
      <trkpt lat="44.56618" lon="4.11514">
        <ele>629.32</ele>
        <time>2017-06-04T12:23:16Z</time>
      </trkpt>
      <trkpt lat="44.5662" lon="4.11511">
        <ele>629.32</ele>
        <time>2017-06-04T12:23:18Z</time>
      </trkpt>
      <trkpt lat="44.56626" lon="4.11506">
        <ele>628.84</ele>
        <time>2017-06-04T12:23:26Z</time>
      </trkpt>
      <trkpt lat="44.56634" lon="4.11494">
        <ele>627.4</ele>
        <time>2017-06-04T12:23:39Z</time>
      </trkpt>
      <trkpt lat="44.56636" lon="4.11492">
        <ele>626.92</ele>
        <time>2017-06-04T12:23:43Z</time>
      </trkpt>
      <trkpt lat="44.56642" lon="4.11487">
        <ele>626.44</ele>
        <time>2017-06-04T12:23:49Z</time>
      </trkpt>
      <trkpt lat="44.56648" lon="4.11481">
        <ele>625.47</ele>
        <time>2017-06-04T12:23:57Z</time>
      </trkpt>
      <trkpt lat="44.56651" lon="4.11478">
        <ele>624.99</ele>
        <time>2017-06-04T12:24:00Z</time>
      </trkpt>
      <trkpt lat="44.56653" lon="4.11476">
        <ele>624.51</ele>
        <time>2017-06-04T12:24:03Z</time>
      </trkpt>
      <trkpt lat="44.56661" lon="4.11468">
        <ele>623.55</ele>
        <time>2017-06-04T12:24:15Z</time>
      </trkpt>
      <trkpt lat="44.56666" lon="4.11464">
        <ele>623.07</ele>
        <time>2017-06-04T12:24:21Z</time>
      </trkpt>
      <trkpt lat="44.56679" lon="4.11459">
        <ele>623.07</ele>
        <time>2017-06-04T12:24:33Z</time>
      </trkpt>
      <trkpt lat="44.56681" lon="4.11458">
        <ele>622.59</ele>
        <time>2017-06-04T12:24:36Z</time>
      </trkpt>
      <trkpt lat="44.56686" lon="4.11451">
        <ele>621.63</ele>
        <time>2017-06-04T12:24:45Z</time>
      </trkpt>
      <trkpt lat="44.56685" lon="4.11446">
        <ele>621.63</ele>
        <time>2017-06-04T12:24:55Z</time>
      </trkpt>
      <trkpt lat="44.56682" lon="4.11437">
        <ele>620.19</ele>
        <time>2017-06-04T12:25:05Z</time>
      </trkpt>
      <trkpt lat="44.56675" lon="4.11428">
        <ele>619.23</ele>
        <time>2017-06-04T12:25:14Z</time>
      </trkpt>
      <trkpt lat="44.56669" lon="4.11412">
        <ele>617.3</ele>
        <time>2017-06-04T12:25:30Z</time>
      </trkpt>
      <trkpt lat="44.56669" lon="4.11402">
        <ele>615.86</ele>
        <time>2017-06-04T12:25:39Z</time>
      </trkpt>
      <trkpt lat="44.56671" lon="4.11389">
        <ele>615.38</ele>
        <time>2017-06-04T12:25:48Z</time>
      </trkpt>
      <trkpt lat="44.56674" lon="4.11379">
        <ele>615.86</ele>
        <time>2017-06-04T12:25:55Z</time>
      </trkpt>
      <trkpt lat="44.56676" lon="4.11373">
        <ele>614.9</ele>
        <time>2017-06-04T12:26:00Z</time>
      </trkpt>
      <trkpt lat="44.56678" lon="4.11364">
        <ele>612.5</ele>
        <time>2017-06-04T12:26:10Z</time>
      </trkpt>
      <trkpt lat="44.56678" lon="4.11356">
        <ele>612.02</ele>
        <time>2017-06-04T12:26:16Z</time>
      </trkpt>
      <trkpt lat="44.56679" lon="4.11349">
        <ele>612.02</ele>
        <time>2017-06-04T12:26:22Z</time>
      </trkpt>
      <trkpt lat="44.56672" lon="4.11346">
        <ele>611.06</ele>
        <time>2017-06-04T12:26:35Z</time>
      </trkpt>
      <trkpt lat="44.5667" lon="4.11346">
        <ele>611.06</ele>
        <time>2017-06-04T12:26:37Z</time>
      </trkpt>
      <trkpt lat="44.56662" lon="4.11348">
        <ele>610.09</ele>
        <time>2017-06-04T12:26:48Z</time>
      </trkpt>
      <trkpt lat="44.56653" lon="4.1135">
        <ele>610.09</ele>
        <time>2017-06-04T12:26:58Z</time>
      </trkpt>
      <trkpt lat="44.56652" lon="4.1135">
        <ele>610.09</ele>
        <time>2017-06-04T12:26:59Z</time>
      </trkpt>
      <trkpt lat="44.56648" lon="4.11353">
        <ele>609.61</ele>
        <time>2017-06-04T12:27:05Z</time>
      </trkpt>
      <trkpt lat="44.56641" lon="4.11357">
        <ele>609.61</ele>
        <time>2017-06-04T12:27:10Z</time>
      </trkpt>
      <trkpt lat="44.5663" lon="4.11363">
        <ele>608.65</ele>
        <time>2017-06-04T12:27:20Z</time>
      </trkpt>
      <trkpt lat="44.5662" lon="4.1136">
        <ele>607.21</ele>
        <time>2017-06-04T12:27:32Z</time>
      </trkpt>
      <trkpt lat="44.56617" lon="4.11354">
        <ele>605.77</ele>
        <time>2017-06-04T12:27:43Z</time>
      </trkpt>
      <trkpt lat="44.56609" lon="4.11354">
        <ele>603.85</ele>
        <time>2017-06-04T12:27:57Z</time>
      </trkpt>
      <trkpt lat="44.56595" lon="4.11358">
        <ele>602.4</ele>
        <time>2017-06-04T12:28:12Z</time>
      </trkpt>
      <trkpt lat="44.56586" lon="4.11361">
        <ele>600.96</ele>
        <time>2017-06-04T12:28:24Z</time>
      </trkpt>
      <trkpt lat="44.56587" lon="4.11359">
        <ele>600.48</ele>
        <time>2017-06-04T12:28:43Z</time>
      </trkpt>
      <trkpt lat="44.56588" lon="4.11358">
        <ele>600</ele>
        <time>2017-06-04T12:29:08Z</time>
      </trkpt>
      <trkpt lat="44.56586" lon="4.11359">
        <ele>600.48</ele>
        <time>2017-06-04T12:29:27Z</time>
      </trkpt>
      <trkpt lat="44.56585" lon="4.11358">
        <ele>600.48</ele>
        <time>2017-06-04T12:29:42Z</time>
      </trkpt>
      <trkpt lat="44.56581" lon="4.11358">
        <ele>600.96</ele>
        <time>2017-06-04T12:29:54Z</time>
      </trkpt>
      <trkpt lat="44.56576" lon="4.1135">
        <ele>600</ele>
        <time>2017-06-04T12:30:03Z</time>
      </trkpt>
      <trkpt lat="44.56571" lon="4.11345">
        <ele>599.52</ele>
        <time>2017-06-04T12:30:09Z</time>
      </trkpt>
      <trkpt lat="44.56567" lon="4.11341">
        <ele>600</ele>
        <time>2017-06-04T12:30:13Z</time>
      </trkpt>
      <trkpt lat="44.56564" lon="4.11335">
        <ele>600</ele>
        <time>2017-06-04T12:30:18Z</time>
      </trkpt>
      <trkpt lat="44.56561" lon="4.1133">
        <ele>600.48</ele>
        <time>2017-06-04T12:30:23Z</time>
      </trkpt>
      <trkpt lat="44.5656" lon="4.11328">
        <ele>600.48</ele>
        <time>2017-06-04T12:30:25Z</time>
      </trkpt>
      <trkpt lat="44.56559" lon="4.11321">
        <ele>600.48</ele>
        <time>2017-06-04T12:30:29Z</time>
      </trkpt>
      <trkpt lat="44.56553" lon="4.11303">
        <ele>598.08</ele>
        <time>2017-06-04T12:30:45Z</time>
      </trkpt>
      <trkpt lat="44.56546" lon="4.11291">
        <ele>597.12</ele>
        <time>2017-06-04T12:30:59Z</time>
      </trkpt>
      <trkpt lat="44.56543" lon="4.11277">
        <ele>595.67</ele>
        <time>2017-06-04T12:31:11Z</time>
      </trkpt>
      <trkpt lat="44.56541" lon="4.11267">
        <ele>594.71</ele>
        <time>2017-06-04T12:31:19Z</time>
      </trkpt>
      <trkpt lat="44.5654" lon="4.11251">
        <ele>593.75</ele>
        <time>2017-06-04T12:31:28Z</time>
      </trkpt>
      <trkpt lat="44.56542" lon="4.11244">
        <ele>593.27</ele>
        <time>2017-06-04T12:31:32Z</time>
      </trkpt>
      <trkpt lat="44.56544" lon="4.11232">
        <ele>592.31</ele>
        <time>2017-06-04T12:31:44Z</time>
      </trkpt>
      <trkpt lat="44.56548" lon="4.11221">
        <ele>591.35</ele>
        <time>2017-06-04T12:31:54Z</time>
      </trkpt>
      <trkpt lat="44.56549" lon="4.11219">
        <ele>591.35</ele>
        <time>2017-06-04T12:31:56Z</time>
      </trkpt>
      <trkpt lat="44.56553" lon="4.11202">
        <ele>589.91</ele>
        <time>2017-06-04T12:32:09Z</time>
      </trkpt>
      <trkpt lat="44.56556" lon="4.11192">
        <ele>588.95</ele>
        <time>2017-06-04T12:32:18Z</time>
      </trkpt>
      <trkpt lat="44.56557" lon="4.11186">
        <ele>587.98</ele>
        <time>2017-06-04T12:32:23Z</time>
      </trkpt>
      <trkpt lat="44.5656" lon="4.11175">
        <ele>587.5</ele>
        <time>2017-06-04T12:32:30Z</time>
      </trkpt>
      <trkpt lat="44.56562" lon="4.11171">
        <ele>587.02</ele>
        <time>2017-06-04T12:32:34Z</time>
      </trkpt>
      <trkpt lat="44.56566" lon="4.11167">
        <ele>586.54</ele>
        <time>2017-06-04T12:32:39Z</time>
      </trkpt>
      <trkpt lat="44.5657" lon="4.1116">
        <ele>586.54</ele>
        <time>2017-06-04T12:32:46Z</time>
      </trkpt>
      <trkpt lat="44.56572" lon="4.11147">
        <ele>585.1</ele>
        <time>2017-06-04T12:33:00Z</time>
      </trkpt>
      <trkpt lat="44.56573" lon="4.11134">
        <ele>583.66</ele>
        <time>2017-06-04T12:33:12Z</time>
      </trkpt>
      <trkpt lat="44.56564" lon="4.11127">
        <ele>583.18</ele>
        <time>2017-06-04T12:33:23Z</time>
      </trkpt>
      <trkpt lat="44.56558" lon="4.11122">
        <ele>582.22</ele>
        <time>2017-06-04T12:33:29Z</time>
      </trkpt>
      <trkpt lat="44.56551" lon="4.11113">
        <ele>581.73</ele>
        <time>2017-06-04T12:33:42Z</time>
      </trkpt>
      <trkpt lat="44.56549" lon="4.11108">
        <ele>581.73</ele>
        <time>2017-06-04T12:33:46Z</time>
      </trkpt>
      <trkpt lat="44.5654" lon="4.11103">
        <ele>580.77</ele>
        <time>2017-06-04T12:33:58Z</time>
      </trkpt>
      <trkpt lat="44.56533" lon="4.11093">
        <ele>579.81</ele>
        <time>2017-06-04T12:34:12Z</time>
      </trkpt>
      <trkpt lat="44.56524" lon="4.11081">
        <ele>577.89</ele>
        <time>2017-06-04T12:34:25Z</time>
      </trkpt>
      <trkpt lat="44.56513" lon="4.11069">
        <ele>576.45</ele>
        <time>2017-06-04T12:34:39Z</time>
      </trkpt>
      <trkpt lat="44.56508" lon="4.11064">
        <ele>576.45</ele>
        <time>2017-06-04T12:34:44Z</time>
      </trkpt>
      <trkpt lat="44.565" lon="4.11058">
        <ele>575.49</ele>
        <time>2017-06-04T12:34:53Z</time>
      </trkpt>
      <trkpt lat="44.56497" lon="4.11054">
        <ele>574.53</ele>
        <time>2017-06-04T12:34:59Z</time>
      </trkpt>
      <trkpt lat="44.56495" lon="4.1105">
        <ele>574.53</ele>
        <time>2017-06-04T12:35:02Z</time>
      </trkpt>
      <trkpt lat="44.56488" lon="4.11043">
        <ele>574.04</ele>
        <time>2017-06-04T12:35:14Z</time>
      </trkpt>
      <trkpt lat="44.56482" lon="4.11036">
        <ele>573.08</ele>
        <time>2017-06-04T12:35:28Z</time>
      </trkpt>
      <trkpt lat="44.56481" lon="4.11035">
        <ele>573.08</ele>
        <time>2017-06-04T12:35:29Z</time>
      </trkpt>
      <trkpt lat="44.56478" lon="4.11027">
        <ele>571.64</ele>
        <time>2017-06-04T12:35:38Z</time>
      </trkpt>
      <trkpt lat="44.56474" lon="4.11015">
        <ele>569.72</ele>
        <time>2017-06-04T12:35:51Z</time>
      </trkpt>
      <trkpt lat="44.56472" lon="4.11007">
        <ele>568.76</ele>
        <time>2017-06-04T12:36:00Z</time>
      </trkpt>
      <trkpt lat="44.56468" lon="4.10996">
        <ele>567.8</ele>
        <time>2017-06-04T12:36:12Z</time>
      </trkpt>
      <trkpt lat="44.56465" lon="4.10989">
        <ele>566.83</ele>
        <time>2017-06-04T12:36:30Z</time>
      </trkpt>
      <trkpt lat="44.56464" lon="4.10983">
        <ele>567.32</ele>
        <time>2017-06-04T12:36:44Z</time>
      </trkpt>
      <trkpt lat="44.56463" lon="4.10979">
        <ele>567.32</ele>
        <time>2017-06-04T12:37:06Z</time>
      </trkpt>
      <trkpt lat="44.56454" lon="4.10966">
        <ele>571.16</ele>
        <time>2017-06-04T12:38:04Z</time>
      </trkpt>
      <trkpt lat="44.56453" lon="4.10967">
        <ele>571.16</ele>
        <time>2017-06-04T12:38:05Z</time>
      </trkpt>
      <trkpt lat="44.56459" lon="4.10974">
        <ele>571.16</ele>
        <time>2017-06-04T12:38:28Z</time>
      </trkpt>
      <trkpt lat="44.56458" lon="4.10975">
        <ele>570.68</ele>
        <time>2017-06-04T12:38:43Z</time>
      </trkpt>
      <trkpt lat="44.56453" lon="4.10971">
        <ele>570.2</ele>
        <time>2017-06-04T12:38:59Z</time>
      </trkpt>
      <trkpt lat="44.56442" lon="4.10965">
        <ele>568.76</ele>
        <time>2017-06-04T12:39:15Z</time>
      </trkpt>
      <trkpt lat="44.56433" lon="4.10961">
        <ele>567.32</ele>
        <time>2017-06-04T12:39:28Z</time>
      </trkpt>
      <trkpt lat="44.56417" lon="4.10961">
        <ele>566.35</ele>
        <time>2017-06-04T12:39:41Z</time>
      </trkpt>
      <trkpt lat="44.56412" lon="4.1096">
        <ele>565.87</ele>
        <time>2017-06-04T12:39:47Z</time>
      </trkpt>
      <trkpt lat="44.56401" lon="4.10957">
        <ele>563.95</ele>
        <time>2017-06-04T12:40:00Z</time>
      </trkpt>
      <trkpt lat="44.56396" lon="4.10955">
        <ele>563.47</ele>
        <time>2017-06-04T12:40:08Z</time>
      </trkpt>
      <trkpt lat="44.56385" lon="4.10955">
        <ele>562.51</ele>
        <time>2017-06-04T12:40:22Z</time>
      </trkpt>
      <trkpt lat="44.56383" lon="4.10954">
        <ele>562.03</ele>
        <time>2017-06-04T12:40:24Z</time>
      </trkpt>
      <trkpt lat="44.56378" lon="4.10945">
        <ele>561.07</ele>
        <time>2017-06-04T12:40:38Z</time>
      </trkpt>
      <trkpt lat="44.56377" lon="4.10936">
        <ele>559.62</ele>
        <time>2017-06-04T12:40:51Z</time>
      </trkpt>
      <trkpt lat="44.56374" lon="4.1093">
        <ele>559.14</ele>
        <time>2017-06-04T12:41:04Z</time>
      </trkpt>
      <trkpt lat="44.56374" lon="4.10927">
        <ele>559.14</ele>
        <time>2017-06-04T12:41:26Z</time>
      </trkpt>
      <trkpt lat="44.56362" lon="4.10912">
        <ele>558.18</ele>
        <time>2017-06-04T12:41:41Z</time>
      </trkpt>
      <trkpt lat="44.56361" lon="4.10911">
        <ele>558.18</ele>
        <time>2017-06-04T12:41:42Z</time>
      </trkpt>
      <trkpt lat="44.56353" lon="4.10895">
        <ele>556.26</ele>
        <time>2017-06-04T12:41:58Z</time>
      </trkpt>
      <trkpt lat="44.56355" lon="4.10878">
        <ele>556.26</ele>
        <time>2017-06-04T12:42:12Z</time>
      </trkpt>
      <trkpt lat="44.56357" lon="4.10875">
        <ele>556.26</ele>
        <time>2017-06-04T12:42:14Z</time>
      </trkpt>
      <trkpt lat="44.56365" lon="4.10861">
        <ele>557.7</ele>
        <time>2017-06-04T12:42:30Z</time>
      </trkpt>
      <trkpt lat="44.56372" lon="4.10854">
        <ele>558.18</ele>
        <time>2017-06-04T12:42:38Z</time>
      </trkpt>
      <trkpt lat="44.56379" lon="4.10848">
        <ele>558.18</ele>
        <time>2017-06-04T12:42:44Z</time>
      </trkpt>
      <trkpt lat="44.5638" lon="4.10845">
        <ele>559.14</ele>
        <time>2017-06-04T12:42:47Z</time>
      </trkpt>
      <trkpt lat="44.56384" lon="4.1084">
        <ele>558.66</ele>
        <time>2017-06-04T12:42:55Z</time>
      </trkpt>
      <trkpt lat="44.56391" lon="4.1083">
        <ele>556.26</ele>
        <time>2017-06-04T12:43:07Z</time>
      </trkpt>
      <trkpt lat="44.56396" lon="4.10818">
        <ele>556.74</ele>
        <time>2017-06-04T12:43:21Z</time>
      </trkpt>
      <trkpt lat="44.56397" lon="4.10814">
        <ele>555.3</ele>
        <time>2017-06-04T12:43:33Z</time>
      </trkpt>
      <trkpt lat="44.56399" lon="4.10808">
        <ele>554.82</ele>
        <time>2017-06-04T12:43:40Z</time>
      </trkpt>
      <trkpt lat="44.56403" lon="4.10801">
        <ele>553.38</ele>
        <time>2017-06-04T12:43:48Z</time>
      </trkpt>
      <trkpt lat="44.56406" lon="4.10787">
        <ele>550.97</ele>
        <time>2017-06-04T12:44:01Z</time>
      </trkpt>
      <trkpt lat="44.56407" lon="4.10784">
        <ele>551.45</ele>
        <time>2017-06-04T12:44:03Z</time>
      </trkpt>
      <trkpt lat="44.56415" lon="4.10773">
        <ele>550.49</ele>
        <time>2017-06-04T12:44:16Z</time>
      </trkpt>
      <trkpt lat="44.56421" lon="4.10768">
        <ele>550.49</ele>
        <time>2017-06-04T12:44:30Z</time>
      </trkpt>
      <trkpt lat="44.56432" lon="4.10753">
        <ele>549.05</ele>
        <time>2017-06-04T12:44:44Z</time>
      </trkpt>
      <trkpt lat="44.56433" lon="4.10752">
        <ele>549.05</ele>
        <time>2017-06-04T12:44:45Z</time>
      </trkpt>
      <trkpt lat="44.56436" lon="4.1075">
        <ele>548.57</ele>
        <time>2017-06-04T12:44:47Z</time>
      </trkpt>
      <trkpt lat="44.56438" lon="4.10748">
        <ele>548.57</ele>
        <time>2017-06-04T12:44:49Z</time>
      </trkpt>
      <trkpt lat="44.56445" lon="4.10738">
        <ele>548.09</ele>
        <time>2017-06-04T12:45:00Z</time>
      </trkpt>
      <trkpt lat="44.56449" lon="4.10732">
        <ele>548.09</ele>
        <time>2017-06-04T12:45:11Z</time>
      </trkpt>
      <trkpt lat="44.56451" lon="4.10724">
        <ele>547.61</ele>
        <time>2017-06-04T12:45:21Z</time>
      </trkpt>
      <trkpt lat="44.56454" lon="4.10723">
        <ele>547.13</ele>
        <time>2017-06-04T12:45:35Z</time>
      </trkpt>
      <trkpt lat="44.56457" lon="4.10716">
        <ele>547.13</ele>
        <time>2017-06-04T12:45:44Z</time>
      </trkpt>
      <trkpt lat="44.56461" lon="4.10712">
        <ele>546.65</ele>
        <time>2017-06-04T12:45:55Z</time>
      </trkpt>
      <trkpt lat="44.56464" lon="4.1071">
        <ele>546.65</ele>
        <time>2017-06-04T12:45:59Z</time>
      </trkpt>
      <trkpt lat="44.56466" lon="4.10707">
        <ele>546.17</ele>
        <time>2017-06-04T12:46:01Z</time>
      </trkpt>
      <trkpt lat="44.56473" lon="4.10697">
        <ele>545.69</ele>
        <time>2017-06-04T12:46:10Z</time>
      </trkpt>
      <trkpt lat="44.5648" lon="4.10689">
        <ele>545.2</ele>
        <time>2017-06-04T12:46:18Z</time>
      </trkpt>
      <trkpt lat="44.56488" lon="4.10679">
        <ele>545.2</ele>
        <time>2017-06-04T12:46:30Z</time>
      </trkpt>
      <trkpt lat="44.56487" lon="4.10662">
        <ele>544.72</ele>
        <time>2017-06-04T12:46:44Z</time>
      </trkpt>
      <trkpt lat="44.5649" lon="4.10639">
        <ele>544.24</ele>
        <time>2017-06-04T12:46:57Z</time>
      </trkpt>
      <trkpt lat="44.56489" lon="4.1063">
        <ele>543.28</ele>
        <time>2017-06-04T12:47:13Z</time>
      </trkpt>
      <trkpt lat="44.56485" lon="4.10615">
        <ele>542.32</ele>
        <time>2017-06-04T12:47:26Z</time>
      </trkpt>
      <trkpt lat="44.56484" lon="4.1061">
        <ele>541.84</ele>
        <time>2017-06-04T12:47:39Z</time>
      </trkpt>
      <trkpt lat="44.56484" lon="4.10602">
        <ele>540.4</ele>
        <time>2017-06-04T12:47:55Z</time>
      </trkpt>
      <trkpt lat="44.56485" lon="4.10592">
        <ele>538.48</ele>
        <time>2017-06-04T12:48:12Z</time>
      </trkpt>
      <trkpt lat="44.56479" lon="4.1058">
        <ele>536.55</ele>
        <time>2017-06-04T12:48:27Z</time>
      </trkpt>
      <trkpt lat="44.56475" lon="4.10567">
        <ele>534.15</ele>
        <time>2017-06-04T12:48:44Z</time>
      </trkpt>
      <trkpt lat="44.56477" lon="4.10551">
        <ele>532.71</ele>
        <time>2017-06-04T12:48:58Z</time>
      </trkpt>
      <trkpt lat="44.56478" lon="4.10549">
        <ele>531.75</ele>
        <time>2017-06-04T12:49:15Z</time>
      </trkpt>
      <trkpt lat="44.56479" lon="4.10548">
        <ele>532.23</ele>
        <time>2017-06-04T12:49:35Z</time>
      </trkpt>
      <trkpt lat="44.56479" lon="4.10549">
        <ele>532.23</ele>
        <time>2017-06-04T12:49:51Z</time>
      </trkpt>
      <trkpt lat="44.5648" lon="4.10549">
        <ele>531.75</ele>
        <time>2017-06-04T12:50:03Z</time>
      </trkpt>
      <trkpt lat="44.56476" lon="4.10536">
        <ele>530.79</ele>
        <time>2017-06-04T12:50:18Z</time>
      </trkpt>
      <trkpt lat="44.56476" lon="4.10528">
        <ele>528.38</ele>
        <time>2017-06-04T12:50:33Z</time>
      </trkpt>
      <trkpt lat="44.56473" lon="4.10519">
        <ele>527.42</ele>
        <time>2017-06-04T12:50:42Z</time>
      </trkpt>
      <trkpt lat="44.56466" lon="4.10509">
        <ele>525.5</ele>
        <time>2017-06-04T12:50:54Z</time>
      </trkpt>
      <trkpt lat="44.56457" lon="4.10501">
        <ele>523.09</ele>
        <time>2017-06-04T12:51:09Z</time>
      </trkpt>
      <trkpt lat="44.5645" lon="4.10491">
        <ele>520.69</ele>
        <time>2017-06-04T12:51:27Z</time>
      </trkpt>
      <trkpt lat="44.56448" lon="4.10493">
        <ele>520.21</ele>
        <time>2017-06-04T12:51:47Z</time>
      </trkpt>
      <trkpt lat="44.56459" lon="4.1049">
        <ele>517.33</ele>
        <time>2017-06-04T12:52:03Z</time>
      </trkpt>
      <trkpt lat="44.56471" lon="4.10484">
        <ele>515.4</ele>
        <time>2017-06-04T12:52:16Z</time>
      </trkpt>
      <trkpt lat="44.56486" lon="4.10479">
        <ele>512.52</ele>
        <time>2017-06-04T12:52:32Z</time>
      </trkpt>
      <trkpt lat="44.56489" lon="4.10473">
        <ele>510.12</ele>
        <time>2017-06-04T12:52:49Z</time>
      </trkpt>
      <trkpt lat="44.56496" lon="4.10467">
        <ele>509.16</ele>
        <time>2017-06-04T12:53:00Z</time>
      </trkpt>
      <trkpt lat="44.56503" lon="4.10453">
        <ele>509.16</ele>
        <time>2017-06-04T12:53:13Z</time>
      </trkpt>
      <trkpt lat="44.56502" lon="4.10448">
        <ele>509.16</ele>
        <time>2017-06-04T12:53:22Z</time>
      </trkpt>
      <trkpt lat="44.56501" lon="4.10441">
        <ele>509.16</ele>
        <time>2017-06-04T12:53:37Z</time>
      </trkpt>
      <trkpt lat="44.56496" lon="4.10432">
        <ele>509.64</ele>
        <time>2017-06-04T12:53:50Z</time>
      </trkpt>
      <trkpt lat="44.56501" lon="4.1043">
        <ele>509.64</ele>
        <time>2017-06-04T12:54:07Z</time>
      </trkpt>
      <trkpt lat="44.5649" lon="4.10428">
        <ele>508.67</ele>
        <time>2017-06-04T12:54:19Z</time>
      </trkpt>
      <trkpt lat="44.5648" lon="4.10416">
        <ele>509.16</ele>
        <time>2017-06-04T12:54:32Z</time>
      </trkpt>
      <trkpt lat="44.56471" lon="4.1041">
        <ele>508.67</ele>
        <time>2017-06-04T12:54:47Z</time>
      </trkpt>
      <trkpt lat="44.56471" lon="4.10412">
        <ele>508.67</ele>
        <time>2017-06-04T12:55:06Z</time>
      </trkpt>
      <trkpt lat="44.56463" lon="4.10404">
        <ele>508.19</ele>
        <time>2017-06-04T12:55:26Z</time>
      </trkpt>
      <trkpt lat="44.56458" lon="4.10393">
        <ele>508.67</ele>
        <time>2017-06-04T12:55:38Z</time>
      </trkpt>
      <trkpt lat="44.56461" lon="4.10384">
        <ele>508.67</ele>
        <time>2017-06-04T12:55:52Z</time>
      </trkpt>
      <trkpt lat="44.56466" lon="4.10375">
        <ele>509.64</ele>
        <time>2017-06-04T12:56:00Z</time>
      </trkpt>
      <trkpt lat="44.56467" lon="4.10366">
        <ele>510.6</ele>
        <time>2017-06-04T12:56:11Z</time>
      </trkpt>
      <trkpt lat="44.56466" lon="4.10366">
        <ele>509.64</ele>
        <time>2017-06-04T12:56:32Z</time>
      </trkpt>
      <trkpt lat="44.56466" lon="4.10366">
        <ele>510.12</ele>
        <time>2017-06-04T12:56:54Z</time>
      </trkpt>
      <trkpt lat="44.56463" lon="4.10372">
        <ele>509.16</ele>
        <time>2017-06-04T12:57:14Z</time>
      </trkpt>
      <trkpt lat="44.56458" lon="4.10376">
        <ele>509.16</ele>
        <time>2017-06-04T12:57:37Z</time>
      </trkpt>
      <trkpt lat="44.56453" lon="4.10378">
        <ele>509.16</ele>
        <time>2017-06-04T12:58:01Z</time>
      </trkpt>
      <trkpt lat="44.56445" lon="4.10378">
        <ele>508.67</ele>
        <time>2017-06-04T12:58:16Z</time>
      </trkpt>
      <trkpt lat="44.56443" lon="4.10376">
        <ele>508.19</ele>
        <time>2017-06-04T12:58:32Z</time>
      </trkpt>
      <trkpt lat="44.56443" lon="4.10371">
        <ele>508.67</ele>
        <time>2017-06-04T12:58:48Z</time>
      </trkpt>
      <trkpt lat="44.56442" lon="4.10358">
        <ele>508.19</ele>
        <time>2017-06-04T12:59:01Z</time>
      </trkpt>
      <trkpt lat="44.56442" lon="4.10357">
        <ele>508.19</ele>
        <time>2017-06-04T12:59:22Z</time>
      </trkpt>
      <trkpt lat="44.56443" lon="4.10356">
        <ele>508.67</ele>
        <time>2017-06-04T12:59:47Z</time>
      </trkpt>
      <trkpt lat="44.56443" lon="4.10351">
        <ele>507.23</ele>
        <time>2017-06-04T13:00:02Z</time>
      </trkpt>
      <trkpt lat="44.56443" lon="4.10351">
        <ele>507.23</ele>
        <time>2017-06-04T13:00:22Z</time>
      </trkpt>
      <trkpt lat="44.56439" lon="4.10352">
        <ele>507.71</ele>
        <time>2017-06-04T13:00:31Z</time>
      </trkpt>
      <trkpt lat="44.56439" lon="4.10352">
        <ele>505.79</ele>
        <time>2017-06-04T13:00:32Z</time>
      </trkpt>
      <trkpt lat="44.56438" lon="4.10352">
        <ele>507.23</ele>
        <time>2017-06-04T13:00:33Z</time>
      </trkpt>
      <trkpt lat="44.56436" lon="4.10352">
        <ele>507.71</ele>
        <time>2017-06-04T13:00:36Z</time>
      </trkpt>
      <trkpt lat="44.56435" lon="4.10351">
        <ele>505.31</ele>
        <time>2017-06-04T13:00:41Z</time>
      </trkpt>
      <trkpt lat="44.56435" lon="4.10352">
        <ele>508.19</ele>
        <time>2017-06-04T13:00:49Z</time>
      </trkpt>
      <trkpt lat="44.56435" lon="4.10352">
        <ele>506.75</ele>
        <time>2017-06-04T13:00:50Z</time>
      </trkpt>
      <trkpt lat="44.56435" lon="4.10353">
        <ele>505.31</ele>
        <time>2017-06-04T13:00:52Z</time>
      </trkpt>
      <trkpt lat="44.56431" lon="4.10355">
        <ele>505.79</ele>
        <time>2017-06-04T13:01:11Z</time>
      </trkpt>
      <trkpt lat="44.56428" lon="4.10357">
        <ele>505.31</ele>
        <time>2017-06-04T13:01:14Z</time>
      </trkpt>
      <trkpt lat="44.56424" lon="4.10361">
        <ele>504.83</ele>
        <time>2017-06-04T13:01:28Z</time>
      </trkpt>
      <trkpt lat="44.56425" lon="4.10354">
        <ele>504.35</ele>
        <time>2017-06-04T13:01:43Z</time>
      </trkpt>
      <trkpt lat="44.56422" lon="4.10348">
        <ele>504.35</ele>
        <time>2017-06-04T13:01:50Z</time>
      </trkpt>
      <trkpt lat="44.56416" lon="4.10344">
        <ele>504.83</ele>
        <time>2017-06-04T13:02:03Z</time>
      </trkpt>
      <trkpt lat="44.56414" lon="4.10344">
        <ele>503.87</ele>
        <time>2017-06-04T13:02:24Z</time>
      </trkpt>
      <trkpt lat="44.56411" lon="4.10347">
        <ele>503.87</ele>
        <time>2017-06-04T13:02:36Z</time>
      </trkpt>
      <trkpt lat="44.56409" lon="4.10345">
        <ele>504.35</ele>
        <time>2017-06-04T13:03:09Z</time>
      </trkpt>
      <trkpt lat="44.5641" lon="4.10346">
        <ele>503.87</ele>
        <time>2017-06-04T13:03:34Z</time>
      </trkpt>
      <trkpt lat="44.5641" lon="4.10345">
        <ele>503.87</ele>
        <time>2017-06-04T13:03:50Z</time>
      </trkpt>
      <trkpt lat="44.56411" lon="4.10344">
        <ele>503.39</ele>
        <time>2017-06-04T13:04:15Z</time>
      </trkpt>
      <trkpt lat="44.56411" lon="4.10343">
        <ele>503.39</ele>
        <time>2017-06-04T13:04:45Z</time>
      </trkpt>
      <trkpt lat="44.56411" lon="4.10344">
        <ele>503.87</ele>
        <time>2017-06-04T13:05:12Z</time>
      </trkpt>
      <trkpt lat="44.56409" lon="4.10344">
        <ele>503.87</ele>
        <time>2017-06-04T13:05:25Z</time>
      </trkpt>
      <trkpt lat="44.56409" lon="4.10344">
        <ele>504.83</ele>
        <time>2017-06-04T13:05:43Z</time>
      </trkpt>
      <trkpt lat="44.5641" lon="4.10343">
        <ele>503.87</ele>
        <time>2017-06-04T13:05:55Z</time>
      </trkpt>
      <trkpt lat="44.5641" lon="4.10342">
        <ele>504.35</ele>
        <time>2017-06-04T13:06:26Z</time>
      </trkpt>
      <trkpt lat="44.5641" lon="4.10341">
        <ele>503.87</ele>
        <time>2017-06-04T13:06:48Z</time>
      </trkpt>
      <trkpt lat="44.5641" lon="4.10341">
        <ele>500.98</ele>
        <time>2017-06-04T13:06:50Z</time>
      </trkpt>
      <trkpt lat="44.5641" lon="4.10341">
        <ele>502.43</ele>
        <time>2017-06-04T13:06:51Z</time>
      </trkpt>
      <trkpt lat="44.5641" lon="4.10341">
        <ele>503.39</ele>
        <time>2017-06-04T13:06:53Z</time>
      </trkpt>
      <trkpt lat="44.5641" lon="4.10341">
        <ele>503.39</ele>
        <time>2017-06-04T13:07:00Z</time>
      </trkpt>
      <trkpt lat="44.56411" lon="4.1034">
        <ele>503.87</ele>
        <time>2017-06-04T13:07:06Z</time>
      </trkpt>
      <trkpt lat="44.56416" lon="4.10343">
        <ele>504.35</ele>
        <time>2017-06-04T13:07:15Z</time>
      </trkpt>
      <trkpt lat="44.56417" lon="4.10334">
        <ele>503.39</ele>
        <time>2017-06-04T13:07:26Z</time>
      </trkpt>
      <trkpt lat="44.56405" lon="4.10331">
        <ele>501.46</ele>
        <time>2017-06-04T13:07:39Z</time>
      </trkpt>
      <trkpt lat="44.56403" lon="4.10331">
        <ele>501.46</ele>
        <time>2017-06-04T13:07:41Z</time>
      </trkpt>
      <trkpt lat="44.564" lon="4.10331">
        <ele>501.46</ele>
        <time>2017-06-04T13:07:44Z</time>
      </trkpt>
      <trkpt lat="44.56387" lon="4.1033">
        <ele>500.5</ele>
        <time>2017-06-04T13:07:56Z</time>
      </trkpt>
      <trkpt lat="44.5638" lon="4.10327">
        <ele>499.06</ele>
        <time>2017-06-04T13:08:05Z</time>
      </trkpt>
      <trkpt lat="44.56375" lon="4.10326">
        <ele>499.54</ele>
        <time>2017-06-04T13:08:10Z</time>
      </trkpt>
      <trkpt lat="44.56367" lon="4.10323">
        <ele>498.58</ele>
        <time>2017-06-04T13:08:19Z</time>
      </trkpt>
      <trkpt lat="44.56362" lon="4.10318">
        <ele>498.1</ele>
        <time>2017-06-04T13:08:28Z</time>
      </trkpt>
      <trkpt lat="44.56357" lon="4.10317">
        <ele>498.1</ele>
        <time>2017-06-04T13:08:32Z</time>
      </trkpt>
      <trkpt lat="44.56351" lon="4.10313">
        <ele>498.1</ele>
        <time>2017-06-04T13:08:39Z</time>
      </trkpt>
      <trkpt lat="44.56346" lon="4.10313">
        <ele>497.62</ele>
        <time>2017-06-04T13:08:50Z</time>
      </trkpt>
      <trkpt lat="44.56343" lon="4.10311">
        <ele>497.62</ele>
        <time>2017-06-04T13:09:06Z</time>
      </trkpt>
      <trkpt lat="44.56342" lon="4.10311">
        <ele>497.14</ele>
        <time>2017-06-04T13:09:19Z</time>
      </trkpt>
      <trkpt lat="44.56344" lon="4.10312">
        <ele>498.1</ele>
        <time>2017-06-04T13:09:26Z</time>
      </trkpt>
      <trkpt lat="44.56341" lon="4.1031">
        <ele>497.14</ele>
        <time>2017-06-04T13:09:42Z</time>
      </trkpt>
      <trkpt lat="44.56341" lon="4.1031">
        <ele>497.14</ele>
        <time>2017-06-04T13:10:16Z</time>
      </trkpt>
      <trkpt lat="44.5634" lon="4.1031">
        <ele>497.62</ele>
        <time>2017-06-04T13:10:38Z</time>
      </trkpt>
      <trkpt lat="44.5634" lon="4.10309">
        <ele>498.1</ele>
        <time>2017-06-04T13:10:52Z</time>
      </trkpt>
      <trkpt lat="44.56343" lon="4.10306">
        <ele>498.1</ele>
        <time>2017-06-04T13:11:10Z</time>
      </trkpt>
      <trkpt lat="44.56342" lon="4.1031">
        <ele>497.62</ele>
        <time>2017-06-04T13:11:22Z</time>
      </trkpt>
      <trkpt lat="44.56341" lon="4.10309">
        <ele>498.1</ele>
        <time>2017-06-04T13:11:23Z</time>
      </trkpt>
      <trkpt lat="44.56334" lon="4.10304">
        <ele>498.1</ele>
        <time>2017-06-04T13:11:31Z</time>
      </trkpt>
      <trkpt lat="44.56332" lon="4.10303">
        <ele>498.1</ele>
        <time>2017-06-04T13:11:36Z</time>
      </trkpt>
      <trkpt lat="44.56328" lon="4.10303">
        <ele>498.1</ele>
        <time>2017-06-04T13:11:44Z</time>
      </trkpt>
      <trkpt lat="44.56322" lon="4.10299">
        <ele>498.1</ele>
        <time>2017-06-04T13:11:51Z</time>
      </trkpt>
      <trkpt lat="44.56313" lon="4.10295">
        <ele>498.1</ele>
        <time>2017-06-04T13:12:03Z</time>
      </trkpt>
      <trkpt lat="44.56306" lon="4.10296">
        <ele>498.1</ele>
        <time>2017-06-04T13:12:10Z</time>
      </trkpt>
      <trkpt lat="44.56298" lon="4.10302">
        <ele>497.62</ele>
        <time>2017-06-04T13:12:23Z</time>
      </trkpt>
      <trkpt lat="44.56296" lon="4.10303">
        <ele>497.62</ele>
        <time>2017-06-04T13:12:26Z</time>
      </trkpt>
      <trkpt lat="44.56286" lon="4.10311">
        <ele>497.62</ele>
        <time>2017-06-04T13:12:41Z</time>
      </trkpt>
      <trkpt lat="44.56287" lon="4.10311">
        <ele>498.1</ele>
        <time>2017-06-04T13:12:53Z</time>
      </trkpt>
      <trkpt lat="44.56285" lon="4.1031">
        <ele>498.1</ele>
        <time>2017-06-04T13:13:05Z</time>
      </trkpt>
      <trkpt lat="44.56284" lon="4.10312">
        <ele>497.14</ele>
        <time>2017-06-04T13:13:31Z</time>
      </trkpt>
      <trkpt lat="44.56281" lon="4.10317">
        <ele>497.62</ele>
        <time>2017-06-04T13:13:42Z</time>
      </trkpt>
      <trkpt lat="44.56279" lon="4.10319">
        <ele>497.62</ele>
        <time>2017-06-04T13:13:46Z</time>
      </trkpt>
      <trkpt lat="44.56283" lon="4.1032">
        <ele>497.62</ele>
        <time>2017-06-04T13:13:58Z</time>
      </trkpt>
      <trkpt lat="44.56282" lon="4.1032">
        <ele>498.1</ele>
        <time>2017-06-04T13:14:08Z</time>
      </trkpt>
      <trkpt lat="44.56278" lon="4.10324">
        <ele>497.62</ele>
        <time>2017-06-04T13:14:12Z</time>
      </trkpt>
      <trkpt lat="44.56276" lon="4.10326">
        <ele>497.62</ele>
        <time>2017-06-04T13:14:15Z</time>
      </trkpt>
      <trkpt lat="44.56273" lon="4.10329">
        <ele>497.62</ele>
        <time>2017-06-04T13:14:20Z</time>
      </trkpt>
      <trkpt lat="44.56271" lon="4.10331">
        <ele>498.1</ele>
        <time>2017-06-04T13:14:22Z</time>
      </trkpt>
      <trkpt lat="44.56267" lon="4.10333">
        <ele>498.1</ele>
        <time>2017-06-04T13:14:25Z</time>
      </trkpt>
      <trkpt lat="44.56259" lon="4.10346">
        <ele>498.1</ele>
        <time>2017-06-04T13:14:37Z</time>
      </trkpt>
      <trkpt lat="44.5626" lon="4.10352">
        <ele>498.58</ele>
        <time>2017-06-04T13:14:42Z</time>
      </trkpt>
      <trkpt lat="44.56258" lon="4.10357">
        <ele>499.06</ele>
        <time>2017-06-04T13:14:47Z</time>
      </trkpt>
      <trkpt lat="44.56253" lon="4.1036">
        <ele>499.06</ele>
        <time>2017-06-04T13:14:51Z</time>
      </trkpt>
      <trkpt lat="44.56246" lon="4.10374">
        <ele>499.54</ele>
        <time>2017-06-04T13:15:02Z</time>
      </trkpt>
      <trkpt lat="44.5624" lon="4.10388">
        <ele>500.02</ele>
        <time>2017-06-04T13:15:14Z</time>
      </trkpt>
      <trkpt lat="44.56237" lon="4.10399">
        <ele>500.02</ele>
        <time>2017-06-04T13:15:23Z</time>
      </trkpt>
      <trkpt lat="44.56236" lon="4.104">
        <ele>500.02</ele>
        <time>2017-06-04T13:15:24Z</time>
      </trkpt>
      <trkpt lat="44.56233" lon="4.10406">
        <ele>500.02</ele>
        <time>2017-06-04T13:15:30Z</time>
      </trkpt>
      <trkpt lat="44.56226" lon="4.10412">
        <ele>500.98</ele>
        <time>2017-06-04T13:15:41Z</time>
      </trkpt>
      <trkpt lat="44.56222" lon="4.10417">
        <ele>500.98</ele>
        <time>2017-06-04T13:15:48Z</time>
      </trkpt>
      <trkpt lat="44.56218" lon="4.10421">
        <ele>500.98</ele>
        <time>2017-06-04T13:15:53Z</time>
      </trkpt>
      <trkpt lat="44.56213" lon="4.10423">
        <ele>501.46</ele>
        <time>2017-06-04T13:15:59Z</time>
      </trkpt>
      <trkpt lat="44.5621" lon="4.10425">
        <ele>501.46</ele>
        <time>2017-06-04T13:16:02Z</time>
      </trkpt>
      <trkpt lat="44.56207" lon="4.10429">
        <ele>501.46</ele>
        <time>2017-06-04T13:16:05Z</time>
      </trkpt>
      <trkpt lat="44.56192" lon="4.10441">
        <ele>501.46</ele>
        <time>2017-06-04T13:16:19Z</time>
      </trkpt>
      <trkpt lat="44.56188" lon="4.10449">
        <ele>501.95</ele>
        <time>2017-06-04T13:16:26Z</time>
      </trkpt>
      <trkpt lat="44.56187" lon="4.10454">
        <ele>501.95</ele>
        <time>2017-06-04T13:16:29Z</time>
      </trkpt>
      <trkpt lat="44.56185" lon="4.10466">
        <ele>501.95</ele>
        <time>2017-06-04T13:16:36Z</time>
      </trkpt>
      <trkpt lat="44.56175" lon="4.10481">
        <ele>502.43</ele>
        <time>2017-06-04T13:16:47Z</time>
      </trkpt>
      <trkpt lat="44.56173" lon="4.10485">
        <ele>502.43</ele>
        <time>2017-06-04T13:16:52Z</time>
      </trkpt>
      <trkpt lat="44.56172" lon="4.10487">
        <ele>502.43</ele>
        <time>2017-06-04T13:16:54Z</time>
      </trkpt>
      <trkpt lat="44.56165" lon="4.10497">
        <ele>502.91</ele>
        <time>2017-06-04T13:17:05Z</time>
      </trkpt>
      <trkpt lat="44.56162" lon="4.105">
        <ele>503.39</ele>
        <time>2017-06-04T13:17:08Z</time>
      </trkpt>
      <trkpt lat="44.56148" lon="4.10515">
        <ele>503.87</ele>
        <time>2017-06-04T13:17:22Z</time>
      </trkpt>
      <trkpt lat="44.56148" lon="4.10517">
        <ele>503.87</ele>
        <time>2017-06-04T13:17:28Z</time>
      </trkpt>
      <trkpt lat="44.56144" lon="4.10525">
        <ele>504.35</ele>
        <time>2017-06-04T13:17:35Z</time>
      </trkpt>
      <trkpt lat="44.56141" lon="4.10529">
        <ele>504.35</ele>
        <time>2017-06-04T13:17:39Z</time>
      </trkpt>
      <trkpt lat="44.56131" lon="4.10541">
        <ele>504.83</ele>
        <time>2017-06-04T13:17:51Z</time>
      </trkpt>
      <trkpt lat="44.5612" lon="4.10554">
        <ele>505.31</ele>
        <time>2017-06-04T13:18:02Z</time>
      </trkpt>
      <trkpt lat="44.56112" lon="4.10563">
        <ele>505.31</ele>
        <time>2017-06-04T13:18:13Z</time>
      </trkpt>
      <trkpt lat="44.56112" lon="4.10565">
        <ele>505.31</ele>
        <time>2017-06-04T13:18:14Z</time>
      </trkpt>
      <trkpt lat="44.56105" lon="4.10582">
        <ele>505.31</ele>
        <time>2017-06-04T13:18:26Z</time>
      </trkpt>
      <trkpt lat="44.56106" lon="4.10591">
        <ele>505.79</ele>
        <time>2017-06-04T13:18:33Z</time>
      </trkpt>
      <trkpt lat="44.56108" lon="4.10604">
        <ele>505.79</ele>
        <time>2017-06-04T13:18:43Z</time>
      </trkpt>
      <trkpt lat="44.5611" lon="4.10606">
        <ele>505.79</ele>
        <time>2017-06-04T13:18:45Z</time>
      </trkpt>
      <trkpt lat="44.56109" lon="4.10614">
        <ele>506.27</ele>
        <time>2017-06-04T13:18:51Z</time>
      </trkpt>
      <trkpt lat="44.5611" lon="4.1062">
        <ele>506.27</ele>
        <time>2017-06-04T13:18:55Z</time>
      </trkpt>
      <trkpt lat="44.56111" lon="4.10625">
        <ele>506.27</ele>
        <time>2017-06-04T13:18:58Z</time>
      </trkpt>
      <trkpt lat="44.56109" lon="4.10639">
        <ele>506.75</ele>
        <time>2017-06-04T13:19:09Z</time>
      </trkpt>
      <trkpt lat="44.56106" lon="4.1065">
        <ele>507.71</ele>
        <time>2017-06-04T13:19:19Z</time>
      </trkpt>
      <trkpt lat="44.56103" lon="4.10658">
        <ele>508.67</ele>
        <time>2017-06-04T13:19:26Z</time>
      </trkpt>
      <trkpt lat="44.56098" lon="4.10667">
        <ele>509.64</ele>
        <time>2017-06-04T13:19:38Z</time>
      </trkpt>
      <trkpt lat="44.56093" lon="4.10676">
        <ele>510.6</ele>
        <time>2017-06-04T13:19:47Z</time>
      </trkpt>
      <trkpt lat="44.56089" lon="4.10683">
        <ele>512.04</ele>
        <time>2017-06-04T13:19:59Z</time>
      </trkpt>
      <trkpt lat="44.56084" lon="4.10687">
        <ele>512.52</ele>
        <time>2017-06-04T13:20:04Z</time>
      </trkpt>
      <trkpt lat="44.56081" lon="4.10697">
        <ele>513.96</ele>
        <time>2017-06-04T13:20:15Z</time>
      </trkpt>
      <trkpt lat="44.5608" lon="4.10698">
        <ele>513.96</ele>
        <time>2017-06-04T13:20:18Z</time>
      </trkpt>
      <trkpt lat="44.56077" lon="4.10704">
        <ele>515.4</ele>
        <time>2017-06-04T13:20:25Z</time>
      </trkpt>
      <trkpt lat="44.56075" lon="4.10707">
        <ele>515.88</ele>
        <time>2017-06-04T13:20:29Z</time>
      </trkpt>
      <trkpt lat="44.56069" lon="4.10713">
        <ele>516.37</ele>
        <time>2017-06-04T13:20:39Z</time>
      </trkpt>
      <trkpt lat="44.56068" lon="4.10715">
        <ele>516.85</ele>
        <time>2017-06-04T13:20:41Z</time>
      </trkpt>
      <trkpt lat="44.56067" lon="4.10722">
        <ele>517.81</ele>
        <time>2017-06-04T13:20:52Z</time>
      </trkpt>
      <trkpt lat="44.56063" lon="4.10726">
        <ele>518.29</ele>
        <time>2017-06-04T13:20:56Z</time>
      </trkpt>
      <trkpt lat="44.56057" lon="4.10735">
        <ele>518.29</ele>
        <time>2017-06-04T13:21:02Z</time>
      </trkpt>
      <trkpt lat="44.5605" lon="4.10748">
        <ele>519.25</ele>
        <time>2017-06-04T13:21:12Z</time>
      </trkpt>
      <trkpt lat="44.56048" lon="4.10752">
        <ele>519.25</ele>
        <time>2017-06-04T13:21:16Z</time>
      </trkpt>
      <trkpt lat="44.56038" lon="4.10761">
        <ele>520.69</ele>
        <time>2017-06-04T13:21:28Z</time>
      </trkpt>
      <trkpt lat="44.56036" lon="4.1077">
        <ele>520.21</ele>
        <time>2017-06-04T13:21:38Z</time>
      </trkpt>
      <trkpt lat="44.56033" lon="4.10776">
        <ele>520.21</ele>
        <time>2017-06-04T13:21:39Z</time>
      </trkpt>
      <trkpt lat="44.56029" lon="4.10792">
        <ele>520.21</ele>
        <time>2017-06-04T13:21:48Z</time>
      </trkpt>
      <trkpt lat="44.56027" lon="4.10799">
        <ele>520.21</ele>
        <time>2017-06-04T13:21:54Z</time>
      </trkpt>
      <trkpt lat="44.56026" lon="4.10811">
        <ele>521.17</ele>
        <time>2017-06-04T13:22:04Z</time>
      </trkpt>
      <trkpt lat="44.56027" lon="4.10818">
        <ele>521.65</ele>
        <time>2017-06-04T13:22:09Z</time>
      </trkpt>
      <trkpt lat="44.56024" lon="4.10822">
        <ele>522.13</ele>
        <time>2017-06-04T13:22:12Z</time>
      </trkpt>
      <trkpt lat="44.56022" lon="4.10825">
        <ele>522.13</ele>
        <time>2017-06-04T13:22:15Z</time>
      </trkpt>
      <trkpt lat="44.56021" lon="4.1083">
        <ele>522.13</ele>
        <time>2017-06-04T13:22:19Z</time>
      </trkpt>
      <trkpt lat="44.56015" lon="4.10844">
        <ele>523.09</ele>
        <time>2017-06-04T13:22:29Z</time>
      </trkpt>
      <trkpt lat="44.56011" lon="4.10848">
        <ele>523.09</ele>
        <time>2017-06-04T13:22:33Z</time>
      </trkpt>
      <trkpt lat="44.56006" lon="4.10853">
        <ele>523.58</ele>
        <time>2017-06-04T13:22:37Z</time>
      </trkpt>
      <trkpt lat="44.56002" lon="4.10856">
        <ele>524.54</ele>
        <time>2017-06-04T13:22:42Z</time>
      </trkpt>
      <trkpt lat="44.56001" lon="4.10864">
        <ele>525.5</ele>
        <time>2017-06-04T13:22:49Z</time>
      </trkpt>
      <trkpt lat="44.55998" lon="4.10868">
        <ele>525.5</ele>
        <time>2017-06-04T13:22:54Z</time>
      </trkpt>
      <trkpt lat="44.55997" lon="4.10881">
        <ele>526.94</ele>
        <time>2017-06-04T13:23:05Z</time>
      </trkpt>
      <trkpt lat="44.55997" lon="4.10883">
        <ele>526.94</ele>
        <time>2017-06-04T13:23:07Z</time>
      </trkpt>
      <trkpt lat="44.55996" lon="4.10885">
        <ele>527.42</ele>
        <time>2017-06-04T13:23:09Z</time>
      </trkpt>
      <trkpt lat="44.5599" lon="4.10889">
        <ele>527.9</ele>
        <time>2017-06-04T13:23:16Z</time>
      </trkpt>
      <trkpt lat="44.55989" lon="4.10891">
        <ele>527.9</ele>
        <time>2017-06-04T13:23:18Z</time>
      </trkpt>
      <trkpt lat="44.55988" lon="4.109">
        <ele>528.86</ele>
        <time>2017-06-04T13:23:27Z</time>
      </trkpt>
      <trkpt lat="44.55989" lon="4.10907">
        <ele>529.82</ele>
        <time>2017-06-04T13:23:32Z</time>
      </trkpt>
      <trkpt lat="44.55989" lon="4.10911">
        <ele>529.82</ele>
        <time>2017-06-04T13:23:35Z</time>
      </trkpt>
      <trkpt lat="44.55989" lon="4.1092">
        <ele>530.3</ele>
        <time>2017-06-04T13:23:42Z</time>
      </trkpt>
      <trkpt lat="44.55987" lon="4.10925">
        <ele>531.27</ele>
        <time>2017-06-04T13:23:47Z</time>
      </trkpt>
      <trkpt lat="44.55985" lon="4.10932">
        <ele>532.23</ele>
        <time>2017-06-04T13:23:54Z</time>
      </trkpt>
      <trkpt lat="44.55983" lon="4.10935">
        <ele>532.23</ele>
        <time>2017-06-04T13:23:57Z</time>
      </trkpt>
      <trkpt lat="44.55978" lon="4.10945">
        <ele>533.67</ele>
        <time>2017-06-04T13:24:07Z</time>
      </trkpt>
      <trkpt lat="44.55974" lon="4.10949">
        <ele>534.15</ele>
        <time>2017-06-04T13:24:10Z</time>
      </trkpt>
      <trkpt lat="44.55969" lon="4.10953">
        <ele>534.63</ele>
        <time>2017-06-04T13:24:14Z</time>
      </trkpt>
      <trkpt lat="44.5596" lon="4.10962">
        <ele>535.59</ele>
        <time>2017-06-04T13:24:26Z</time>
      </trkpt>
      <trkpt lat="44.55955" lon="4.10969">
        <ele>537.03</ele>
        <time>2017-06-04T13:24:39Z</time>
      </trkpt>
      <trkpt lat="44.55954" lon="4.10969">
        <ele>537.03</ele>
        <time>2017-06-04T13:24:40Z</time>
      </trkpt>
      <trkpt lat="44.55952" lon="4.1097">
        <ele>537.51</ele>
        <time>2017-06-04T13:24:42Z</time>
      </trkpt>
      <trkpt lat="44.55944" lon="4.10975">
        <ele>538.48</ele>
        <time>2017-06-04T13:24:53Z</time>
      </trkpt>
      <trkpt lat="44.55937" lon="4.10982">
        <ele>539.92</ele>
        <time>2017-06-04T13:25:03Z</time>
      </trkpt>
      <trkpt lat="44.55932" lon="4.10987">
        <ele>539.92</ele>
        <time>2017-06-04T13:25:07Z</time>
      </trkpt>
      <trkpt lat="44.5593" lon="4.10991">
        <ele>540.4</ele>
        <time>2017-06-04T13:25:11Z</time>
      </trkpt>
      <trkpt lat="44.55926" lon="4.10993">
        <ele>540.4</ele>
        <time>2017-06-04T13:25:14Z</time>
      </trkpt>
      <trkpt lat="44.55922" lon="4.11001">
        <ele>541.36</ele>
        <time>2017-06-04T13:25:22Z</time>
      </trkpt>
      <trkpt lat="44.55919" lon="4.11003">
        <ele>542.32</ele>
        <time>2017-06-04T13:25:27Z</time>
      </trkpt>
      <trkpt lat="44.55916" lon="4.11004">
        <ele>542.8</ele>
        <time>2017-06-04T13:25:30Z</time>
      </trkpt>
      <trkpt lat="44.55916" lon="4.11005">
        <ele>542.8</ele>
        <time>2017-06-04T13:25:32Z</time>
      </trkpt>
      <trkpt lat="44.55914" lon="4.11006">
        <ele>543.28</ele>
        <time>2017-06-04T13:25:34Z</time>
      </trkpt>
      <trkpt lat="44.55903" lon="4.11014">
        <ele>544.24</ele>
        <time>2017-06-04T13:25:45Z</time>
      </trkpt>
      <trkpt lat="44.55903" lon="4.11015">
        <ele>544.72</ele>
        <time>2017-06-04T13:25:47Z</time>
      </trkpt>
      <trkpt lat="44.55898" lon="4.11016">
        <ele>545.2</ele>
        <time>2017-06-04T13:25:57Z</time>
      </trkpt>
      <trkpt lat="44.55897" lon="4.11016">
        <ele>545.69</ele>
        <time>2017-06-04T13:26:00Z</time>
      </trkpt>
      <trkpt lat="44.55895" lon="4.11019">
        <ele>545.69</ele>
        <time>2017-06-04T13:26:03Z</time>
      </trkpt>
      <trkpt lat="44.55883" lon="4.11019">
        <ele>547.13</ele>
        <time>2017-06-04T13:26:15Z</time>
      </trkpt>
      <trkpt lat="44.5588" lon="4.11018">
        <ele>547.13</ele>
        <time>2017-06-04T13:26:29Z</time>
      </trkpt>
      <trkpt lat="44.55876" lon="4.11019">
        <ele>547.61</ele>
        <time>2017-06-04T13:26:44Z</time>
      </trkpt>
      <trkpt lat="44.55876" lon="4.1102">
        <ele>547.61</ele>
        <time>2017-06-04T13:26:45Z</time>
      </trkpt>
      <trkpt lat="44.55863" lon="4.11024">
        <ele>549.05</ele>
        <time>2017-06-04T13:26:58Z</time>
      </trkpt>
      <trkpt lat="44.5586" lon="4.11023">
        <ele>550.01</ele>
        <time>2017-06-04T13:27:05Z</time>
      </trkpt>
      <trkpt lat="44.55848" lon="4.11021">
        <ele>551.45</ele>
        <time>2017-06-04T13:27:18Z</time>
      </trkpt>
      <trkpt lat="44.55848" lon="4.11021">
        <ele>551.45</ele>
        <time>2017-06-04T13:27:19Z</time>
      </trkpt>
      <trkpt lat="44.55839" lon="4.1102">
        <ele>552.9</ele>
        <time>2017-06-04T13:27:28Z</time>
      </trkpt>
      <trkpt lat="44.5583" lon="4.11016">
        <ele>554.34</ele>
        <time>2017-06-04T13:27:41Z</time>
      </trkpt>
      <trkpt lat="44.5583" lon="4.11016">
        <ele>554.34</ele>
        <time>2017-06-04T13:27:42Z</time>
      </trkpt>
      <trkpt lat="44.55823" lon="4.11015">
        <ele>555.3</ele>
        <time>2017-06-04T13:27:52Z</time>
      </trkpt>
      <trkpt lat="44.55823" lon="4.11013">
        <ele>555.78</ele>
        <time>2017-06-04T13:27:54Z</time>
      </trkpt>
      <trkpt lat="44.55816" lon="4.11012">
        <ele>556.26</ele>
        <time>2017-06-04T13:28:04Z</time>
      </trkpt>
      <trkpt lat="44.5581" lon="4.11011">
        <ele>557.7</ele>
        <time>2017-06-04T13:28:15Z</time>
      </trkpt>
      <trkpt lat="44.55798" lon="4.11007">
        <ele>557.7</ele>
        <time>2017-06-04T13:28:29Z</time>
      </trkpt>
      <trkpt lat="44.55786" lon="4.11005">
        <ele>557.7</ele>
        <time>2017-06-04T13:28:41Z</time>
      </trkpt>
      <trkpt lat="44.55777" lon="4.11003">
        <ele>557.7</ele>
        <time>2017-06-04T13:28:49Z</time>
      </trkpt>
      <trkpt lat="44.55767" lon="4.11004">
        <ele>559.14</ele>
        <time>2017-06-04T13:29:00Z</time>
      </trkpt>
      <trkpt lat="44.55762" lon="4.11014">
        <ele>559.14</ele>
        <time>2017-06-04T13:29:12Z</time>
      </trkpt>
      <trkpt lat="44.55761" lon="4.1102">
        <ele>560.11</ele>
        <time>2017-06-04T13:29:20Z</time>
      </trkpt>
      <trkpt lat="44.55758" lon="4.11023">
        <ele>560.59</ele>
        <time>2017-06-04T13:29:23Z</time>
      </trkpt>
      <trkpt lat="44.55754" lon="4.11032">
        <ele>560.59</ele>
        <time>2017-06-04T13:29:33Z</time>
      </trkpt>
      <trkpt lat="44.55752" lon="4.11037">
        <ele>560.59</ele>
        <time>2017-06-04T13:29:36Z</time>
      </trkpt>
      <trkpt lat="44.5575" lon="4.11047">
        <ele>561.07</ele>
        <time>2017-06-04T13:29:44Z</time>
      </trkpt>
      <trkpt lat="44.55744" lon="4.11054">
        <ele>562.03</ele>
        <time>2017-06-04T13:29:57Z</time>
      </trkpt>
      <trkpt lat="44.55744" lon="4.11056">
        <ele>562.03</ele>
        <time>2017-06-04T13:30:22Z</time>
      </trkpt>
      <trkpt lat="44.55738" lon="4.11065">
        <ele>563.95</ele>
        <time>2017-06-04T13:30:33Z</time>
      </trkpt>
      <trkpt lat="44.55735" lon="4.11074">
        <ele>564.43</ele>
        <time>2017-06-04T13:30:42Z</time>
      </trkpt>
      <trkpt lat="44.55734" lon="4.11078">
        <ele>564.43</ele>
        <time>2017-06-04T13:30:46Z</time>
      </trkpt>
      <trkpt lat="44.55733" lon="4.11083">
        <ele>565.87</ele>
        <time>2017-06-04T13:30:58Z</time>
      </trkpt>
      <trkpt lat="44.55732" lon="4.11089">
        <ele>566.35</ele>
        <time>2017-06-04T13:31:06Z</time>
      </trkpt>
      <trkpt lat="44.55728" lon="4.11093">
        <ele>566.35</ele>
        <time>2017-06-04T13:31:13Z</time>
      </trkpt>
      <trkpt lat="44.55725" lon="4.11095">
        <ele>566.83</ele>
        <time>2017-06-04T13:31:16Z</time>
      </trkpt>
      <trkpt lat="44.5572" lon="4.111">
        <ele>568.28</ele>
        <time>2017-06-04T13:31:27Z</time>
      </trkpt>
      <trkpt lat="44.55719" lon="4.111">
        <ele>568.28</ele>
        <time>2017-06-04T13:31:43Z</time>
      </trkpt>
      <trkpt lat="44.55719" lon="4.111">
        <ele>569.24</ele>
        <time>2017-06-04T13:32:03Z</time>
      </trkpt>
      <trkpt lat="44.55718" lon="4.11104">
        <ele>570.68</ele>
        <time>2017-06-04T13:32:14Z</time>
      </trkpt>
      <trkpt lat="44.55714" lon="4.11108">
        <ele>571.64</ele>
        <time>2017-06-04T13:32:23Z</time>
      </trkpt>
      <trkpt lat="44.55709" lon="4.11114">
        <ele>572.12</ele>
        <time>2017-06-04T13:32:33Z</time>
      </trkpt>
      <trkpt lat="44.55706" lon="4.11119">
        <ele>572.12</ele>
        <time>2017-06-04T13:32:37Z</time>
      </trkpt>
      <trkpt lat="44.55702" lon="4.11122">
        <ele>572.6</ele>
        <time>2017-06-04T13:32:41Z</time>
      </trkpt>
      <trkpt lat="44.55695" lon="4.11126">
        <ele>574.04</ele>
        <time>2017-06-04T13:32:52Z</time>
      </trkpt>
      <trkpt lat="44.5569" lon="4.11128">
        <ele>575.49</ele>
        <time>2017-06-04T13:33:04Z</time>
      </trkpt>
      <trkpt lat="44.55686" lon="4.11132">
        <ele>577.41</ele>
        <time>2017-06-04T13:33:15Z</time>
      </trkpt>
      <trkpt lat="44.55673" lon="4.11142">
        <ele>579.33</ele>
        <time>2017-06-04T13:33:33Z</time>
      </trkpt>
      <trkpt lat="44.5566" lon="4.11151">
        <ele>580.29</ele>
        <time>2017-06-04T13:33:51Z</time>
      </trkpt>
      <trkpt lat="44.55649" lon="4.11153">
        <ele>581.73</ele>
        <time>2017-06-04T13:34:08Z</time>
      </trkpt>
      <trkpt lat="44.55641" lon="4.11153">
        <ele>581.73</ele>
        <time>2017-06-04T13:34:22Z</time>
      </trkpt>
      <trkpt lat="44.55633" lon="4.11154">
        <ele>582.7</ele>
        <time>2017-06-04T13:34:35Z</time>
      </trkpt>
      <trkpt lat="44.55617" lon="4.11154">
        <ele>583.18</ele>
        <time>2017-06-04T13:34:49Z</time>
      </trkpt>
      <trkpt lat="44.55614" lon="4.11152">
        <ele>583.18</ele>
        <time>2017-06-04T13:34:51Z</time>
      </trkpt>
      <trkpt lat="44.55604" lon="4.11152">
        <ele>583.66</ele>
        <time>2017-06-04T13:35:03Z</time>
      </trkpt>
      <trkpt lat="44.55602" lon="4.11151">
        <ele>584.14</ele>
        <time>2017-06-04T13:35:05Z</time>
      </trkpt>
      <trkpt lat="44.55596" lon="4.11146">
        <ele>584.14</ele>
        <time>2017-06-04T13:35:16Z</time>
      </trkpt>
      <trkpt lat="44.55595" lon="4.11146">
        <ele>584.14</ele>
        <time>2017-06-04T13:35:17Z</time>
      </trkpt>
      <trkpt lat="44.55592" lon="4.11144">
        <ele>585.1</ele>
        <time>2017-06-04T13:35:20Z</time>
      </trkpt>
      <trkpt lat="44.5559" lon="4.11139">
        <ele>586.06</ele>
        <time>2017-06-04T13:35:29Z</time>
      </trkpt>
      <trkpt lat="44.55588" lon="4.11138">
        <ele>586.06</ele>
        <time>2017-06-04T13:35:31Z</time>
      </trkpt>
      <trkpt lat="44.55585" lon="4.11135">
        <ele>586.54</ele>
        <time>2017-06-04T13:35:36Z</time>
      </trkpt>
      <trkpt lat="44.55584" lon="4.11132">
        <ele>587.02</ele>
        <time>2017-06-04T13:35:38Z</time>
      </trkpt>
      <trkpt lat="44.55579" lon="4.11125">
        <ele>587.02</ele>
        <time>2017-06-04T13:35:47Z</time>
      </trkpt>
      <trkpt lat="44.55573" lon="4.11119">
        <ele>587.5</ele>
        <time>2017-06-04T13:36:00Z</time>
      </trkpt>
      <trkpt lat="44.55571" lon="4.11116">
        <ele>587.98</ele>
        <time>2017-06-04T13:36:13Z</time>
      </trkpt>
      <trkpt lat="44.55567" lon="4.11113">
        <ele>587.98</ele>
        <time>2017-06-04T13:36:26Z</time>
      </trkpt>
      <trkpt lat="44.55563" lon="4.11115">
        <ele>587.98</ele>
        <time>2017-06-04T13:36:36Z</time>
      </trkpt>
      <trkpt lat="44.5556" lon="4.11116">
        <ele>587.5</ele>
        <time>2017-06-04T13:36:49Z</time>
      </trkpt>
      <trkpt lat="44.55559" lon="4.11115">
        <ele>587.02</ele>
        <time>2017-06-04T13:37:00Z</time>
      </trkpt>
      <trkpt lat="44.55551" lon="4.11118">
        <ele>586.54</ele>
        <time>2017-06-04T13:37:12Z</time>
      </trkpt>
      <trkpt lat="44.55542" lon="4.11125">
        <ele>585.1</ele>
        <time>2017-06-04T13:37:24Z</time>
      </trkpt>
      <trkpt lat="44.55536" lon="4.11124">
        <ele>583.66</ele>
        <time>2017-06-04T13:37:33Z</time>
      </trkpt>
      <trkpt lat="44.55531" lon="4.11113">
        <ele>583.18</ele>
        <time>2017-06-04T13:37:48Z</time>
      </trkpt>
      <trkpt lat="44.55526" lon="4.11113">
        <ele>581.73</ele>
        <time>2017-06-04T13:38:01Z</time>
      </trkpt>
      <trkpt lat="44.55522" lon="4.11116">
        <ele>580.77</ele>
        <time>2017-06-04T13:38:10Z</time>
      </trkpt>
      <trkpt lat="44.55522" lon="4.11113">
        <ele>579.33</ele>
        <time>2017-06-04T13:38:22Z</time>
      </trkpt>
      <trkpt lat="44.5552" lon="4.11113">
        <ele>578.85</ele>
        <time>2017-06-04T13:38:34Z</time>
      </trkpt>
      <trkpt lat="44.55521" lon="4.11113">
        <ele>578.85</ele>
        <time>2017-06-04T13:38:52Z</time>
      </trkpt>
      <trkpt lat="44.55511" lon="4.11108">
        <ele>577.41</ele>
        <time>2017-06-04T13:39:08Z</time>
      </trkpt>
      <trkpt lat="44.5551" lon="4.11099">
        <ele>576.93</ele>
        <time>2017-06-04T13:39:21Z</time>
      </trkpt>
      <trkpt lat="44.55508" lon="4.11098">
        <ele>576.45</ele>
        <time>2017-06-04T13:39:38Z</time>
      </trkpt>
      <trkpt lat="44.55507" lon="4.11098">
        <ele>576.45</ele>
        <time>2017-06-04T13:39:58Z</time>
      </trkpt>
      <trkpt lat="44.555" lon="4.11101">
        <ele>575.01</ele>
        <time>2017-06-04T13:40:14Z</time>
      </trkpt>
      <trkpt lat="44.555" lon="4.11101">
        <ele>575.01</ele>
        <time>2017-06-04T13:40:15Z</time>
      </trkpt>
      <trkpt lat="44.55497" lon="4.11101">
        <ele>574.04</ele>
        <time>2017-06-04T13:40:17Z</time>
      </trkpt>
      <trkpt lat="44.55495" lon="4.11097">
        <ele>574.04</ele>
        <time>2017-06-04T13:40:20Z</time>
      </trkpt>
      <trkpt lat="44.55493" lon="4.11087">
        <ele>573.08</ele>
        <time>2017-06-04T13:40:31Z</time>
      </trkpt>
      <trkpt lat="44.55487" lon="4.11072">
        <ele>572.6</ele>
        <time>2017-06-04T13:40:44Z</time>
      </trkpt>
      <trkpt lat="44.55478" lon="4.11059">
        <ele>571.64</ele>
        <time>2017-06-04T13:40:57Z</time>
      </trkpt>
      <trkpt lat="44.55469" lon="4.11051">
        <ele>569.72</ele>
        <time>2017-06-04T13:41:13Z</time>
      </trkpt>
      <trkpt lat="44.55461" lon="4.11044">
        <ele>567.8</ele>
        <time>2017-06-04T13:41:26Z</time>
      </trkpt>
      <trkpt lat="44.55456" lon="4.11039">
        <ele>566.35</ele>
        <time>2017-06-04T13:41:37Z</time>
      </trkpt>
      <trkpt lat="44.55448" lon="4.11036">
        <ele>563.95</ele>
        <time>2017-06-04T13:41:51Z</time>
      </trkpt>
      <trkpt lat="44.55441" lon="4.1103">
        <ele>562.51</ele>
        <time>2017-06-04T13:42:05Z</time>
      </trkpt>
      <trkpt lat="44.55431" lon="4.11027">
        <ele>562.03</ele>
        <time>2017-06-04T13:42:19Z</time>
      </trkpt>
      <trkpt lat="44.55422" lon="4.11028">
        <ele>561.55</ele>
        <time>2017-06-04T13:42:31Z</time>
      </trkpt>
      <trkpt lat="44.55413" lon="4.1103">
        <ele>560.11</ele>
        <time>2017-06-04T13:42:42Z</time>
      </trkpt>
      <trkpt lat="44.55404" lon="4.11026">
        <ele>558.66</ele>
        <time>2017-06-04T13:42:54Z</time>
      </trkpt>
      <trkpt lat="44.55403" lon="4.11025">
        <ele>558.66</ele>
        <time>2017-06-04T13:42:55Z</time>
      </trkpt>
      <trkpt lat="44.55393" lon="4.11023">
        <ele>557.22</ele>
        <time>2017-06-04T13:43:13Z</time>
      </trkpt>
      <trkpt lat="44.55392" lon="4.11023">
        <ele>556.26</ele>
        <time>2017-06-04T13:43:29Z</time>
      </trkpt>
      <trkpt lat="44.55382" lon="4.11029">
        <ele>554.82</ele>
        <time>2017-06-04T13:43:44Z</time>
      </trkpt>
      <trkpt lat="44.55379" lon="4.11028">
        <ele>554.34</ele>
        <time>2017-06-04T13:43:49Z</time>
      </trkpt>
      <trkpt lat="44.55376" lon="4.1103">
        <ele>553.86</ele>
        <time>2017-06-04T13:43:52Z</time>
      </trkpt>
      <trkpt lat="44.55374" lon="4.11031">
        <ele>553.86</ele>
        <time>2017-06-04T13:43:54Z</time>
      </trkpt>
      <trkpt lat="44.55366" lon="4.11035">
        <ele>552.9</ele>
        <time>2017-06-04T13:44:03Z</time>
      </trkpt>
      <trkpt lat="44.55363" lon="4.11034">
        <ele>552.41</ele>
        <time>2017-06-04T13:44:06Z</time>
      </trkpt>
      <trkpt lat="44.55357" lon="4.11033">
        <ele>551.93</ele>
        <time>2017-06-04T13:44:13Z</time>
      </trkpt>
      <trkpt lat="44.55346" lon="4.11026">
        <ele>550.97</ele>
        <time>2017-06-04T13:44:26Z</time>
      </trkpt>
      <trkpt lat="44.55344" lon="4.11022">
        <ele>550.97</ele>
        <time>2017-06-04T13:44:39Z</time>
      </trkpt>
      <trkpt lat="44.55342" lon="4.11021">
        <ele>550.49</ele>
        <time>2017-06-04T13:44:42Z</time>
      </trkpt>
      <trkpt lat="44.5534" lon="4.11021">
        <ele>550.49</ele>
        <time>2017-06-04T13:44:44Z</time>
      </trkpt>
      <trkpt lat="44.55333" lon="4.11018">
        <ele>550.01</ele>
        <time>2017-06-04T13:44:49Z</time>
      </trkpt>
      <trkpt lat="44.5532" lon="4.11007">
        <ele>549.53</ele>
        <time>2017-06-04T13:45:01Z</time>
      </trkpt>
      <trkpt lat="44.55315" lon="4.11004">
        <ele>549.05</ele>
        <time>2017-06-04T13:45:06Z</time>
      </trkpt>
      <trkpt lat="44.55313" lon="4.11002">
        <ele>549.05</ele>
        <time>2017-06-04T13:45:09Z</time>
      </trkpt>
      <trkpt lat="44.55302" lon="4.10995">
        <ele>548.09</ele>
        <time>2017-06-04T13:45:20Z</time>
      </trkpt>
      <trkpt lat="44.55294" lon="4.10988">
        <ele>547.61</ele>
        <time>2017-06-04T13:45:31Z</time>
      </trkpt>
      <trkpt lat="44.55291" lon="4.10985">
        <ele>546.65</ele>
        <time>2017-06-04T13:45:42Z</time>
      </trkpt>
      <trkpt lat="44.55288" lon="4.10991">
        <ele>546.17</ele>
        <time>2017-06-04T13:45:54Z</time>
      </trkpt>
      <trkpt lat="44.5529" lon="4.11002">
        <ele>544.72</ele>
        <time>2017-06-04T13:46:08Z</time>
      </trkpt>
      <trkpt lat="44.55288" lon="4.11001">
        <ele>545.2</ele>
        <time>2017-06-04T13:46:23Z</time>
      </trkpt>
      <trkpt lat="44.55282" lon="4.10998">
        <ele>544.72</ele>
        <time>2017-06-04T13:46:36Z</time>
      </trkpt>
      <trkpt lat="44.55274" lon="4.10989">
        <ele>544.24</ele>
        <time>2017-06-04T13:46:48Z</time>
      </trkpt>
      <trkpt lat="44.55266" lon="4.10978">
        <ele>543.28</ele>
        <time>2017-06-04T13:47:01Z</time>
      </trkpt>
      <trkpt lat="44.55258" lon="4.10958">
        <ele>542.8</ele>
        <time>2017-06-04T13:47:17Z</time>
      </trkpt>
      <trkpt lat="44.55256" lon="4.10945">
        <ele>542.8</ele>
        <time>2017-06-04T13:47:30Z</time>
      </trkpt>
      <trkpt lat="44.55256" lon="4.10943">
        <ele>542.8</ele>
        <time>2017-06-04T13:47:44Z</time>
      </trkpt>
      <trkpt lat="44.55255" lon="4.10935">
        <ele>542.8</ele>
        <time>2017-06-04T13:47:56Z</time>
      </trkpt>
      <trkpt lat="44.55254" lon="4.1092">
        <ele>541.84</ele>
        <time>2017-06-04T13:48:09Z</time>
      </trkpt>
      <trkpt lat="44.55252" lon="4.10908">
        <ele>541.84</ele>
        <time>2017-06-04T13:48:21Z</time>
      </trkpt>
      <trkpt lat="44.55247" lon="4.10891">
        <ele>541.36</ele>
        <time>2017-06-04T13:48:37Z</time>
      </trkpt>
      <trkpt lat="44.55238" lon="4.10873">
        <ele>540.4</ele>
        <time>2017-06-04T13:48:51Z</time>
      </trkpt>
      <trkpt lat="44.55234" lon="4.10871">
        <ele>539.92</ele>
        <time>2017-06-04T13:48:58Z</time>
      </trkpt>
      <trkpt lat="44.55226" lon="4.10855">
        <ele>537.51</ele>
        <time>2017-06-04T13:49:13Z</time>
      </trkpt>
      <trkpt lat="44.55223" lon="4.10839">
        <ele>536.07</ele>
        <time>2017-06-04T13:49:27Z</time>
      </trkpt>
      <trkpt lat="44.55219" lon="4.10824">
        <ele>534.15</ele>
        <time>2017-06-04T13:49:42Z</time>
      </trkpt>
      <trkpt lat="44.55216" lon="4.10819">
        <ele>534.15</ele>
        <time>2017-06-04T13:49:53Z</time>
      </trkpt>
      <trkpt lat="44.55218" lon="4.10811">
        <ele>533.67</ele>
        <time>2017-06-04T13:50:06Z</time>
      </trkpt>
      <trkpt lat="44.55218" lon="4.10811">
        <ele>533.67</ele>
        <time>2017-06-04T13:50:21Z</time>
      </trkpt>
      <trkpt lat="44.55218" lon="4.10812">
        <ele>534.15</ele>
        <time>2017-06-04T13:50:43Z</time>
      </trkpt>
      <trkpt lat="44.55219" lon="4.10804">
        <ele>533.67</ele>
        <time>2017-06-04T13:50:55Z</time>
      </trkpt>
      <trkpt lat="44.55219" lon="4.10801">
        <ele>533.19</ele>
        <time>2017-06-04T13:51:04Z</time>
      </trkpt>
      <trkpt lat="44.55221" lon="4.10788">
        <ele>533.67</ele>
        <time>2017-06-04T13:51:17Z</time>
      </trkpt>
      <trkpt lat="44.55224" lon="4.10773">
        <ele>531.75</ele>
        <time>2017-06-04T13:51:30Z</time>
      </trkpt>
      <trkpt lat="44.55225" lon="4.10765">
        <ele>529.34</ele>
        <time>2017-06-04T13:51:44Z</time>
      </trkpt>
      <trkpt lat="44.55218" lon="4.10763">
        <ele>527.42</ele>
        <time>2017-06-04T13:51:58Z</time>
      </trkpt>
      <trkpt lat="44.55217" lon="4.10762">
        <ele>527.42</ele>
        <time>2017-06-04T13:51:59Z</time>
      </trkpt>
      <trkpt lat="44.55212" lon="4.10755">
        <ele>527.42</ele>
        <time>2017-06-04T13:52:13Z</time>
      </trkpt>
      <trkpt lat="44.55213" lon="4.10745">
        <ele>528.38</ele>
        <time>2017-06-04T13:52:24Z</time>
      </trkpt>
      <trkpt lat="44.55209" lon="4.10749">
        <ele>528.38</ele>
        <time>2017-06-04T13:52:37Z</time>
      </trkpt>
      <trkpt lat="44.55201" lon="4.10758">
        <ele>526.94</ele>
        <time>2017-06-04T13:52:49Z</time>
      </trkpt>
      <trkpt lat="44.55188" lon="4.10751">
        <ele>526.46</ele>
        <time>2017-06-04T13:53:01Z</time>
      </trkpt>
      <trkpt lat="44.55183" lon="4.10745">
        <ele>525.98</ele>
        <time>2017-06-04T13:53:07Z</time>
      </trkpt>
      <trkpt lat="44.55179" lon="4.10734">
        <ele>525.98</ele>
        <time>2017-06-04T13:53:14Z</time>
      </trkpt>
      <trkpt lat="44.55173" lon="4.10723">
        <ele>524.54</ele>
        <time>2017-06-04T13:53:27Z</time>
      </trkpt>
      <trkpt lat="44.55168" lon="4.10719">
        <ele>522.13</ele>
        <time>2017-06-04T13:53:41Z</time>
      </trkpt>
      <trkpt lat="44.5516" lon="4.10714">
        <ele>520.21</ele>
        <time>2017-06-04T13:53:54Z</time>
      </trkpt>
      <trkpt lat="44.55151" lon="4.10714">
        <ele>517.33</ele>
        <time>2017-06-04T13:54:06Z</time>
      </trkpt>
      <trkpt lat="44.55139" lon="4.1071">
        <ele>514.44</ele>
        <time>2017-06-04T13:54:22Z</time>
      </trkpt>
      <trkpt lat="44.55132" lon="4.10707">
        <ele>511.56</ele>
        <time>2017-06-04T13:54:37Z</time>
      </trkpt>
      <trkpt lat="44.55123" lon="4.107">
        <ele>509.16</ele>
        <time>2017-06-04T13:54:51Z</time>
      </trkpt>
      <trkpt lat="44.55114" lon="4.1069">
        <ele>506.75</ele>
        <time>2017-06-04T13:55:06Z</time>
      </trkpt>
      <trkpt lat="44.55108" lon="4.10679">
        <ele>505.31</ele>
        <time>2017-06-04T13:55:20Z</time>
      </trkpt>
      <trkpt lat="44.551" lon="4.10666">
        <ele>503.87</ele>
        <time>2017-06-04T13:55:34Z</time>
      </trkpt>
      <trkpt lat="44.55094" lon="4.10656">
        <ele>501.95</ele>
        <time>2017-06-04T13:55:49Z</time>
      </trkpt>
      <trkpt lat="44.55087" lon="4.10657">
        <ele>499.54</ele>
        <time>2017-06-04T13:56:04Z</time>
      </trkpt>
      <trkpt lat="44.55085" lon="4.10656">
        <ele>497.62</ele>
        <time>2017-06-04T13:56:15Z</time>
      </trkpt>
      <trkpt lat="44.55077" lon="4.10644">
        <ele>495.22</ele>
        <time>2017-06-04T13:56:27Z</time>
      </trkpt>
      <trkpt lat="44.5507" lon="4.10642">
        <ele>493.29</ele>
        <time>2017-06-04T13:56:38Z</time>
      </trkpt>
      <trkpt lat="44.55062" lon="4.10633">
        <ele>491.85</ele>
        <time>2017-06-04T13:56:52Z</time>
      </trkpt>
      <trkpt lat="44.55061" lon="4.10627">
        <ele>490.89</ele>
        <time>2017-06-04T13:57:04Z</time>
      </trkpt>
      <trkpt lat="44.55061" lon="4.10623">
        <ele>488.97</ele>
        <time>2017-06-04T13:57:21Z</time>
      </trkpt>
      <trkpt lat="44.55059" lon="4.10617">
        <ele>486.56</ele>
        <time>2017-06-04T13:57:37Z</time>
      </trkpt>
      <trkpt lat="44.55059" lon="4.10612">
        <ele>486.08</ele>
        <time>2017-06-04T13:57:53Z</time>
      </trkpt>
      <trkpt lat="44.55056" lon="4.10609">
        <ele>487.53</ele>
        <time>2017-06-04T13:58:05Z</time>
      </trkpt>
      <trkpt lat="44.55049" lon="4.10611">
        <ele>488.49</ele>
        <time>2017-06-04T13:58:16Z</time>
      </trkpt>
      <trkpt lat="44.55043" lon="4.10619">
        <ele>488.49</ele>
        <time>2017-06-04T13:58:27Z</time>
      </trkpt>
      <trkpt lat="44.55042" lon="4.10624">
        <ele>488.01</ele>
        <time>2017-06-04T13:58:31Z</time>
      </trkpt>
      <trkpt lat="44.55039" lon="4.10628">
        <ele>488.01</ele>
        <time>2017-06-04T13:58:37Z</time>
      </trkpt>
      <trkpt lat="44.55031" lon="4.10633">
        <ele>487.05</ele>
        <time>2017-06-04T13:58:49Z</time>
      </trkpt>
      <trkpt lat="44.55024" lon="4.10639">
        <ele>486.08</ele>
        <time>2017-06-04T13:58:57Z</time>
      </trkpt>
      <trkpt lat="44.55019" lon="4.10655">
        <ele>484.16</ele>
        <time>2017-06-04T13:59:10Z</time>
      </trkpt>
      <trkpt lat="44.55018" lon="4.10658">
        <ele>483.68</ele>
        <time>2017-06-04T13:59:13Z</time>
      </trkpt>
      <trkpt lat="44.55012" lon="4.10671">
        <ele>483.68</ele>
        <time>2017-06-04T13:59:26Z</time>
      </trkpt>
      <trkpt lat="44.55005" lon="4.10679">
        <ele>483.2</ele>
        <time>2017-06-04T13:59:39Z</time>
      </trkpt>
      <trkpt lat="44.55002" lon="4.10682">
        <ele>482.24</ele>
        <time>2017-06-04T13:59:43Z</time>
      </trkpt>
      <trkpt lat="44.54995" lon="4.10692">
        <ele>480.8</ele>
        <time>2017-06-04T13:59:55Z</time>
      </trkpt>
      <trkpt lat="44.54992" lon="4.10702">
        <ele>478.87</ele>
        <time>2017-06-04T14:00:06Z</time>
      </trkpt>
      <trkpt lat="44.54985" lon="4.10714">
        <ele>477.91</ele>
        <time>2017-06-04T14:00:18Z</time>
      </trkpt>
      <trkpt lat="44.54981" lon="4.1073">
        <ele>475.51</ele>
        <time>2017-06-04T14:00:31Z</time>
      </trkpt>
      <trkpt lat="44.54973" lon="4.10743">
        <ele>474.07</ele>
        <time>2017-06-04T14:00:44Z</time>
      </trkpt>
      <trkpt lat="44.54969" lon="4.10748">
        <ele>473.11</ele>
        <time>2017-06-04T14:00:49Z</time>
      </trkpt>
      <trkpt lat="44.54965" lon="4.10752">
        <ele>472.63</ele>
        <time>2017-06-04T14:00:56Z</time>
      </trkpt>
      <trkpt lat="44.54962" lon="4.10754">
        <ele>472.63</ele>
        <time>2017-06-04T14:00:58Z</time>
      </trkpt>
      <trkpt lat="44.54955" lon="4.1076">
        <ele>472.14</ele>
        <time>2017-06-04T14:01:05Z</time>
      </trkpt>
      <trkpt lat="44.54946" lon="4.10767">
        <ele>471.18</ele>
        <time>2017-06-04T14:01:17Z</time>
      </trkpt>
      <trkpt lat="44.54944" lon="4.10769">
        <ele>470.7</ele>
        <time>2017-06-04T14:01:19Z</time>
      </trkpt>
      <trkpt lat="44.54927" lon="4.10775">
        <ele>470.22</ele>
        <time>2017-06-04T14:01:33Z</time>
      </trkpt>
      <trkpt lat="44.54917" lon="4.10781">
        <ele>469.74</ele>
        <time>2017-06-04T14:01:43Z</time>
      </trkpt>
      <trkpt lat="44.54913" lon="4.10783">
        <ele>469.74</ele>
        <time>2017-06-04T14:01:46Z</time>
      </trkpt>
      <trkpt lat="44.54907" lon="4.10786">
        <ele>469.26</ele>
        <time>2017-06-04T14:01:53Z</time>
      </trkpt>
      <trkpt lat="44.54897" lon="4.10789">
        <ele>468.78</ele>
        <time>2017-06-04T14:02:05Z</time>
      </trkpt>
      <trkpt lat="44.54891" lon="4.10789">
        <ele>468.3</ele>
        <time>2017-06-04T14:02:10Z</time>
      </trkpt>
      <trkpt lat="44.54888" lon="4.1079">
        <ele>469.26</ele>
        <time>2017-06-04T14:02:12Z</time>
      </trkpt>
      <trkpt lat="44.54873" lon="4.10793">
        <ele>467.34</ele>
        <time>2017-06-04T14:02:25Z</time>
      </trkpt>
      <trkpt lat="44.54863" lon="4.10794">
        <ele>466.38</ele>
        <time>2017-06-04T14:02:34Z</time>
      </trkpt>
      <trkpt lat="44.54859" lon="4.10795">
        <ele>465.42</ele>
        <time>2017-06-04T14:02:39Z</time>
      </trkpt>
      <trkpt lat="44.54847" lon="4.108">
        <ele>463.97</ele>
        <time>2017-06-04T14:02:51Z</time>
      </trkpt>
      <trkpt lat="44.54839" lon="4.10803">
        <ele>462.05</ele>
        <time>2017-06-04T14:03:03Z</time>
      </trkpt>
      <trkpt lat="44.54831" lon="4.10804">
        <ele>460.61</ele>
        <time>2017-06-04T14:03:13Z</time>
      </trkpt>
      <trkpt lat="44.54823" lon="4.10805">
        <ele>458.69</ele>
        <time>2017-06-04T14:03:26Z</time>
      </trkpt>
      <trkpt lat="44.54815" lon="4.10805">
        <ele>457.24</ele>
        <time>2017-06-04T14:03:38Z</time>
      </trkpt>
      <trkpt lat="44.5481" lon="4.10804">
        <ele>456.76</ele>
        <time>2017-06-04T14:03:51Z</time>
      </trkpt>
      <trkpt lat="44.54803" lon="4.10803">
        <ele>455.32</ele>
        <time>2017-06-04T14:04:03Z</time>
      </trkpt>
      <trkpt lat="44.54795" lon="4.10802">
        <ele>452.44</ele>
        <time>2017-06-04T14:04:18Z</time>
      </trkpt>
      <trkpt lat="44.54783" lon="4.10801">
        <ele>450.03</ele>
        <time>2017-06-04T14:04:32Z</time>
      </trkpt>
      <trkpt lat="44.54776" lon="4.108">
        <ele>447.63</ele>
        <time>2017-06-04T14:04:49Z</time>
      </trkpt>
      <trkpt lat="44.54767" lon="4.10803">
        <ele>446.19</ele>
        <time>2017-06-04T14:05:00Z</time>
      </trkpt>
      <trkpt lat="44.54759" lon="4.10798">
        <ele>444.75</ele>
        <time>2017-06-04T14:05:15Z</time>
      </trkpt>
      <trkpt lat="44.54759" lon="4.10797">
        <ele>448.11</ele>
        <time>2017-06-04T14:05:20Z</time>
      </trkpt>
      <trkpt lat="44.54759" lon="4.10796">
        <ele>444.75</ele>
        <time>2017-06-04T14:05:22Z</time>
      </trkpt>
      <trkpt lat="44.54759" lon="4.10796">
        <ele>444.75</ele>
        <time>2017-06-04T14:05:23Z</time>
      </trkpt>
      <trkpt lat="44.5476" lon="4.10794">
        <ele>444.75</ele>
        <time>2017-06-04T14:05:40Z</time>
      </trkpt>
      <trkpt lat="44.5476" lon="4.10794">
        <ele>440.9</ele>
        <time>2017-06-04T14:05:45Z</time>
      </trkpt>
      <trkpt lat="44.5476" lon="4.10794">
        <ele>447.63</ele>
        <time>2017-06-04T14:05:46Z</time>
      </trkpt>
      <trkpt lat="44.5476" lon="4.10793">
        <ele>441.86</ele>
        <time>2017-06-04T14:05:47Z</time>
      </trkpt>
      <trkpt lat="44.5476" lon="4.10793">
        <ele>446.67</ele>
        <time>2017-06-04T14:05:48Z</time>
      </trkpt>
      <trkpt lat="44.5476" lon="4.10793">
        <ele>443.31</ele>
        <time>2017-06-04T14:05:49Z</time>
      </trkpt>
      <trkpt lat="44.5476" lon="4.10793">
        <ele>448.59</ele>
        <time>2017-06-04T14:05:50Z</time>
      </trkpt>
      <trkpt lat="44.5476" lon="4.10793">
        <ele>444.75</ele>
        <time>2017-06-04T14:05:51Z</time>
      </trkpt>
      <trkpt lat="44.54761" lon="4.10795">
        <ele>444.75</ele>
        <time>2017-06-04T14:06:13Z</time>
      </trkpt>
      <trkpt lat="44.5476" lon="4.10795">
        <ele>444.27</ele>
        <time>2017-06-04T14:06:28Z</time>
      </trkpt>
      <trkpt lat="44.54756" lon="4.10795">
        <ele>442.82</ele>
        <time>2017-06-04T14:06:41Z</time>
      </trkpt>
      <trkpt lat="44.54749" lon="4.10794">
        <ele>441.38</ele>
        <time>2017-06-04T14:06:53Z</time>
      </trkpt>
      <trkpt lat="44.54743" lon="4.10792">
        <ele>440.42</ele>
        <time>2017-06-04T14:07:06Z</time>
      </trkpt>
      <trkpt lat="44.54738" lon="4.1079">
        <ele>438.98</ele>
        <time>2017-06-04T14:07:18Z</time>
      </trkpt>
      <trkpt lat="44.54735" lon="4.10791">
        <ele>437.06</ele>
        <time>2017-06-04T14:07:30Z</time>
      </trkpt>
      <trkpt lat="44.54731" lon="4.10796">
        <ele>435.61</ele>
        <time>2017-06-04T14:07:45Z</time>
      </trkpt>
      <trkpt lat="44.5473" lon="4.10801">
        <ele>433.69</ele>
        <time>2017-06-04T14:08:00Z</time>
      </trkpt>
      <trkpt lat="44.5473" lon="4.10804">
        <ele>431.77</ele>
        <time>2017-06-04T14:08:16Z</time>
      </trkpt>
      <trkpt lat="44.54731" lon="4.10815">
        <ele>429.85</ele>
        <time>2017-06-04T14:08:30Z</time>
      </trkpt>
      <trkpt lat="44.54734" lon="4.10822">
        <ele>427.44</ele>
        <time>2017-06-04T14:08:44Z</time>
      </trkpt>
      <trkpt lat="44.54736" lon="4.1083">
        <ele>425.52</ele>
        <time>2017-06-04T14:08:58Z</time>
      </trkpt>
      <trkpt lat="44.54744" lon="4.10842">
        <ele>424.08</ele>
        <time>2017-06-04T14:09:11Z</time>
      </trkpt>
      <trkpt lat="44.54751" lon="4.10852">
        <ele>423.12</ele>
        <time>2017-06-04T14:09:26Z</time>
      </trkpt>
      <trkpt lat="44.54755" lon="4.10868">
        <ele>421.68</ele>
        <time>2017-06-04T14:09:42Z</time>
      </trkpt>
      <trkpt lat="44.54764" lon="4.10887">
        <ele>420.23</ele>
        <time>2017-06-04T14:09:58Z</time>
      </trkpt>
      <trkpt lat="44.5477" lon="4.10893">
        <ele>419.75</ele>
        <time>2017-06-04T14:10:05Z</time>
      </trkpt>
      <trkpt lat="44.54773" lon="4.10895">
        <ele>419.75</ele>
        <time>2017-06-04T14:10:08Z</time>
      </trkpt>
      <trkpt lat="44.54779" lon="4.10903">
        <ele>418.31</ele>
        <time>2017-06-04T14:10:19Z</time>
      </trkpt>
      <trkpt lat="44.54779" lon="4.10907">
        <ele>418.31</ele>
        <time>2017-06-04T14:10:21Z</time>
      </trkpt>
      <trkpt lat="44.54788" lon="4.10918">
        <ele>416.87</ele>
        <time>2017-06-04T14:10:34Z</time>
      </trkpt>
      <trkpt lat="44.54792" lon="4.10925">
        <ele>415.43</ele>
        <time>2017-06-04T14:10:47Z</time>
      </trkpt>
      <trkpt lat="44.54794" lon="4.10927">
        <ele>415.43</ele>
        <time>2017-06-04T14:10:50Z</time>
      </trkpt>
      <trkpt lat="44.54804" lon="4.10935">
        <ele>414.47</ele>
        <time>2017-06-04T14:11:04Z</time>
      </trkpt>
      <trkpt lat="44.54814" lon="4.10937">
        <ele>413.02</ele>
        <time>2017-06-04T14:11:18Z</time>
      </trkpt>
      <trkpt lat="44.54817" lon="4.10944">
        <ele>411.58</ele>
        <time>2017-06-04T14:11:30Z</time>
      </trkpt>
      <trkpt lat="44.5482" lon="4.10949">
        <ele>409.66</ele>
        <time>2017-06-04T14:11:43Z</time>
      </trkpt>
      <trkpt lat="44.54827" lon="4.10955">
        <ele>408.7</ele>
        <time>2017-06-04T14:11:54Z</time>
      </trkpt>
      <trkpt lat="44.54829" lon="4.10957">
        <ele>406.29</ele>
        <time>2017-06-04T14:12:08Z</time>
      </trkpt>
      <trkpt lat="44.54826" lon="4.10966">
        <ele>404.85</ele>
        <time>2017-06-04T14:12:22Z</time>
      </trkpt>
      <trkpt lat="44.54818" lon="4.10971">
        <ele>402.93</ele>
        <time>2017-06-04T14:12:40Z</time>
      </trkpt>
      <trkpt lat="44.54812" lon="4.10975">
        <ele>401.49</ele>
        <time>2017-06-04T14:12:53Z</time>
      </trkpt>
      <trkpt lat="44.54813" lon="4.10981">
        <ele>399.57</ele>
        <time>2017-06-04T14:13:07Z</time>
      </trkpt>
      <trkpt lat="44.54812" lon="4.10981">
        <ele>399.57</ele>
        <time>2017-06-04T14:13:27Z</time>
      </trkpt>
      <trkpt lat="44.54811" lon="4.10985">
        <ele>399.57</ele>
        <time>2017-06-04T14:13:44Z</time>
      </trkpt>
      <trkpt lat="44.54811" lon="4.10991">
        <ele>399.08</ele>
        <time>2017-06-04T14:13:59Z</time>
      </trkpt>
      <trkpt lat="44.54813" lon="4.10999">
        <ele>398.6</ele>
        <time>2017-06-04T14:14:17Z</time>
      </trkpt>
      <trkpt lat="44.54819" lon="4.11007">
        <ele>398.12</ele>
        <time>2017-06-04T14:14:31Z</time>
      </trkpt>
      <trkpt lat="44.5482" lon="4.11007">
        <ele>398.12</ele>
        <time>2017-06-04T14:14:37Z</time>
      </trkpt>
      <trkpt lat="44.5482" lon="4.11014">
        <ele>397.64</ele>
        <time>2017-06-04T14:14:48Z</time>
      </trkpt>
      <trkpt lat="44.54817" lon="4.1102">
        <ele>398.12</ele>
        <time>2017-06-04T14:15:00Z</time>
      </trkpt>
      <trkpt lat="44.54814" lon="4.11023">
        <ele>398.12</ele>
        <time>2017-06-04T14:15:14Z</time>
      </trkpt>
      <trkpt lat="44.54813" lon="4.11023">
        <ele>398.12</ele>
        <time>2017-06-04T14:15:29Z</time>
      </trkpt>
      <trkpt lat="44.54813" lon="4.11024">
        <ele>397.64</ele>
        <time>2017-06-04T14:15:41Z</time>
      </trkpt>
      <trkpt lat="44.54813" lon="4.11025">
        <ele>398.12</ele>
        <time>2017-06-04T14:16:01Z</time>
      </trkpt>
      <trkpt lat="44.54814" lon="4.11026">
        <ele>397.64</ele>
        <time>2017-06-04T14:16:19Z</time>
      </trkpt>
      <trkpt lat="44.54814" lon="4.11026">
        <ele>397.64</ele>
        <time>2017-06-04T14:16:32Z</time>
      </trkpt>
      <trkpt lat="44.54813" lon="4.11027">
        <ele>397.16</ele>
        <time>2017-06-04T14:16:49Z</time>
      </trkpt>
      <trkpt lat="44.54814" lon="4.11027">
        <ele>397.16</ele>
        <time>2017-06-04T14:17:05Z</time>
      </trkpt>
      <trkpt lat="44.54813" lon="4.11027">
        <ele>397.16</ele>
        <time>2017-06-04T14:17:18Z</time>
      </trkpt>
      <trkpt lat="44.54811" lon="4.11026">
        <ele>397.16</ele>
        <time>2017-06-04T14:17:32Z</time>
      </trkpt>
      <trkpt lat="44.54811" lon="4.11026">
        <ele>397.16</ele>
        <time>2017-06-04T14:17:34Z</time>
      </trkpt>
      <trkpt lat="44.54809" lon="4.11025">
        <ele>396.68</ele>
        <time>2017-06-04T14:17:40Z</time>
      </trkpt>
      <trkpt lat="44.54809" lon="4.11023">
        <ele>396.68</ele>
        <time>2017-06-04T14:17:53Z</time>
      </trkpt>
      <trkpt lat="44.54808" lon="4.11019">
        <ele>397.64</ele>
        <time>2017-06-04T14:18:14Z</time>
      </trkpt>
      <trkpt lat="44.54806" lon="4.11019">
        <ele>397.64</ele>
        <time>2017-06-04T14:18:27Z</time>
      </trkpt>
      <trkpt lat="44.54798" lon="4.11012">
        <ele>397.64</ele>
        <time>2017-06-04T14:18:40Z</time>
      </trkpt>
      <trkpt lat="44.54793" lon="4.11008">
        <ele>397.64</ele>
        <time>2017-06-04T14:18:53Z</time>
      </trkpt>
      <trkpt lat="44.54793" lon="4.11009">
        <ele>397.16</ele>
        <time>2017-06-04T14:19:14Z</time>
      </trkpt>
      <trkpt lat="44.54791" lon="4.11007">
        <ele>396.68</ele>
        <time>2017-06-04T14:19:30Z</time>
      </trkpt>
      <trkpt lat="44.54788" lon="4.11007">
        <ele>396.68</ele>
        <time>2017-06-04T14:19:42Z</time>
      </trkpt>
      <trkpt lat="44.54785" lon="4.11003">
        <ele>396.2</ele>
        <time>2017-06-04T14:19:53Z</time>
      </trkpt>
      <trkpt lat="44.54781" lon="4.10999">
        <ele>396.2</ele>
        <time>2017-06-04T14:20:07Z</time>
      </trkpt>
      <trkpt lat="44.54778" lon="4.10997">
        <ele>397.16</ele>
        <time>2017-06-04T14:20:14Z</time>
      </trkpt>
      <trkpt lat="44.54777" lon="4.10997">
        <ele>396.2</ele>
        <time>2017-06-04T14:20:16Z</time>
      </trkpt>
      <trkpt lat="44.5477" lon="4.10992">
        <ele>396.2</ele>
        <time>2017-06-04T14:20:27Z</time>
      </trkpt>
      <trkpt lat="44.54768" lon="4.10989">
        <ele>395.72</ele>
        <time>2017-06-04T14:20:30Z</time>
      </trkpt>
      <trkpt lat="44.54753" lon="4.10973">
        <ele>396.2</ele>
        <time>2017-06-04T14:20:45Z</time>
      </trkpt>
      <trkpt lat="44.54745" lon="4.10964">
        <ele>396.68</ele>
        <time>2017-06-04T14:20:58Z</time>
      </trkpt>
      <trkpt lat="44.54738" lon="4.1096">
        <ele>398.6</ele>
        <time>2017-06-04T14:21:07Z</time>
      </trkpt>
      <trkpt lat="44.54736" lon="4.10959">
        <ele>399.08</ele>
        <time>2017-06-04T14:21:09Z</time>
      </trkpt>
      <trkpt lat="44.5473" lon="4.10957">
        <ele>401.01</ele>
        <time>2017-06-04T14:21:23Z</time>
      </trkpt>
      <trkpt lat="44.54717" lon="4.10955">
        <ele>401.97</ele>
        <time>2017-06-04T14:21:36Z</time>
      </trkpt>
      <trkpt lat="44.54713" lon="4.1095">
        <ele>402.93</ele>
        <time>2017-06-04T14:21:45Z</time>
      </trkpt>
      <trkpt lat="44.54711" lon="4.10949">
        <ele>403.41</ele>
        <time>2017-06-04T14:21:49Z</time>
      </trkpt>
      <trkpt lat="44.54707" lon="4.10944">
        <ele>403.41</ele>
        <time>2017-06-04T14:21:59Z</time>
      </trkpt>
      <trkpt lat="44.54702" lon="4.10942">
        <ele>403.89</ele>
        <time>2017-06-04T14:22:10Z</time>
      </trkpt>
      <trkpt lat="44.54701" lon="4.10941">
        <ele>403.89</ele>
        <time>2017-06-04T14:22:15Z</time>
      </trkpt>
      <trkpt lat="44.547" lon="4.10935">
        <ele>403.41</ele>
        <time>2017-06-04T14:22:21Z</time>
      </trkpt>
      <trkpt lat="44.54688" lon="4.10928">
        <ele>403.41</ele>
        <time>2017-06-04T14:22:35Z</time>
      </trkpt>
      <trkpt lat="44.54687" lon="4.10928">
        <ele>404.37</ele>
        <time>2017-06-04T14:22:39Z</time>
      </trkpt>
      <trkpt lat="44.54679" lon="4.10923">
        <ele>405.81</ele>
        <time>2017-06-04T14:22:53Z</time>
      </trkpt>
      <trkpt lat="44.54679" lon="4.10923">
        <ele>405.81</ele>
        <time>2017-06-04T14:22:54Z</time>
      </trkpt>
      <trkpt lat="44.54668" lon="4.1092">
        <ele>407.26</ele>
        <time>2017-06-04T14:23:06Z</time>
      </trkpt>
      <trkpt lat="44.54658" lon="4.10909">
        <ele>405.81</ele>
        <time>2017-06-04T14:23:20Z</time>
      </trkpt>
      <trkpt lat="44.54658" lon="4.10907">
        <ele>404.85</ele>
        <time>2017-06-04T14:23:24Z</time>
      </trkpt>
      <trkpt lat="44.54651" lon="4.10893">
        <ele>403.41</ele>
        <time>2017-06-04T14:23:37Z</time>
      </trkpt>
      <trkpt lat="44.54644" lon="4.10888">
        <ele>401.01</ele>
        <time>2017-06-04T14:23:49Z</time>
      </trkpt>
      <trkpt lat="44.54636" lon="4.10884">
        <ele>397.64</ele>
        <time>2017-06-04T14:24:05Z</time>
      </trkpt>
      <trkpt lat="44.54627" lon="4.10874">
        <ele>395.24</ele>
        <time>2017-06-04T14:24:19Z</time>
      </trkpt>
      <trkpt lat="44.54621" lon="4.10868">
        <ele>393.8</ele>
        <time>2017-06-04T14:24:27Z</time>
      </trkpt>
      <trkpt lat="44.54615" lon="4.10862">
        <ele>392.36</ele>
        <time>2017-06-04T14:24:37Z</time>
      </trkpt>
      <trkpt lat="44.54607" lon="4.10858">
        <ele>391.39</ele>
        <time>2017-06-04T14:24:49Z</time>
      </trkpt>
      <trkpt lat="44.54599" lon="4.10856">
        <ele>391.39</ele>
        <time>2017-06-04T14:25:00Z</time>
      </trkpt>
      <trkpt lat="44.5459" lon="4.10846">
        <ele>390.91</ele>
        <time>2017-06-04T14:25:11Z</time>
      </trkpt>
      <trkpt lat="44.54583" lon="4.10837">
        <ele>389.47</ele>
        <time>2017-06-04T14:25:23Z</time>
      </trkpt>
      <trkpt lat="44.54575" lon="4.1083">
        <ele>387.07</ele>
        <time>2017-06-04T14:25:39Z</time>
      </trkpt>
      <trkpt lat="44.54566" lon="4.10822">
        <ele>386.11</ele>
        <time>2017-06-04T14:25:51Z</time>
      </trkpt>
      <trkpt lat="44.54558" lon="4.10812">
        <ele>386.11</ele>
        <time>2017-06-04T14:26:03Z</time>
      </trkpt>
      <trkpt lat="44.54556" lon="4.1081">
        <ele>385.63</ele>
        <time>2017-06-04T14:26:06Z</time>
      </trkpt>
      <trkpt lat="44.5455" lon="4.10802">
        <ele>384.66</ele>
        <time>2017-06-04T14:26:16Z</time>
      </trkpt>
      <trkpt lat="44.54544" lon="4.10798">
        <ele>383.22</ele>
        <time>2017-06-04T14:26:30Z</time>
      </trkpt>
      <trkpt lat="44.54539" lon="4.10788">
        <ele>381.78</ele>
        <time>2017-06-04T14:26:46Z</time>
      </trkpt>
      <trkpt lat="44.54533" lon="4.10778">
        <ele>380.82</ele>
        <time>2017-06-04T14:27:00Z</time>
      </trkpt>
      <trkpt lat="44.54523" lon="4.10774">
        <ele>380.82</ele>
        <time>2017-06-04T14:27:11Z</time>
      </trkpt>
      <trkpt lat="44.54516" lon="4.10771">
        <ele>380.82</ele>
        <time>2017-06-04T14:27:18Z</time>
      </trkpt>
      <trkpt lat="44.5451" lon="4.10761">
        <ele>380.34</ele>
        <time>2017-06-04T14:27:28Z</time>
      </trkpt>
      <trkpt lat="44.54507" lon="4.10758">
        <ele>380.34</ele>
        <time>2017-06-04T14:27:31Z</time>
      </trkpt>
      <trkpt lat="44.54496" lon="4.10746">
        <ele>379.86</ele>
        <time>2017-06-04T14:27:43Z</time>
      </trkpt>
      <trkpt lat="44.54485" lon="4.10742">
        <ele>379.86</ele>
        <time>2017-06-04T14:27:56Z</time>
      </trkpt>
      <trkpt lat="44.5448" lon="4.10741">
        <ele>380.34</ele>
        <time>2017-06-04T14:28:08Z</time>
      </trkpt>
      <trkpt lat="44.54476" lon="4.10738">
        <ele>380.82</ele>
        <time>2017-06-04T14:28:13Z</time>
      </trkpt>
      <trkpt lat="44.5447" lon="4.10733">
        <ele>380.34</ele>
        <time>2017-06-04T14:28:20Z</time>
      </trkpt>
      <trkpt lat="44.54467" lon="4.10731">
        <ele>380.34</ele>
        <time>2017-06-04T14:28:23Z</time>
      </trkpt>
      <trkpt lat="44.54456" lon="4.10725">
        <ele>380.34</ele>
        <time>2017-06-04T14:28:35Z</time>
      </trkpt>
      <trkpt lat="44.54448" lon="4.1072">
        <ele>380.34</ele>
        <time>2017-06-04T14:28:46Z</time>
      </trkpt>
      <trkpt lat="44.54442" lon="4.10715">
        <ele>379.86</ele>
        <time>2017-06-04T14:28:54Z</time>
      </trkpt>
      <trkpt lat="44.54438" lon="4.1071">
        <ele>379.38</ele>
        <time>2017-06-04T14:28:59Z</time>
      </trkpt>
      <trkpt lat="44.54428" lon="4.10708">
        <ele>379.86</ele>
        <time>2017-06-04T14:29:10Z</time>
      </trkpt>
      <trkpt lat="44.54418" lon="4.10702">
        <ele>379.38</ele>
        <time>2017-06-04T14:29:22Z</time>
      </trkpt>
      <trkpt lat="44.54405" lon="4.10696">
        <ele>379.86</ele>
        <time>2017-06-04T14:29:37Z</time>
      </trkpt>
      <trkpt lat="44.54395" lon="4.10691">
        <ele>379.86</ele>
        <time>2017-06-04T14:29:50Z</time>
      </trkpt>
      <trkpt lat="44.5438" lon="4.10687">
        <ele>378.9</ele>
        <time>2017-06-04T14:30:02Z</time>
      </trkpt>
      <trkpt lat="44.54378" lon="4.10686">
        <ele>378.9</ele>
        <time>2017-06-04T14:30:04Z</time>
      </trkpt>
      <trkpt lat="44.54364" lon="4.10679">
        <ele>378.42</ele>
        <time>2017-06-04T14:30:17Z</time>
      </trkpt>
      <trkpt lat="44.54363" lon="4.10679">
        <ele>378.42</ele>
        <time>2017-06-04T14:30:19Z</time>
      </trkpt>
      <trkpt lat="44.54357" lon="4.10676">
        <ele>377.94</ele>
        <time>2017-06-04T14:30:30Z</time>
      </trkpt>
      <trkpt lat="44.54349" lon="4.10676">
        <ele>377.94</ele>
        <time>2017-06-04T14:30:43Z</time>
      </trkpt>
      <trkpt lat="44.54338" lon="4.1067">
        <ele>377.45</ele>
        <time>2017-06-04T14:30:55Z</time>
      </trkpt>
      <trkpt lat="44.54328" lon="4.10662">
        <ele>376.97</ele>
        <time>2017-06-04T14:31:06Z</time>
      </trkpt>
      <trkpt lat="44.54319" lon="4.10662">
        <ele>376.01</ele>
        <time>2017-06-04T14:31:13Z</time>
      </trkpt>
      <trkpt lat="44.54294" lon="4.10654">
        <ele>376.49</ele>
        <time>2017-06-04T14:31:28Z</time>
      </trkpt>
      <trkpt lat="44.54282" lon="4.10654">
        <ele>376.49</ele>
        <time>2017-06-04T14:31:42Z</time>
      </trkpt>
      <trkpt lat="44.54276" lon="4.10667">
        <ele>377.94</ele>
        <time>2017-06-04T14:31:56Z</time>
      </trkpt>
      <trkpt lat="44.54271" lon="4.10673">
        <ele>377.94</ele>
        <time>2017-06-04T14:32:06Z</time>
      </trkpt>
      <trkpt lat="44.54266" lon="4.10674">
        <ele>377.45</ele>
        <time>2017-06-04T14:32:12Z</time>
      </trkpt>
      <trkpt lat="44.54257" lon="4.10673">
        <ele>378.9</ele>
        <time>2017-06-04T14:32:23Z</time>
      </trkpt>
      <trkpt lat="44.54251" lon="4.10677">
        <ele>380.82</ele>
        <time>2017-06-04T14:32:33Z</time>
      </trkpt>
      <trkpt lat="44.54242" lon="4.10681">
        <ele>383.22</ele>
        <time>2017-06-04T14:32:47Z</time>
      </trkpt>
      <trkpt lat="44.54229" lon="4.10674">
        <ele>381.78</ele>
        <time>2017-06-04T14:33:02Z</time>
      </trkpt>
      <trkpt lat="44.54222" lon="4.10667">
        <ele>380.34</ele>
        <time>2017-06-04T14:33:17Z</time>
      </trkpt>
      <trkpt lat="44.54217" lon="4.10663">
        <ele>379.86</ele>
        <time>2017-06-04T14:33:27Z</time>
      </trkpt>
      <trkpt lat="44.54207" lon="4.10658">
        <ele>378.42</ele>
        <time>2017-06-04T14:33:41Z</time>
      </trkpt>
      <trkpt lat="44.54192" lon="4.10652">
        <ele>377.45</ele>
        <time>2017-06-04T14:33:58Z</time>
      </trkpt>
      <trkpt lat="44.5418" lon="4.10649">
        <ele>377.45</ele>
        <time>2017-06-04T14:34:14Z</time>
      </trkpt>
      <trkpt lat="44.54169" lon="4.10652">
        <ele>377.45</ele>
        <time>2017-06-04T14:34:27Z</time>
      </trkpt>
      <trkpt lat="44.5416" lon="4.10649">
        <ele>376.97</ele>
        <time>2017-06-04T14:34:39Z</time>
      </trkpt>
      <trkpt lat="44.54152" lon="4.10649">
        <ele>375.53</ele>
        <time>2017-06-04T14:34:51Z</time>
      </trkpt>
      <trkpt lat="44.54142" lon="4.10644">
        <ele>373.13</ele>
        <time>2017-06-04T14:35:09Z</time>
      </trkpt>
      <trkpt lat="44.5413" lon="4.10643">
        <ele>370.24</ele>
        <time>2017-06-04T14:35:25Z</time>
      </trkpt>
      <trkpt lat="44.54119" lon="4.10638">
        <ele>370.73</ele>
        <time>2017-06-04T14:35:38Z</time>
      </trkpt>
      <trkpt lat="44.54104" lon="4.10643">
        <ele>371.21</ele>
        <time>2017-06-04T14:35:52Z</time>
      </trkpt>
      <trkpt lat="44.54097" lon="4.10645">
        <ele>372.17</ele>
        <time>2017-06-04T14:36:07Z</time>
      </trkpt>
      <trkpt lat="44.5409" lon="4.10649">
        <ele>373.13</ele>
        <time>2017-06-04T14:36:17Z</time>
      </trkpt>
      <trkpt lat="44.54082" lon="4.10653">
        <ele>373.13</ele>
        <time>2017-06-04T14:36:31Z</time>
      </trkpt>
      <trkpt lat="44.54078" lon="4.10654">
        <ele>373.61</ele>
        <time>2017-06-04T14:36:38Z</time>
      </trkpt>
      <trkpt lat="44.5407" lon="4.10658">
        <ele>374.09</ele>
        <time>2017-06-04T14:36:51Z</time>
      </trkpt>
      <trkpt lat="44.54063" lon="4.10658">
        <ele>375.05</ele>
        <time>2017-06-04T14:37:04Z</time>
      </trkpt>
      <trkpt lat="44.54062" lon="4.10657">
        <ele>375.53</ele>
        <time>2017-06-04T14:37:06Z</time>
      </trkpt>
      <trkpt lat="44.54053" lon="4.10651">
        <ele>376.49</ele>
        <time>2017-06-04T14:37:17Z</time>
      </trkpt>
      <trkpt lat="44.5405" lon="4.10649">
        <ele>376.97</ele>
        <time>2017-06-04T14:37:20Z</time>
      </trkpt>
      <trkpt lat="44.54048" lon="4.10647">
        <ele>376.97</ele>
        <time>2017-06-04T14:37:22Z</time>
      </trkpt>
      <trkpt lat="44.54045" lon="4.10644">
        <ele>377.45</ele>
        <time>2017-06-04T14:37:28Z</time>
      </trkpt>
      <trkpt lat="44.54042" lon="4.10638">
        <ele>377.45</ele>
        <time>2017-06-04T14:37:36Z</time>
      </trkpt>
      <trkpt lat="44.54037" lon="4.10635">
        <ele>378.9</ele>
        <time>2017-06-04T14:37:48Z</time>
      </trkpt>
      <trkpt lat="44.54034" lon="4.1063">
        <ele>379.86</ele>
        <time>2017-06-04T14:37:58Z</time>
      </trkpt>
      <trkpt lat="44.54033" lon="4.10625">
        <ele>379.86</ele>
        <time>2017-06-04T14:38:11Z</time>
      </trkpt>
      <trkpt lat="44.54032" lon="4.10622">
        <ele>379.86</ele>
        <time>2017-06-04T14:38:34Z</time>
      </trkpt>
      <trkpt lat="44.54029" lon="4.10615">
        <ele>380.82</ele>
        <time>2017-06-04T14:38:43Z</time>
      </trkpt>
      <trkpt lat="44.54023" lon="4.10607">
        <ele>381.3</ele>
        <time>2017-06-04T14:38:54Z</time>
      </trkpt>
      <trkpt lat="44.54022" lon="4.10606">
        <ele>381.3</ele>
        <time>2017-06-04T14:38:55Z</time>
      </trkpt>
      <trkpt lat="44.54018" lon="4.10597">
        <ele>381.78</ele>
        <time>2017-06-04T14:39:05Z</time>
      </trkpt>
      <trkpt lat="44.54019" lon="4.10595">
        <ele>381.78</ele>
        <time>2017-06-04T14:39:08Z</time>
      </trkpt>
      <trkpt lat="44.54021" lon="4.10591">
        <ele>381.78</ele>
        <time>2017-06-04T14:39:11Z</time>
      </trkpt>
      <trkpt lat="44.54022" lon="4.10582">
        <ele>381.3</ele>
        <time>2017-06-04T14:39:21Z</time>
      </trkpt>
      <trkpt lat="44.5402" lon="4.10565">
        <ele>381.3</ele>
        <time>2017-06-04T14:39:33Z</time>
      </trkpt>
      <trkpt lat="44.54019" lon="4.10556">
        <ele>381.78</ele>
        <time>2017-06-04T14:39:45Z</time>
      </trkpt>
      <trkpt lat="44.5402" lon="4.10553">
        <ele>381.3</ele>
        <time>2017-06-04T14:39:47Z</time>
      </trkpt>
      <trkpt lat="44.54021" lon="4.10535">
        <ele>380.82</ele>
        <time>2017-06-04T14:40:00Z</time>
      </trkpt>
      <trkpt lat="44.5402" lon="4.10532">
        <ele>380.34</ele>
        <time>2017-06-04T14:40:02Z</time>
      </trkpt>
      <trkpt lat="44.54019" lon="4.10527">
        <ele>380.82</ele>
        <time>2017-06-04T14:40:06Z</time>
      </trkpt>
      <trkpt lat="44.54019" lon="4.10519">
        <ele>380.82</ele>
        <time>2017-06-04T14:40:11Z</time>
      </trkpt>
      <trkpt lat="44.54017" lon="4.10512">
        <ele>381.78</ele>
        <time>2017-06-04T14:40:23Z</time>
      </trkpt>
      <trkpt lat="44.54016" lon="4.10508">
        <ele>382.26</ele>
        <time>2017-06-04T14:40:28Z</time>
      </trkpt>
      <trkpt lat="44.54012" lon="4.10497">
        <ele>383.22</ele>
        <time>2017-06-04T14:40:40Z</time>
      </trkpt>
      <trkpt lat="44.54011" lon="4.10494">
        <ele>383.22</ele>
        <time>2017-06-04T14:40:42Z</time>
      </trkpt>
      <trkpt lat="44.54009" lon="4.10491">
        <ele>383.7</ele>
        <time>2017-06-04T14:40:45Z</time>
      </trkpt>
      <trkpt lat="44.54007" lon="4.10481">
        <ele>385.15</ele>
        <time>2017-06-04T14:40:57Z</time>
      </trkpt>
      <trkpt lat="44.54002" lon="4.10473">
        <ele>386.59</ele>
        <time>2017-06-04T14:41:07Z</time>
      </trkpt>
      <trkpt lat="44.54" lon="4.10469">
        <ele>387.07</ele>
        <time>2017-06-04T14:41:11Z</time>
      </trkpt>
      <trkpt lat="44.53997" lon="4.10465">
        <ele>387.55</ele>
        <time>2017-06-04T14:41:17Z</time>
      </trkpt>
      <trkpt lat="44.53994" lon="4.10459">
        <ele>388.99</ele>
        <time>2017-06-04T14:41:26Z</time>
      </trkpt>
      <trkpt lat="44.53993" lon="4.10457">
        <ele>388.99</ele>
        <time>2017-06-04T14:41:30Z</time>
      </trkpt>
      <trkpt lat="44.53988" lon="4.10452">
        <ele>389.95</ele>
        <time>2017-06-04T14:41:39Z</time>
      </trkpt>
      <trkpt lat="44.53984" lon="4.10448">
        <ele>390.91</ele>
        <time>2017-06-04T14:41:45Z</time>
      </trkpt>
      <trkpt lat="44.53981" lon="4.10445">
        <ele>390.91</ele>
        <time>2017-06-04T14:41:50Z</time>
      </trkpt>
      <trkpt lat="44.53977" lon="4.10442">
        <ele>392.36</ele>
        <time>2017-06-04T14:42:00Z</time>
      </trkpt>
      <trkpt lat="44.53972" lon="4.10442">
        <ele>392.84</ele>
        <time>2017-06-04T14:42:10Z</time>
      </trkpt>
      <trkpt lat="44.53968" lon="4.10443">
        <ele>393.32</ele>
        <time>2017-06-04T14:42:16Z</time>
      </trkpt>
      <trkpt lat="44.53965" lon="4.10445">
        <ele>392.36</ele>
        <time>2017-06-04T14:42:21Z</time>
      </trkpt>
      <trkpt lat="44.53958" lon="4.10448">
        <ele>388.51</ele>
        <time>2017-06-04T14:42:34Z</time>
      </trkpt>
      <trkpt lat="44.53958" lon="4.10448">
        <ele>395.72</ele>
        <time>2017-06-04T14:42:35Z</time>
      </trkpt>
      <trkpt lat="44.53958" lon="4.10448">
        <ele>392.36</ele>
        <time>2017-06-04T14:42:36Z</time>
      </trkpt>
      <trkpt lat="44.53957" lon="4.10449">
        <ele>392.36</ele>
        <time>2017-06-04T14:42:40Z</time>
      </trkpt>
      <trkpt lat="44.53957" lon="4.10448">
        <ele>392.36</ele>
        <time>2017-06-04T14:43:01Z</time>
      </trkpt>
      <trkpt lat="44.53955" lon="4.10449">
        <ele>392.36</ele>
        <time>2017-06-04T14:43:05Z</time>
      </trkpt>
      <trkpt lat="44.53953" lon="4.10452">
        <ele>392.36</ele>
        <time>2017-06-04T14:43:07Z</time>
      </trkpt>
      <trkpt lat="44.5394" lon="4.10459">
        <ele>392.36</ele>
        <time>2017-06-04T14:43:21Z</time>
      </trkpt>
      <trkpt lat="44.53934" lon="4.10464">
        <ele>392.84</ele>
        <time>2017-06-04T14:43:33Z</time>
      </trkpt>
      <trkpt lat="44.53933" lon="4.10465">
        <ele>392.36</ele>
        <time>2017-06-04T14:43:34Z</time>
      </trkpt>
      <trkpt lat="44.5393" lon="4.10467">
        <ele>392.84</ele>
        <time>2017-06-04T14:43:37Z</time>
      </trkpt>
      <trkpt lat="44.53927" lon="4.10467">
        <ele>392.84</ele>
        <time>2017-06-04T14:43:40Z</time>
      </trkpt>
      <trkpt lat="44.53922" lon="4.10471">
        <ele>392.84</ele>
        <time>2017-06-04T14:43:48Z</time>
      </trkpt>
      <trkpt lat="44.53919" lon="4.10475">
        <ele>393.32</ele>
        <time>2017-06-04T14:43:53Z</time>
      </trkpt>
      <trkpt lat="44.53913" lon="4.10479">
        <ele>394.28</ele>
        <time>2017-06-04T14:44:01Z</time>
      </trkpt>
      <trkpt lat="44.53908" lon="4.10478">
        <ele>394.76</ele>
        <time>2017-06-04T14:44:12Z</time>
      </trkpt>
      <trkpt lat="44.53905" lon="4.10485">
        <ele>394.76</ele>
        <time>2017-06-04T14:44:24Z</time>
      </trkpt>
      <trkpt lat="44.53904" lon="4.10486">
        <ele>395.24</ele>
        <time>2017-06-04T14:44:37Z</time>
      </trkpt>
      <trkpt lat="44.53903" lon="4.1049">
        <ele>394.28</ele>
        <time>2017-06-04T14:44:46Z</time>
      </trkpt>
      <trkpt lat="44.53901" lon="4.10489">
        <ele>394.28</ele>
        <time>2017-06-04T14:45:05Z</time>
      </trkpt>
      <trkpt lat="44.539" lon="4.10489">
        <ele>393.8</ele>
        <time>2017-06-04T14:45:27Z</time>
      </trkpt>
      <trkpt lat="44.53896" lon="4.10489">
        <ele>393.8</ele>
        <time>2017-06-04T14:45:53Z</time>
      </trkpt>
      <trkpt lat="44.53896" lon="4.10489">
        <ele>393.32</ele>
        <time>2017-06-04T14:46:23Z</time>
      </trkpt>
      <trkpt lat="44.53897" lon="4.10488">
        <ele>393.8</ele>
        <time>2017-06-04T14:46:44Z</time>
      </trkpt>
      <trkpt lat="44.53897" lon="4.10488">
        <ele>393.8</ele>
        <time>2017-06-04T14:47:11Z</time>
      </trkpt>
      <trkpt lat="44.53897" lon="4.10488">
        <ele>393.8</ele>
        <time>2017-06-04T14:47:41Z</time>
      </trkpt>
      <trkpt lat="44.53897" lon="4.10488">
        <ele>393.8</ele>
        <time>2017-06-04T14:48:09Z</time>
      </trkpt>
      <trkpt lat="44.53897" lon="4.10487">
        <ele>393.8</ele>
        <time>2017-06-04T14:48:45Z</time>
      </trkpt>
      <trkpt lat="44.53896" lon="4.10486">
        <ele>394.28</ele>
        <time>2017-06-04T14:49:19Z</time>
      </trkpt>
      <trkpt lat="44.53896" lon="4.10486">
        <ele>393.8</ele>
        <time>2017-06-04T14:49:51Z</time>
      </trkpt>
      <trkpt lat="44.53895" lon="4.10484">
        <ele>394.28</ele>
        <time>2017-06-04T14:50:27Z</time>
      </trkpt>
      <trkpt lat="44.53895" lon="4.10483">
        <ele>394.28</ele>
        <time>2017-06-04T14:50:59Z</time>
      </trkpt>
      <trkpt lat="44.53895" lon="4.10483">
        <ele>394.76</ele>
        <time>2017-06-04T14:51:35Z</time>
      </trkpt>
      <trkpt lat="44.53895" lon="4.10484">
        <ele>394.76</ele>
        <time>2017-06-04T14:52:02Z</time>
      </trkpt>
      <trkpt lat="44.53895" lon="4.10483">
        <ele>394.76</ele>
        <time>2017-06-04T14:52:39Z</time>
      </trkpt>
      <trkpt lat="44.53895" lon="4.10483">
        <ele>395.24</ele>
        <time>2017-06-04T14:53:16Z</time>
      </trkpt>
      <trkpt lat="44.53895" lon="4.10484">
        <ele>395.72</ele>
        <time>2017-06-04T14:53:42Z</time>
      </trkpt>
      <trkpt lat="44.53895" lon="4.10484">
        <ele>396.2</ele>
        <time>2017-06-04T14:54:06Z</time>
      </trkpt>
      <trkpt lat="44.53895" lon="4.10483">
        <ele>396.2</ele>
        <time>2017-06-04T14:54:35Z</time>
      </trkpt>
      <trkpt lat="44.53896" lon="4.10484">
        <ele>397.64</ele>
        <time>2017-06-04T14:54:47Z</time>
      </trkpt>
      <trkpt lat="44.53895" lon="4.10485">
        <ele>397.64</ele>
        <time>2017-06-04T14:55:00Z</time>
      </trkpt>
      <trkpt lat="44.53898" lon="4.1048">
        <ele>398.12</ele>
        <time>2017-06-04T14:55:24Z</time>
      </trkpt>
      <trkpt lat="44.53893" lon="4.10482">
        <ele>396.68</ele>
        <time>2017-06-04T14:55:38Z</time>
      </trkpt>
      <trkpt lat="44.5389" lon="4.10482">
        <ele>396.2</ele>
        <time>2017-06-04T14:55:40Z</time>
      </trkpt>
      <trkpt lat="44.53883" lon="4.10481">
        <ele>395.72</ele>
        <time>2017-06-04T14:55:44Z</time>
      </trkpt>
      <trkpt lat="44.53873" lon="4.10484">
        <ele>395.24</ele>
        <time>2017-06-04T14:55:57Z</time>
      </trkpt>
      <trkpt lat="44.53868" lon="4.10482">
        <ele>394.28</ele>
        <time>2017-06-04T14:56:04Z</time>
      </trkpt>
      <trkpt lat="44.53859" lon="4.10483">
        <ele>394.28</ele>
        <time>2017-06-04T14:56:16Z</time>
      </trkpt>
      <trkpt lat="44.53857" lon="4.10483">
        <ele>393.8</ele>
        <time>2017-06-04T14:56:19Z</time>
      </trkpt>
      <trkpt lat="44.53855" lon="4.10482">
        <ele>394.28</ele>
        <time>2017-06-04T14:56:24Z</time>
      </trkpt>
      <trkpt lat="44.53849" lon="4.10482">
        <ele>393.8</ele>
        <time>2017-06-04T14:56:28Z</time>
      </trkpt>
      <trkpt lat="44.53846" lon="4.10479">
        <ele>394.28</ele>
        <time>2017-06-04T14:56:31Z</time>
      </trkpt>
      <trkpt lat="44.53842" lon="4.10478">
        <ele>393.8</ele>
        <time>2017-06-04T14:56:34Z</time>
      </trkpt>
      <trkpt lat="44.53838" lon="4.10478">
        <ele>393.32</ele>
        <time>2017-06-04T14:56:39Z</time>
      </trkpt>
      <trkpt lat="44.53835" lon="4.10476">
        <ele>392.84</ele>
        <time>2017-06-04T14:56:42Z</time>
      </trkpt>
      <trkpt lat="44.53819" lon="4.10463">
        <ele>391.87</ele>
        <time>2017-06-04T14:56:54Z</time>
      </trkpt>
      <trkpt lat="44.53809" lon="4.10453">
        <ele>393.8</ele>
        <time>2017-06-04T14:57:09Z</time>
      </trkpt>
      <trkpt lat="44.53807" lon="4.10454">
        <ele>393.8</ele>
        <time>2017-06-04T14:57:11Z</time>
      </trkpt>
      <trkpt lat="44.53807" lon="4.10454">
        <ele>393.8</ele>
        <time>2017-06-04T14:57:14Z</time>
      </trkpt>
      <trkpt lat="44.53804" lon="4.10447">
        <ele>394.28</ele>
        <time>2017-06-04T14:57:21Z</time>
      </trkpt>
      <trkpt lat="44.538" lon="4.10441">
        <ele>394.76</ele>
        <time>2017-06-04T14:57:28Z</time>
      </trkpt>
      <trkpt lat="44.53795" lon="4.10436">
        <ele>395.24</ele>
        <time>2017-06-04T14:57:35Z</time>
      </trkpt>
      <trkpt lat="44.53791" lon="4.10429">
        <ele>396.2</ele>
        <time>2017-06-04T14:57:42Z</time>
      </trkpt>
      <trkpt lat="44.53787" lon="4.1042">
        <ele>397.64</ele>
        <time>2017-06-04T14:57:54Z</time>
      </trkpt>
      <trkpt lat="44.53777" lon="4.10411">
        <ele>400.53</ele>
        <time>2017-06-04T14:58:10Z</time>
      </trkpt>
      <trkpt lat="44.53777" lon="4.1041">
        <ele>400.05</ele>
        <time>2017-06-04T14:58:11Z</time>
      </trkpt>
      <trkpt lat="44.53772" lon="4.10395">
        <ele>402.45</ele>
        <time>2017-06-04T14:58:28Z</time>
      </trkpt>
      <trkpt lat="44.53772" lon="4.10392">
        <ele>402.45</ele>
        <time>2017-06-04T14:58:31Z</time>
      </trkpt>
      <trkpt lat="44.53769" lon="4.10386">
        <ele>402.93</ele>
        <time>2017-06-04T14:58:45Z</time>
      </trkpt>
      <trkpt lat="44.53761" lon="4.10378">
        <ele>404.37</ele>
        <time>2017-06-04T14:58:57Z</time>
      </trkpt>
      <trkpt lat="44.53756" lon="4.10377">
        <ele>405.81</ele>
        <time>2017-06-04T14:59:15Z</time>
      </trkpt>
      <trkpt lat="44.53746" lon="4.10382">
        <ele>407.26</ele>
        <time>2017-06-04T14:59:34Z</time>
      </trkpt>
      <trkpt lat="44.53743" lon="4.10384">
        <ele>407.26</ele>
        <time>2017-06-04T14:59:40Z</time>
      </trkpt>
      <trkpt lat="44.53739" lon="4.10387">
        <ele>407.74</ele>
        <time>2017-06-04T14:59:44Z</time>
      </trkpt>
      <trkpt lat="44.5373" lon="4.10396">
        <ele>408.22</ele>
        <time>2017-06-04T14:59:57Z</time>
      </trkpt>
      <trkpt lat="44.53727" lon="4.104">
        <ele>408.7</ele>
        <time>2017-06-04T15:00:02Z</time>
      </trkpt>
      <trkpt lat="44.53726" lon="4.10402">
        <ele>408.22</ele>
        <time>2017-06-04T15:00:04Z</time>
      </trkpt>
      <trkpt lat="44.53722" lon="4.10406">
        <ele>408.7</ele>
        <time>2017-06-04T15:00:09Z</time>
      </trkpt>
      <trkpt lat="44.5372" lon="4.10409">
        <ele>408.22</ele>
        <time>2017-06-04T15:00:11Z</time>
      </trkpt>
      <trkpt lat="44.53705" lon="4.10418">
        <ele>409.18</ele>
        <time>2017-06-04T15:00:27Z</time>
      </trkpt>
      <trkpt lat="44.53703" lon="4.1042">
        <ele>409.18</ele>
        <time>2017-06-04T15:00:31Z</time>
      </trkpt>
      <trkpt lat="44.53701" lon="4.10422">
        <ele>409.18</ele>
        <time>2017-06-04T15:00:33Z</time>
      </trkpt>
      <trkpt lat="44.53699" lon="4.10424">
        <ele>409.18</ele>
        <time>2017-06-04T15:00:35Z</time>
      </trkpt>
      <trkpt lat="44.53696" lon="4.10426">
        <ele>409.66</ele>
        <time>2017-06-04T15:00:41Z</time>
      </trkpt>
      <trkpt lat="44.53688" lon="4.1043">
        <ele>409.66</ele>
        <time>2017-06-04T15:00:50Z</time>
      </trkpt>
      <trkpt lat="44.53673" lon="4.10442">
        <ele>409.66</ele>
        <time>2017-06-04T15:01:03Z</time>
      </trkpt>
      <trkpt lat="44.53671" lon="4.10443">
        <ele>409.66</ele>
        <time>2017-06-04T15:01:05Z</time>
      </trkpt>
      <trkpt lat="44.53656" lon="4.10447">
        <ele>409.18</ele>
        <time>2017-06-04T15:01:19Z</time>
      </trkpt>
      <trkpt lat="44.53647" lon="4.10449">
        <ele>408.22</ele>
        <time>2017-06-04T15:01:27Z</time>
      </trkpt>
      <trkpt lat="44.53631" lon="4.10453">
        <ele>407.74</ele>
        <time>2017-06-04T15:01:40Z</time>
      </trkpt>
      <trkpt lat="44.53628" lon="4.10453">
        <ele>407.74</ele>
        <time>2017-06-04T15:01:42Z</time>
      </trkpt>
      <trkpt lat="44.53619" lon="4.10457">
        <ele>407.26</ele>
        <time>2017-06-04T15:01:50Z</time>
      </trkpt>
      <trkpt lat="44.53602" lon="4.10465">
        <ele>407.74</ele>
        <time>2017-06-04T15:02:04Z</time>
      </trkpt>
      <trkpt lat="44.53591" lon="4.10471">
        <ele>408.22</ele>
        <time>2017-06-04T15:02:18Z</time>
      </trkpt>
      <trkpt lat="44.53584" lon="4.10475">
        <ele>407.74</ele>
        <time>2017-06-04T15:02:33Z</time>
      </trkpt>
      <trkpt lat="44.53581" lon="4.10475">
        <ele>408.22</ele>
        <time>2017-06-04T15:02:36Z</time>
      </trkpt>
      <trkpt lat="44.53573" lon="4.10481">
        <ele>408.22</ele>
        <time>2017-06-04T15:02:43Z</time>
      </trkpt>
      <trkpt lat="44.5357" lon="4.10482">
        <ele>408.22</ele>
        <time>2017-06-04T15:02:46Z</time>
      </trkpt>
      <trkpt lat="44.53559" lon="4.10499">
        <ele>408.22</ele>
        <time>2017-06-04T15:02:59Z</time>
      </trkpt>
      <trkpt lat="44.53549" lon="4.10512">
        <ele>409.18</ele>
        <time>2017-06-04T15:03:19Z</time>
      </trkpt>
      <trkpt lat="44.53547" lon="4.10516">
        <ele>409.18</ele>
        <time>2017-06-04T15:03:24Z</time>
      </trkpt>
      <trkpt lat="44.53545" lon="4.1052">
        <ele>409.18</ele>
        <time>2017-06-04T15:03:27Z</time>
      </trkpt>
      <trkpt lat="44.53543" lon="4.10533">
        <ele>409.18</ele>
        <time>2017-06-04T15:03:42Z</time>
      </trkpt>
      <trkpt lat="44.53536" lon="4.10546">
        <ele>407.26</ele>
        <time>2017-06-04T15:03:54Z</time>
      </trkpt>
      <trkpt lat="44.53533" lon="4.10551">
        <ele>406.29</ele>
        <time>2017-06-04T15:04:02Z</time>
      </trkpt>
      <trkpt lat="44.53532" lon="4.10554">
        <ele>406.29</ele>
        <time>2017-06-04T15:04:06Z</time>
      </trkpt>
      <trkpt lat="44.53528" lon="4.10559">
        <ele>405.81</ele>
        <time>2017-06-04T15:04:12Z</time>
      </trkpt>
      <trkpt lat="44.53526" lon="4.10565">
        <ele>405.33</ele>
        <time>2017-06-04T15:04:17Z</time>
      </trkpt>
      <trkpt lat="44.53523" lon="4.10579">
        <ele>404.85</ele>
        <time>2017-06-04T15:04:32Z</time>
      </trkpt>
      <trkpt lat="44.53523" lon="4.10592">
        <ele>405.33</ele>
        <time>2017-06-04T15:04:49Z</time>
      </trkpt>
      <trkpt lat="44.53524" lon="4.10602">
        <ele>405.33</ele>
        <time>2017-06-04T15:04:57Z</time>
      </trkpt>
      <trkpt lat="44.53526" lon="4.10609">
        <ele>404.85</ele>
        <time>2017-06-04T15:05:04Z</time>
      </trkpt>
      <trkpt lat="44.53525" lon="4.10613">
        <ele>404.37</ele>
        <time>2017-06-04T15:05:07Z</time>
      </trkpt>
      <trkpt lat="44.5352" lon="4.10627">
        <ele>403.89</ele>
        <time>2017-06-04T15:05:19Z</time>
      </trkpt>
      <trkpt lat="44.5352" lon="4.10631">
        <ele>403.41</ele>
        <time>2017-06-04T15:05:23Z</time>
      </trkpt>
      <trkpt lat="44.5352" lon="4.10636">
        <ele>403.41</ele>
        <time>2017-06-04T15:05:27Z</time>
      </trkpt>
      <trkpt lat="44.53519" lon="4.10641">
        <ele>403.41</ele>
        <time>2017-06-04T15:05:30Z</time>
      </trkpt>
      <trkpt lat="44.53518" lon="4.10649">
        <ele>403.41</ele>
        <time>2017-06-04T15:05:38Z</time>
      </trkpt>
      <trkpt lat="44.53517" lon="4.10651">
        <ele>402.93</ele>
        <time>2017-06-04T15:05:41Z</time>
      </trkpt>
      <trkpt lat="44.53514" lon="4.10656">
        <ele>402.93</ele>
        <time>2017-06-04T15:05:45Z</time>
      </trkpt>
      <trkpt lat="44.53515" lon="4.1066">
        <ele>402.93</ele>
        <time>2017-06-04T15:05:49Z</time>
      </trkpt>
      <trkpt lat="44.53514" lon="4.10678">
        <ele>402.45</ele>
        <time>2017-06-04T15:06:05Z</time>
      </trkpt>
      <trkpt lat="44.53513" lon="4.10692">
        <ele>402.45</ele>
        <time>2017-06-04T15:06:17Z</time>
      </trkpt>
      <trkpt lat="44.53512" lon="4.10696">
        <ele>403.41</ele>
        <time>2017-06-04T15:06:21Z</time>
      </trkpt>
      <trkpt lat="44.53503" lon="4.10718">
        <ele>402.45</ele>
        <time>2017-06-04T15:06:35Z</time>
      </trkpt>
      <trkpt lat="44.53497" lon="4.10724">
        <ele>402.45</ele>
        <time>2017-06-04T15:06:47Z</time>
      </trkpt>
      <trkpt lat="44.53493" lon="4.10719">
        <ele>402.45</ele>
        <time>2017-06-04T15:06:55Z</time>
      </trkpt>
      <trkpt lat="44.53486" lon="4.1071">
        <ele>401.97</ele>
        <time>2017-06-04T15:07:03Z</time>
      </trkpt>
      <trkpt lat="44.53472" lon="4.10702">
        <ele>401.49</ele>
        <time>2017-06-04T15:07:13Z</time>
      </trkpt>
      <trkpt lat="44.53464" lon="4.10694">
        <ele>401.01</ele>
        <time>2017-06-04T15:07:30Z</time>
      </trkpt>
      <trkpt lat="44.5346" lon="4.10695">
        <ele>401.01</ele>
        <time>2017-06-04T15:08:04Z</time>
      </trkpt>
      <trkpt lat="44.53459" lon="4.10694">
        <ele>401.49</ele>
        <time>2017-06-04T15:08:39Z</time>
      </trkpt>
      <trkpt lat="44.53459" lon="4.10694">
        <ele>401.49</ele>
        <time>2017-06-04T15:08:55Z</time>
      </trkpt>
      <trkpt lat="44.53453" lon="4.10689">
        <ele>400.53</ele>
        <time>2017-06-04T15:09:03Z</time>
      </trkpt>
      <trkpt lat="44.53444" lon="4.10683">
        <ele>400.05</ele>
        <time>2017-06-04T15:09:14Z</time>
      </trkpt>
      <trkpt lat="44.53442" lon="4.10683">
        <ele>399.57</ele>
        <time>2017-06-04T15:09:18Z</time>
      </trkpt>
      <trkpt lat="44.53432" lon="4.10681">
        <ele>399.08</ele>
        <time>2017-06-04T15:09:29Z</time>
      </trkpt>
      <trkpt lat="44.53424" lon="4.10678">
        <ele>398.12</ele>
        <time>2017-06-04T15:09:41Z</time>
      </trkpt>
      <trkpt lat="44.53419" lon="4.10678">
        <ele>398.12</ele>
        <time>2017-06-04T15:09:46Z</time>
      </trkpt>
      <trkpt lat="44.53412" lon="4.10678">
        <ele>398.12</ele>
        <time>2017-06-04T15:09:52Z</time>
      </trkpt>
      <trkpt lat="44.53409" lon="4.10678">
        <ele>397.64</ele>
        <time>2017-06-04T15:09:55Z</time>
      </trkpt>
      <trkpt lat="44.53406" lon="4.10678">
        <ele>397.64</ele>
        <time>2017-06-04T15:09:58Z</time>
      </trkpt>
      <trkpt lat="44.53401" lon="4.10687">
        <ele>397.64</ele>
        <time>2017-06-04T15:10:08Z</time>
      </trkpt>
      <trkpt lat="44.53397" lon="4.10704">
        <ele>396.68</ele>
        <time>2017-06-04T15:10:22Z</time>
      </trkpt>
      <trkpt lat="44.53396" lon="4.1072">
        <ele>396.68</ele>
        <time>2017-06-04T15:10:34Z</time>
      </trkpt>
      <trkpt lat="44.53397" lon="4.10731">
        <ele>397.16</ele>
        <time>2017-06-04T15:10:43Z</time>
      </trkpt>
      <trkpt lat="44.53396" lon="4.10743">
        <ele>397.64</ele>
        <time>2017-06-04T15:10:54Z</time>
      </trkpt>
      <trkpt lat="44.53394" lon="4.10761">
        <ele>398.12</ele>
        <time>2017-06-04T15:11:09Z</time>
      </trkpt>
      <trkpt lat="44.53394" lon="4.10767">
        <ele>398.6</ele>
        <time>2017-06-04T15:11:14Z</time>
      </trkpt>
      <trkpt lat="44.53394" lon="4.10778">
        <ele>399.57</ele>
        <time>2017-06-04T15:11:24Z</time>
      </trkpt>
      <trkpt lat="44.53394" lon="4.10787">
        <ele>399.57</ele>
        <time>2017-06-04T15:11:31Z</time>
      </trkpt>
      <trkpt lat="44.53385" lon="4.10795">
        <ele>399.57</ele>
        <time>2017-06-04T15:11:42Z</time>
      </trkpt>
      <trkpt lat="44.5338" lon="4.10795">
        <ele>399.57</ele>
        <time>2017-06-04T15:11:46Z</time>
      </trkpt>
      <trkpt lat="44.53372" lon="4.10795">
        <ele>400.53</ele>
        <time>2017-06-04T15:11:53Z</time>
      </trkpt>
      <trkpt lat="44.5337" lon="4.10795">
        <ele>400.53</ele>
        <time>2017-06-04T15:11:57Z</time>
      </trkpt>
      <trkpt lat="44.53367" lon="4.10793">
        <ele>401.01</ele>
        <time>2017-06-04T15:12:00Z</time>
      </trkpt>
      <trkpt lat="44.53365" lon="4.10792">
        <ele>401.01</ele>
        <time>2017-06-04T15:12:02Z</time>
      </trkpt>
      <trkpt lat="44.53359" lon="4.10789">
        <ele>401.49</ele>
        <time>2017-06-04T15:12:08Z</time>
      </trkpt>
      <trkpt lat="44.53354" lon="4.10787">
        <ele>401.97</ele>
        <time>2017-06-04T15:12:14Z</time>
      </trkpt>
      <trkpt lat="44.5335" lon="4.10785">
        <ele>402.45</ele>
        <time>2017-06-04T15:12:18Z</time>
      </trkpt>
      <trkpt lat="44.53341" lon="4.10783">
        <ele>402.93</ele>
        <time>2017-06-04T15:12:27Z</time>
      </trkpt>
      <trkpt lat="44.53338" lon="4.10781">
        <ele>402.93</ele>
        <time>2017-06-04T15:12:30Z</time>
      </trkpt>
      <trkpt lat="44.53323" lon="4.10775">
        <ele>403.41</ele>
        <time>2017-06-04T15:12:44Z</time>
      </trkpt>
      <trkpt lat="44.53311" lon="4.10779">
        <ele>403.89</ele>
        <time>2017-06-04T15:12:56Z</time>
      </trkpt>
      <trkpt lat="44.5331" lon="4.10779">
        <ele>404.37</ele>
        <time>2017-06-04T15:12:57Z</time>
      </trkpt>
      <trkpt lat="44.53307" lon="4.1078">
        <ele>404.37</ele>
        <time>2017-06-04T15:13:00Z</time>
      </trkpt>
      <trkpt lat="44.53303" lon="4.10783">
        <ele>404.85</ele>
        <time>2017-06-04T15:13:05Z</time>
      </trkpt>
      <trkpt lat="44.53301" lon="4.10784">
        <ele>404.85</ele>
        <time>2017-06-04T15:13:06Z</time>
      </trkpt>
      <trkpt lat="44.53298" lon="4.10785">
        <ele>404.85</ele>
        <time>2017-06-04T15:13:08Z</time>
      </trkpt>
      <trkpt lat="44.53294" lon="4.1079">
        <ele>404.85</ele>
        <time>2017-06-04T15:13:12Z</time>
      </trkpt>
      <trkpt lat="44.53291" lon="4.10793">
        <ele>405.33</ele>
        <time>2017-06-04T15:13:16Z</time>
      </trkpt>
      <trkpt lat="44.53288" lon="4.10795">
        <ele>405.33</ele>
        <time>2017-06-04T15:13:19Z</time>
      </trkpt>
      <trkpt lat="44.53284" lon="4.10802">
        <ele>405.81</ele>
        <time>2017-06-04T15:13:26Z</time>
      </trkpt>
      <trkpt lat="44.53278" lon="4.10808">
        <ele>406.77</ele>
        <time>2017-06-04T15:13:34Z</time>
      </trkpt>
      <trkpt lat="44.53276" lon="4.10809">
        <ele>406.29</ele>
        <time>2017-06-04T15:13:36Z</time>
      </trkpt>
      <trkpt lat="44.53273" lon="4.10816">
        <ele>406.77</ele>
        <time>2017-06-04T15:13:40Z</time>
      </trkpt>
      <trkpt lat="44.53267" lon="4.10832">
        <ele>407.74</ele>
        <time>2017-06-04T15:13:51Z</time>
      </trkpt>
      <trkpt lat="44.53257" lon="4.10848">
        <ele>408.22</ele>
        <time>2017-06-04T15:14:04Z</time>
      </trkpt>
      <trkpt lat="44.53244" lon="4.10853">
        <ele>408.7</ele>
        <time>2017-06-04T15:14:15Z</time>
      </trkpt>
      <trkpt lat="44.53234" lon="4.10843">
        <ele>408.7</ele>
        <time>2017-06-04T15:14:26Z</time>
      </trkpt>
      <trkpt lat="44.53221" lon="4.10835">
        <ele>408.7</ele>
        <time>2017-06-04T15:14:36Z</time>
      </trkpt>
      <trkpt lat="44.53218" lon="4.10833">
        <ele>409.18</ele>
        <time>2017-06-04T15:14:39Z</time>
      </trkpt>
      <trkpt lat="44.53209" lon="4.10831">
        <ele>409.66</ele>
        <time>2017-06-04T15:14:46Z</time>
      </trkpt>
      <trkpt lat="44.53204" lon="4.10831">
        <ele>409.66</ele>
        <time>2017-06-04T15:14:51Z</time>
      </trkpt>
      <trkpt lat="44.53195" lon="4.10829">
        <ele>410.14</ele>
        <time>2017-06-04T15:14:59Z</time>
      </trkpt>
      <trkpt lat="44.53186" lon="4.10832">
        <ele>410.14</ele>
        <time>2017-06-04T15:15:08Z</time>
      </trkpt>
      <trkpt lat="44.53182" lon="4.10834">
        <ele>410.62</ele>
        <time>2017-06-04T15:15:12Z</time>
      </trkpt>
      <trkpt lat="44.53178" lon="4.10837">
        <ele>410.62</ele>
        <time>2017-06-04T15:15:16Z</time>
      </trkpt>
      <trkpt lat="44.53172" lon="4.10839">
        <ele>411.1</ele>
        <time>2017-06-04T15:15:22Z</time>
      </trkpt>
      <trkpt lat="44.5317" lon="4.1084">
        <ele>411.1</ele>
        <time>2017-06-04T15:15:24Z</time>
      </trkpt>
      <trkpt lat="44.53154" lon="4.10843">
        <ele>412.06</ele>
        <time>2017-06-04T15:15:39Z</time>
      </trkpt>
      <trkpt lat="44.53149" lon="4.10842">
        <ele>412.54</ele>
        <time>2017-06-04T15:15:45Z</time>
      </trkpt>
      <trkpt lat="44.53143" lon="4.1084">
        <ele>413.5</ele>
        <time>2017-06-04T15:15:53Z</time>
      </trkpt>
      <trkpt lat="44.53136" lon="4.10832">
        <ele>414.47</ele>
        <time>2017-06-04T15:16:02Z</time>
      </trkpt>
      <trkpt lat="44.53122" lon="4.10814">
        <ele>415.43</ele>
        <time>2017-06-04T15:16:18Z</time>
      </trkpt>
      <trkpt lat="44.53108" lon="4.10803">
        <ele>416.39</ele>
        <time>2017-06-04T15:16:33Z</time>
      </trkpt>
      <trkpt lat="44.53104" lon="4.108">
        <ele>416.87</ele>
        <time>2017-06-04T15:16:37Z</time>
      </trkpt>
      <trkpt lat="44.53092" lon="4.10794">
        <ele>417.35</ele>
        <time>2017-06-04T15:16:47Z</time>
      </trkpt>
      <trkpt lat="44.53089" lon="4.10792">
        <ele>417.35</ele>
        <time>2017-06-04T15:16:50Z</time>
      </trkpt>
      <trkpt lat="44.53075" lon="4.1078">
        <ele>418.31</ele>
        <time>2017-06-04T15:17:04Z</time>
      </trkpt>
      <trkpt lat="44.53067" lon="4.10777">
        <ele>418.79</ele>
        <time>2017-06-04T15:17:11Z</time>
      </trkpt>
      <trkpt lat="44.53057" lon="4.10776">
        <ele>419.75</ele>
        <time>2017-06-04T15:17:24Z</time>
      </trkpt>
      <trkpt lat="44.53055" lon="4.10775">
        <ele>419.75</ele>
        <time>2017-06-04T15:17:27Z</time>
      </trkpt>
      <trkpt lat="44.53051" lon="4.10775">
        <ele>420.71</ele>
        <time>2017-06-04T15:17:31Z</time>
      </trkpt>
      <trkpt lat="44.53044" lon="4.10776">
        <ele>420.71</ele>
        <time>2017-06-04T15:17:46Z</time>
      </trkpt>
      <trkpt lat="44.53045" lon="4.10771">
        <ele>420.23</ele>
        <time>2017-06-04T15:18:03Z</time>
      </trkpt>
      <trkpt lat="44.53045" lon="4.10772">
        <ele>420.71</ele>
        <time>2017-06-04T15:18:13Z</time>
      </trkpt>
      <trkpt lat="44.53046" lon="4.10771">
        <ele>420.71</ele>
        <time>2017-06-04T15:18:24Z</time>
      </trkpt>
      <trkpt lat="44.53046" lon="4.1077">
        <ele>420.71</ele>
        <time>2017-06-04T15:18:40Z</time>
      </trkpt>
      <trkpt lat="44.53039" lon="4.10758">
        <ele>420.23</ele>
        <time>2017-06-04T15:19:10Z</time>
      </trkpt>
      <trkpt lat="44.53037" lon="4.10756">
        <ele>420.71</ele>
        <time>2017-06-04T15:19:41Z</time>
      </trkpt>
    </trkseg>
  </trk>
</gpx>